<?xml version="1.0" encoding="UTF-8" standalone="no" ?>
<gpx xmlns="http://www.topografix.com/GPX/1/1" xmlns:xsi="http://www.w3.org/2001/XMLSchema-instance" xsi:schemaLocation="http://www.topografix.com/GPX/1/1 http://www.topografix.com/GPX/1/1/gpx.xsd" version="1.1" creator="VisuGPX - https://www.visugpx.com">
  <metadata>
    <name>Trail de quaix en chartreuse</name>
    <desc><![CDATA[21 km et 1000 mètres de dénivelé]]></desc>
  </metadata>
  <trk>
    <name><![CDATA[Trail de quaix en chartreuse_1]]></name>
    <trkseg>
      <trkpt lat="45.25323" lon="5.71724">
        <ele>538.71990966797</ele>
        <time>2011-05-15T07:02:59Z</time>
      </trkpt>
      <trkpt lat="45.25321" lon="5.71734">
        <ele>537.85125732422</ele>
        <time>2011-05-15T07:03:03Z</time>
      </trkpt>
      <trkpt lat="45.25312" lon="5.71755">
        <ele>535.54510498047</ele>
        <time>2011-05-15T07:03:09Z</time>
      </trkpt>
      <trkpt lat="45.25303" lon="5.71765">
        <ele>533.89471435547</ele>
        <time>2011-05-15T07:03:13Z</time>
      </trkpt>
      <trkpt lat="45.25296" lon="5.71771">
        <ele>532.62097167969</ele>
        <time>2011-05-15T07:03:16Z</time>
      </trkpt>
      <trkpt lat="45.2529" lon="5.71779">
        <ele>531.62896728516</ele>
        <time>2011-05-15T07:03:19Z</time>
      </trkpt>
      <trkpt lat="45.25283" lon="5.7179">
        <ele>530.33551025391</ele>
        <time>2011-05-15T07:03:23Z</time>
      </trkpt>
      <trkpt lat="45.25272" lon="5.71808">
        <ele>528.27111816406</ele>
        <time>2011-05-15T07:03:29Z</time>
      </trkpt>
      <trkpt lat="45.25265" lon="5.71828">
        <ele>526.19470214844</ele>
        <time>2011-05-15T07:03:34Z</time>
      </trkpt>
      <trkpt lat="45.25268" lon="5.71847">
        <ele>526.33520507812</ele>
        <time>2011-05-15T07:03:38Z</time>
      </trkpt>
      <trkpt lat="45.25277" lon="5.71875">
        <ele>527.25531005859</ele>
        <time>2011-05-15T07:03:44Z</time>
      </trkpt>
      <trkpt lat="45.25283" lon="5.71903">
        <ele>526.40899658203</ele>
        <time>2011-05-15T07:03:50Z</time>
      </trkpt>
      <trkpt lat="45.25284" lon="5.71927">
        <ele>524.85913085938</ele>
        <time>2011-05-15T07:03:55Z</time>
      </trkpt>
      <trkpt lat="45.25286" lon="5.71957">
        <ele>524.8427734375</ele>
        <time>2011-05-15T07:04:01Z</time>
      </trkpt>
      <trkpt lat="45.25291" lon="5.71975">
        <ele>525.38439941406</ele>
        <time>2011-05-15T07:04:05Z</time>
      </trkpt>
      <trkpt lat="45.25303" lon="5.71984">
        <ele>526.62475585938</ele>
        <time>2011-05-15T07:04:09Z</time>
      </trkpt>
      <trkpt lat="45.25316" lon="5.71985">
        <ele>528.75054931641</ele>
        <time>2011-05-15T07:04:13Z</time>
      </trkpt>
      <trkpt lat="45.25335" lon="5.71986">
        <ele>531.81323242188</ele>
        <time>2011-05-15T07:04:19Z</time>
      </trkpt>
      <trkpt lat="45.25343" lon="5.71995">
        <ele>533.28350830078</ele>
        <time>2011-05-15T07:04:22Z</time>
      </trkpt>
      <trkpt lat="45.25338" lon="5.72008">
        <ele>531.92175292969</ele>
        <time>2011-05-15T07:04:26Z</time>
      </trkpt>
      <trkpt lat="45.25324" lon="5.7202">
        <ele>529.39739990234</ele>
        <time>2011-05-15T07:04:31Z</time>
      </trkpt>
      <trkpt lat="45.25303" lon="5.72035">
        <ele>526.11401367188</ele>
        <time>2011-05-15T07:04:37Z</time>
      </trkpt>
      <trkpt lat="45.25292" lon="5.72049">
        <ele>524.61871337891</ele>
        <time>2011-05-15T07:04:41Z</time>
      </trkpt>
      <trkpt lat="45.25277" lon="5.72067">
        <ele>520.79077148438</ele>
        <time>2011-05-15T07:04:46Z</time>
      </trkpt>
      <trkpt lat="45.2526" lon="5.72077">
        <ele>517.39306640625</ele>
        <time>2011-05-15T07:04:51Z</time>
      </trkpt>
      <trkpt lat="45.25245" lon="5.72092">
        <ele>514.52349853516</ele>
        <time>2011-05-15T07:04:56Z</time>
      </trkpt>
      <trkpt lat="45.25238" lon="5.72109">
        <ele>514.13037109375</ele>
        <time>2011-05-15T07:05:00Z</time>
      </trkpt>
      <trkpt lat="45.25232" lon="5.72133">
        <ele>514.22821044922</ele>
        <time>2011-05-15T07:05:05Z</time>
      </trkpt>
      <trkpt lat="45.25229" lon="5.72152">
        <ele>514.47027587891</ele>
        <time>2011-05-15T07:05:09Z</time>
      </trkpt>
      <trkpt lat="45.25221" lon="5.72173">
        <ele>514.55413818359</ele>
        <time>2011-05-15T07:05:14Z</time>
      </trkpt>
      <trkpt lat="45.25207" lon="5.72194">
        <ele>514.21636962891</ele>
        <time>2011-05-15T07:05:20Z</time>
      </trkpt>
      <trkpt lat="45.2519" lon="5.72215">
        <ele>514.07287597656</ele>
        <time>2011-05-15T07:05:27Z</time>
      </trkpt>
      <trkpt lat="45.25176" lon="5.72234">
        <ele>513.45922851562</ele>
        <time>2011-05-15T07:05:33Z</time>
      </trkpt>
      <trkpt lat="45.25159" lon="5.72258">
        <ele>512.32305908203</ele>
        <time>2011-05-15T07:05:39Z</time>
      </trkpt>
      <trkpt lat="45.25145" lon="5.7228">
        <ele>510.09252929688</ele>
        <time>2011-05-15T07:05:45Z</time>
      </trkpt>
      <trkpt lat="45.25131" lon="5.72305">
        <ele>507.54656982422</ele>
        <time>2011-05-15T07:05:51Z</time>
      </trkpt>
      <trkpt lat="45.25114" lon="5.72338">
        <ele>505.01553344727</ele>
        <time>2011-05-15T07:05:59Z</time>
      </trkpt>
      <trkpt lat="45.25102" lon="5.72364">
        <ele>503.28799438477</ele>
        <time>2011-05-15T07:06:05Z</time>
      </trkpt>
      <trkpt lat="45.25087" lon="5.72395">
        <ele>498.84017944336</ele>
        <time>2011-05-15T07:06:12Z</time>
      </trkpt>
      <trkpt lat="45.25076" lon="5.72416">
        <ele>495.85125732422</ele>
        <time>2011-05-15T07:06:17Z</time>
      </trkpt>
      <trkpt lat="45.25065" lon="5.72425">
        <ele>492.6767578125</ele>
        <time>2011-05-15T07:06:21Z</time>
      </trkpt>
      <trkpt lat="45.25052" lon="5.72417">
        <ele>489.05297851562</ele>
        <time>2011-05-15T07:06:25Z</time>
      </trkpt>
      <trkpt lat="45.2505" lon="5.72413">
        <ele>488.30224609375</ele>
        <time>2011-05-15T07:06:26Z</time>
      </trkpt>
      <trkpt lat="45.25053" lon="5.72389">
        <ele>487.47329711914</ele>
        <time>2011-05-15T07:06:31Z</time>
      </trkpt>
      <trkpt lat="45.25064" lon="5.72353">
        <ele>492.1623840332</ele>
        <time>2011-05-15T07:06:39Z</time>
      </trkpt>
      <trkpt lat="45.25068" lon="5.72324">
        <ele>491.81246948242</ele>
        <time>2011-05-15T07:06:45Z</time>
      </trkpt>
      <trkpt lat="45.25062" lon="5.72299">
        <ele>488.39434814453</ele>
        <time>2011-05-15T07:06:50Z</time>
      </trkpt>
      <trkpt lat="45.25054" lon="5.7227">
        <ele>483.99514770508</ele>
        <time>2011-05-15T07:06:56Z</time>
      </trkpt>
      <trkpt lat="45.25055" lon="5.72247">
        <ele>482.87265014648</ele>
        <time>2011-05-15T07:07:01Z</time>
      </trkpt>
      <trkpt lat="45.25057" lon="5.72221">
        <ele>484.31744384766</ele>
        <time>2011-05-15T07:07:06Z</time>
      </trkpt>
      <trkpt lat="45.25058" lon="5.72186">
        <ele>482.0048828125</ele>
        <time>2011-05-15T07:07:12Z</time>
      </trkpt>
      <trkpt lat="45.25057" lon="5.7218">
        <ele>482.0680847168</ele>
        <time>2011-05-15T07:07:13Z</time>
      </trkpt>
      <trkpt lat="45.25055" lon="5.72168">
        <ele>481.76733398438</ele>
        <time>2011-05-15T07:07:15Z</time>
      </trkpt>
      <trkpt lat="45.25046" lon="5.7215">
        <ele>477.95211791992</ele>
        <time>2011-05-15T07:07:19Z</time>
      </trkpt>
      <trkpt lat="45.25043" lon="5.72146">
        <ele>476.95989990234</ele>
        <time>2011-05-15T07:07:20Z</time>
      </trkpt>
      <trkpt lat="45.25031" lon="5.72146">
        <ele>473.54730224609</ele>
        <time>2011-05-15T07:07:23Z</time>
      </trkpt>
      <trkpt lat="45.25019" lon="5.72159">
        <ele>470.48391723633</ele>
        <time>2011-05-15T07:07:27Z</time>
      </trkpt>
      <trkpt lat="45.25015" lon="5.7217">
        <ele>469.88763427734</ele>
        <time>2011-05-15T07:07:29Z</time>
      </trkpt>
      <trkpt lat="45.25013" lon="5.72187">
        <ele>469.68502807617</ele>
        <time>2011-05-15T07:07:32Z</time>
      </trkpt>
      <trkpt lat="45.25016" lon="5.7221">
        <ele>469.93273925781</ele>
        <time>2011-05-15T07:07:36Z</time>
      </trkpt>
      <trkpt lat="45.2502" lon="5.72219">
        <ele>470.248046875</ele>
        <time>2011-05-15T07:07:38Z</time>
      </trkpt>
      <trkpt lat="45.25025" lon="5.72247">
        <ele>471.99047851562</ele>
        <time>2011-05-15T07:07:43Z</time>
      </trkpt>
      <trkpt lat="45.25023" lon="5.72268">
        <ele>473.10244750977</ele>
        <time>2011-05-15T07:07:47Z</time>
      </trkpt>
      <trkpt lat="45.25025" lon="5.72293">
        <ele>475.25607299805</ele>
        <time>2011-05-15T07:07:52Z</time>
      </trkpt>
      <trkpt lat="45.25027" lon="5.72314">
        <ele>476.83981323242</ele>
        <time>2011-05-15T07:07:56Z</time>
      </trkpt>
      <trkpt lat="45.25017" lon="5.72334">
        <ele>473.82672119141</ele>
        <time>2011-05-15T07:08:00Z</time>
      </trkpt>
      <trkpt lat="45.25009" lon="5.72347">
        <ele>471.3069152832</ele>
        <time>2011-05-15T07:08:03Z</time>
      </trkpt>
      <trkpt lat="45.24995" lon="5.72377">
        <ele>469.06723022461</ele>
        <time>2011-05-15T07:08:09Z</time>
      </trkpt>
      <trkpt lat="45.24982" lon="5.72392">
        <ele>467.27838134766</ele>
        <time>2011-05-15T07:08:13Z</time>
      </trkpt>
      <trkpt lat="45.24973" lon="5.72402">
        <ele>465.6494140625</ele>
        <time>2011-05-15T07:08:16Z</time>
      </trkpt>
      <trkpt lat="45.24958" lon="5.72431">
        <ele>462.8298034668</ele>
        <time>2011-05-15T07:08:23Z</time>
      </trkpt>
      <trkpt lat="45.24959" lon="5.72457">
        <ele>463.60311889648</ele>
        <time>2011-05-15T07:08:28Z</time>
      </trkpt>
      <trkpt lat="45.2496" lon="5.72488">
        <ele>464.28002929688</ele>
        <time>2011-05-15T07:08:34Z</time>
      </trkpt>
      <trkpt lat="45.24952" lon="5.72512">
        <ele>462.96020507812</ele>
        <time>2011-05-15T07:08:39Z</time>
      </trkpt>
      <trkpt lat="45.24948" lon="5.72538">
        <ele>463.7001953125</ele>
        <time>2011-05-15T07:08:44Z</time>
      </trkpt>
      <trkpt lat="45.24948" lon="5.7256">
        <ele>468.75436401367</ele>
        <time>2011-05-15T07:08:48Z</time>
      </trkpt>
      <trkpt lat="45.24946" lon="5.72586">
        <ele>466.95510864258</ele>
        <time>2011-05-15T07:08:53Z</time>
      </trkpt>
      <trkpt lat="45.2494" lon="5.72595">
        <ele>467.34741210938</ele>
        <time>2011-05-15T07:08:56Z</time>
      </trkpt>
      <trkpt lat="45.24937" lon="5.72596">
        <ele>467.86679077148</ele>
        <time>2011-05-15T07:08:57Z</time>
      </trkpt>
      <trkpt lat="45.24922" lon="5.72588">
        <ele>469.22534179688</ele>
        <time>2011-05-15T07:09:02Z</time>
      </trkpt>
      <trkpt lat="45.24911" lon="5.72572">
        <ele>467.48379516602</ele>
        <time>2011-05-15T07:09:08Z</time>
      </trkpt>
      <trkpt lat="45.24901" lon="5.72546">
        <ele>464.86761474609</ele>
        <time>2011-05-15T07:09:15Z</time>
      </trkpt>
      <trkpt lat="45.24892" lon="5.72528">
        <ele>463.50289916992</ele>
        <time>2011-05-15T07:09:20Z</time>
      </trkpt>
      <trkpt lat="45.24881" lon="5.72512">
        <ele>463.21411132812</ele>
        <time>2011-05-15T07:09:25Z</time>
      </trkpt>
      <trkpt lat="45.24872" lon="5.72488">
        <ele>462.42077636719</ele>
        <time>2011-05-15T07:09:31Z</time>
      </trkpt>
      <trkpt lat="45.24864" lon="5.72464">
        <ele>462.56680297852</ele>
        <time>2011-05-15T07:09:37Z</time>
      </trkpt>
      <trkpt lat="45.24857" lon="5.72445">
        <ele>462.01760864258</ele>
        <time>2011-05-15T07:09:42Z</time>
      </trkpt>
      <trkpt lat="45.24848" lon="5.7242">
        <ele>462.98547363281</ele>
        <time>2011-05-15T07:09:49Z</time>
      </trkpt>
      <trkpt lat="45.24842" lon="5.72398">
        <ele>463.27423095703</ele>
        <time>2011-05-15T07:09:55Z</time>
      </trkpt>
      <trkpt lat="45.24837" lon="5.7238">
        <ele>462.81704711914</ele>
        <time>2011-05-15T07:10:00Z</time>
      </trkpt>
      <trkpt lat="45.24831" lon="5.72362">
        <ele>462.36608886719</ele>
        <time>2011-05-15T07:10:05Z</time>
      </trkpt>
      <trkpt lat="45.2482" lon="5.72338">
        <ele>461.80990600586</ele>
        <time>2011-05-15T07:10:12Z</time>
      </trkpt>
      <trkpt lat="45.2481" lon="5.72322">
        <ele>462.14971923828</ele>
        <time>2011-05-15T07:10:17Z</time>
      </trkpt>
      <trkpt lat="45.24797" lon="5.72305">
        <ele>462.91226196289</ele>
        <time>2011-05-15T07:10:23Z</time>
      </trkpt>
      <trkpt lat="45.24782" lon="5.72291">
        <ele>464.12319946289</ele>
        <time>2011-05-15T07:10:29Z</time>
      </trkpt>
      <trkpt lat="45.24762" lon="5.7228">
        <ele>465.78378295898</ele>
        <time>2011-05-15T07:10:36Z</time>
      </trkpt>
      <trkpt lat="45.24751" lon="5.72264">
        <ele>466.44122314453</ele>
        <time>2011-05-15T07:10:41Z</time>
      </trkpt>
      <trkpt lat="45.24749" lon="5.72246">
        <ele>466.32369995117</ele>
        <time>2011-05-15T07:10:45Z</time>
      </trkpt>
      <trkpt lat="45.24754" lon="5.7222">
        <ele>467.49551391602</ele>
        <time>2011-05-15T07:10:51Z</time>
      </trkpt>
      <trkpt lat="45.24754" lon="5.72198">
        <ele>467.55688476562</ele>
        <time>2011-05-15T07:10:56Z</time>
      </trkpt>
      <trkpt lat="45.24749" lon="5.72169">
        <ele>468.0751953125</ele>
        <time>2011-05-15T07:11:03Z</time>
      </trkpt>
      <trkpt lat="45.24744" lon="5.72145">
        <ele>469.98376464844</ele>
        <time>2011-05-15T07:11:09Z</time>
      </trkpt>
      <trkpt lat="45.24739" lon="5.72121">
        <ele>471.42718505859</ele>
        <time>2011-05-15T07:11:15Z</time>
      </trkpt>
      <trkpt lat="45.24733" lon="5.72099">
        <ele>472.68029785156</ele>
        <time>2011-05-15T07:11:21Z</time>
      </trkpt>
      <trkpt lat="45.24725" lon="5.72074">
        <ele>474.12173461914</ele>
        <time>2011-05-15T07:11:28Z</time>
      </trkpt>
      <trkpt lat="45.2472" lon="5.7205">
        <ele>474.92791748047</ele>
        <time>2011-05-15T07:11:34Z</time>
      </trkpt>
      <trkpt lat="45.24717" lon="5.7203">
        <ele>474.84896850586</ele>
        <time>2011-05-15T07:11:39Z</time>
      </trkpt>
      <trkpt lat="45.24716" lon="5.72">
        <ele>475.64169311523</ele>
        <time>2011-05-15T07:11:46Z</time>
      </trkpt>
      <trkpt lat="45.24716" lon="5.71978">
        <ele>476.87841796875</ele>
        <time>2011-05-15T07:11:51Z</time>
      </trkpt>
      <trkpt lat="45.24715" lon="5.71969">
        <ele>477.17642211914</ele>
        <time>2011-05-15T07:11:53Z</time>
      </trkpt>
      <trkpt lat="45.24714" lon="5.7195">
        <ele>477.06149291992</ele>
        <time>2011-05-15T07:11:57Z</time>
      </trkpt>
      <trkpt lat="45.24714" lon="5.71932">
        <ele>477.79583740234</ele>
        <time>2011-05-15T07:12:01Z</time>
      </trkpt>
      <trkpt lat="45.24714" lon="5.71915">
        <ele>478.56143188477</ele>
        <time>2011-05-15T07:12:05Z</time>
      </trkpt>
      <trkpt lat="45.24717" lon="5.71892">
        <ele>480.11291503906</ele>
        <time>2011-05-15T07:12:10Z</time>
      </trkpt>
      <trkpt lat="45.24723" lon="5.71867">
        <ele>477.38400268555</ele>
        <time>2011-05-15T07:12:16Z</time>
      </trkpt>
      <trkpt lat="45.2473" lon="5.71839">
        <ele>477.22116088867</ele>
        <time>2011-05-15T07:12:22Z</time>
      </trkpt>
      <trkpt lat="45.24733" lon="5.71818">
        <ele>476.68798828125</ele>
        <time>2011-05-15T07:12:27Z</time>
      </trkpt>
      <trkpt lat="45.24734" lon="5.71796">
        <ele>477.15832519531</ele>
        <time>2011-05-15T07:12:32Z</time>
      </trkpt>
      <trkpt lat="45.24734" lon="5.71772">
        <ele>478.64987182617</ele>
        <time>2011-05-15T07:12:37Z</time>
      </trkpt>
      <trkpt lat="45.24739" lon="5.71749">
        <ele>477.45446777344</ele>
        <time>2011-05-15T07:12:42Z</time>
      </trkpt>
      <trkpt lat="45.24742" lon="5.71732">
        <ele>478.09649658203</ele>
        <time>2011-05-15T07:12:46Z</time>
      </trkpt>
      <trkpt lat="45.24743" lon="5.7171">
        <ele>479.46292114258</ele>
        <time>2011-05-15T07:12:51Z</time>
      </trkpt>
      <trkpt lat="45.24745" lon="5.71686">
        <ele>480.72634887695</ele>
        <time>2011-05-15T07:12:56Z</time>
      </trkpt>
      <trkpt lat="45.24747" lon="5.71657">
        <ele>483.12982177734</ele>
        <time>2011-05-15T07:13:02Z</time>
      </trkpt>
      <trkpt lat="45.24754" lon="5.71638">
        <ele>484.15887451172</ele>
        <time>2011-05-15T07:13:07Z</time>
      </trkpt>
      <trkpt lat="45.24758" lon="5.71621">
        <ele>484.95025634766</ele>
        <time>2011-05-15T07:13:11Z</time>
      </trkpt>
      <trkpt lat="45.24765" lon="5.71605">
        <ele>484.96054077148</ele>
        <time>2011-05-15T07:13:16Z</time>
      </trkpt>
      <trkpt lat="45.24766" lon="5.71597">
        <ele>485.51672363281</ele>
        <time>2011-05-15T07:13:19Z</time>
      </trkpt>
      <trkpt lat="45.24772" lon="5.71581">
        <ele>485.93606567383</ele>
        <time>2011-05-15T07:13:24Z</time>
      </trkpt>
      <trkpt lat="45.24774" lon="5.71561">
        <ele>489.01550292969</ele>
        <time>2011-05-15T07:13:30Z</time>
      </trkpt>
      <trkpt lat="45.24781" lon="5.7154">
        <ele>491.17459106445</ele>
        <time>2011-05-15T07:13:38Z</time>
      </trkpt>
      <trkpt lat="45.24781" lon="5.71528">
        <ele>493.25</ele>
        <time>2011-05-15T07:13:43Z</time>
      </trkpt>
      <trkpt lat="45.24782" lon="5.71525">
        <ele>493.65682983398</ele>
        <time>2011-05-15T07:13:44Z</time>
      </trkpt>
      <trkpt lat="45.24783" lon="5.71516">
        <ele>494.97518920898</ele>
        <time>2011-05-15T07:13:48Z</time>
      </trkpt>
      <trkpt lat="45.24785" lon="5.71499">
        <ele>497.59674072266</ele>
        <time>2011-05-15T07:13:55Z</time>
      </trkpt>
      <trkpt lat="45.24789" lon="5.71482">
        <ele>498.99862670898</ele>
        <time>2011-05-15T07:14:01Z</time>
      </trkpt>
      <trkpt lat="45.24793" lon="5.71478">
        <ele>499.0432434082</ele>
        <time>2011-05-15T07:14:04Z</time>
      </trkpt>
      <trkpt lat="45.24794" lon="5.71468">
        <ele>500.3291015625</ele>
        <time>2011-05-15T07:14:08Z</time>
      </trkpt>
      <trkpt lat="45.24804" lon="5.71452">
        <ele>500.64562988281</ele>
        <time>2011-05-15T07:14:14Z</time>
      </trkpt>
      <trkpt lat="45.24813" lon="5.71441">
        <ele>500.30804443359</ele>
        <time>2011-05-15T07:14:18Z</time>
      </trkpt>
      <trkpt lat="45.24824" lon="5.71424">
        <ele>500.88220214844</ele>
        <time>2011-05-15T07:14:23Z</time>
      </trkpt>
      <trkpt lat="45.24833" lon="5.71409">
        <ele>501.60632324219</ele>
        <time>2011-05-15T07:14:28Z</time>
      </trkpt>
      <trkpt lat="45.24842" lon="5.71392">
        <ele>501.61697387695</ele>
        <time>2011-05-15T07:14:34Z</time>
      </trkpt>
      <trkpt lat="45.2485" lon="5.71375">
        <ele>500.79748535156</ele>
        <time>2011-05-15T07:14:39Z</time>
      </trkpt>
      <trkpt lat="45.24857" lon="5.71359">
        <ele>499.6328125</ele>
        <time>2011-05-15T07:14:44Z</time>
      </trkpt>
      <trkpt lat="45.24864" lon="5.71344">
        <ele>499.78726196289</ele>
        <time>2011-05-15T07:14:49Z</time>
      </trkpt>
      <trkpt lat="45.24874" lon="5.71318">
        <ele>500.94235229492</ele>
        <time>2011-05-15T07:14:55Z</time>
      </trkpt>
      <trkpt lat="45.2488" lon="5.71293">
        <ele>502.53167724609</ele>
        <time>2011-05-15T07:15:02Z</time>
      </trkpt>
      <trkpt lat="45.24883" lon="5.71274">
        <ele>502.90106201172</ele>
        <time>2011-05-15T07:15:07Z</time>
      </trkpt>
      <trkpt lat="45.24886" lon="5.71255">
        <ele>504.13381958008</ele>
        <time>2011-05-15T07:15:12Z</time>
      </trkpt>
      <trkpt lat="45.24891" lon="5.71236">
        <ele>502.40612792969</ele>
        <time>2011-05-15T07:15:17Z</time>
      </trkpt>
      <trkpt lat="45.24892" lon="5.71219">
        <ele>501.07702636719</ele>
        <time>2011-05-15T07:15:22Z</time>
      </trkpt>
      <trkpt lat="45.24891" lon="5.71215">
        <ele>501.28793334961</ele>
        <time>2011-05-15T07:15:23Z</time>
      </trkpt>
      <trkpt lat="45.24881" lon="5.71199">
        <ele>504.23675537109</ele>
        <time>2011-05-15T07:15:28Z</time>
      </trkpt>
      <trkpt lat="45.24865" lon="5.71185">
        <ele>507.56271362305</ele>
        <time>2011-05-15T07:15:33Z</time>
      </trkpt>
      <trkpt lat="45.24856" lon="5.71176">
        <ele>510.29647827148</ele>
        <time>2011-05-15T07:15:37Z</time>
      </trkpt>
      <trkpt lat="45.24847" lon="5.71166">
        <ele>513.14904785156</ele>
        <time>2011-05-15T07:15:42Z</time>
      </trkpt>
      <trkpt lat="45.24842" lon="5.71165">
        <ele>514.81817626953</ele>
        <time>2011-05-15T07:15:45Z</time>
      </trkpt>
      <trkpt lat="45.24841" lon="5.7116">
        <ele>515.95788574219</ele>
        <time>2011-05-15T07:15:49Z</time>
      </trkpt>
      <trkpt lat="45.24834" lon="5.71163">
        <ele>517.94757080078</ele>
        <time>2011-05-15T07:15:55Z</time>
      </trkpt>
      <trkpt lat="45.24831" lon="5.71165">
        <ele>519.38256835938</ele>
        <time>2011-05-15T07:16:00Z</time>
      </trkpt>
      <trkpt lat="45.24821" lon="5.71171">
        <ele>523.30072021484</ele>
        <time>2011-05-15T07:16:06Z</time>
      </trkpt>
      <trkpt lat="45.24818" lon="5.71176">
        <ele>524.92169189453</ele>
        <time>2011-05-15T07:16:10Z</time>
      </trkpt>
      <trkpt lat="45.24818" lon="5.71181">
        <ele>525.07592773438</ele>
        <time>2011-05-15T07:16:14Z</time>
      </trkpt>
      <trkpt lat="45.24827" lon="5.71192">
        <ele>522.22467041016</ele>
        <time>2011-05-15T07:16:21Z</time>
      </trkpt>
      <trkpt lat="45.24833" lon="5.71205">
        <ele>520.78381347656</ele>
        <time>2011-05-15T07:16:27Z</time>
      </trkpt>
      <trkpt lat="45.24837" lon="5.71218">
        <ele>520.18017578125</ele>
        <time>2011-05-15T07:16:34Z</time>
      </trkpt>
      <trkpt lat="45.2484" lon="5.71229">
        <ele>520.13262939453</ele>
        <time>2011-05-15T07:16:38Z</time>
      </trkpt>
      <trkpt lat="45.24833" lon="5.71245">
        <ele>523.66033935547</ele>
        <time>2011-05-15T07:16:45Z</time>
      </trkpt>
      <trkpt lat="45.24826" lon="5.71254">
        <ele>526.0947265625</ele>
        <time>2011-05-15T07:16:49Z</time>
      </trkpt>
      <trkpt lat="45.24815" lon="5.71268">
        <ele>526.82403564453</ele>
        <time>2011-05-15T07:16:54Z</time>
      </trkpt>
      <trkpt lat="45.24811" lon="5.71273">
        <ele>526.64190673828</ele>
        <time>2011-05-15T07:16:57Z</time>
      </trkpt>
      <trkpt lat="45.24806" lon="5.71289">
        <ele>526.08551025391</ele>
        <time>2011-05-15T07:17:03Z</time>
      </trkpt>
      <trkpt lat="45.24796" lon="5.7132">
        <ele>523.3388671875</ele>
        <time>2011-05-15T07:17:10Z</time>
      </trkpt>
      <trkpt lat="45.2479" lon="5.71336">
        <ele>521.52514648438</ele>
        <time>2011-05-15T07:17:14Z</time>
      </trkpt>
      <trkpt lat="45.24781" lon="5.71352">
        <ele>522.12091064453</ele>
        <time>2011-05-15T07:17:19Z</time>
      </trkpt>
      <trkpt lat="45.24768" lon="5.7137">
        <ele>522.89367675781</ele>
        <time>2011-05-15T07:17:24Z</time>
      </trkpt>
      <trkpt lat="45.24751" lon="5.71388">
        <ele>524.97827148438</ele>
        <time>2011-05-15T07:17:30Z</time>
      </trkpt>
      <trkpt lat="45.24746" lon="5.71395">
        <ele>525.75561523438</ele>
        <time>2011-05-15T07:17:32Z</time>
      </trkpt>
      <trkpt lat="45.24744" lon="5.71413">
        <ele>523.05108642578</ele>
        <time>2011-05-15T07:17:37Z</time>
      </trkpt>
      <trkpt lat="45.24737" lon="5.71434">
        <ele>521.71783447266</ele>
        <time>2011-05-15T07:17:42Z</time>
      </trkpt>
      <trkpt lat="45.24726" lon="5.71448">
        <ele>523.10906982422</ele>
        <time>2011-05-15T07:17:46Z</time>
      </trkpt>
      <trkpt lat="45.24722" lon="5.71457">
        <ele>523.23455810547</ele>
        <time>2011-05-15T07:17:48Z</time>
      </trkpt>
      <trkpt lat="45.24713" lon="5.71473">
        <ele>523.99157714844</ele>
        <time>2011-05-15T07:17:52Z</time>
      </trkpt>
      <trkpt lat="45.24704" lon="5.71494">
        <ele>522.90026855469</ele>
        <time>2011-05-15T07:17:57Z</time>
      </trkpt>
      <trkpt lat="45.24697" lon="5.71516">
        <ele>520.57531738281</ele>
        <time>2011-05-15T07:18:02Z</time>
      </trkpt>
      <trkpt lat="45.24685" lon="5.71536">
        <ele>520.42425537109</ele>
        <time>2011-05-15T07:18:08Z</time>
      </trkpt>
      <trkpt lat="45.24677" lon="5.71557">
        <ele>519.22607421875</ele>
        <time>2011-05-15T07:18:13Z</time>
      </trkpt>
      <trkpt lat="45.24662" lon="5.71577">
        <ele>520.15661621094</ele>
        <time>2011-05-15T07:18:19Z</time>
      </trkpt>
      <trkpt lat="45.24648" lon="5.716">
        <ele>522.04418945312</ele>
        <time>2011-05-15T07:18:24Z</time>
      </trkpt>
      <trkpt lat="45.24636" lon="5.71626">
        <ele>521.98284912109</ele>
        <time>2011-05-15T07:18:30Z</time>
      </trkpt>
      <trkpt lat="45.24629" lon="5.71646">
        <ele>520.953125</ele>
        <time>2011-05-15T07:18:35Z</time>
      </trkpt>
      <trkpt lat="45.24623" lon="5.71663">
        <ele>519.85137939453</ele>
        <time>2011-05-15T07:18:39Z</time>
      </trkpt>
      <trkpt lat="45.24617" lon="5.71689">
        <ele>520.47387695312</ele>
        <time>2011-05-15T07:18:45Z</time>
      </trkpt>
      <trkpt lat="45.24609" lon="5.7171">
        <ele>522.31207275391</ele>
        <time>2011-05-15T07:18:50Z</time>
      </trkpt>
      <trkpt lat="45.24609" lon="5.71729">
        <ele>520.63061523438</ele>
        <time>2011-05-15T07:18:54Z</time>
      </trkpt>
      <trkpt lat="45.24609" lon="5.71746">
        <ele>519.95758056641</ele>
        <time>2011-05-15T07:18:58Z</time>
      </trkpt>
      <trkpt lat="45.24605" lon="5.71772">
        <ele>522.21063232422</ele>
        <time>2011-05-15T07:19:05Z</time>
      </trkpt>
      <trkpt lat="45.24604" lon="5.7178">
        <ele>522.39044189453</ele>
        <time>2011-05-15T07:19:07Z</time>
      </trkpt>
      <trkpt lat="45.24594" lon="5.71814">
        <ele>522.54553222656</ele>
        <time>2011-05-15T07:19:15Z</time>
      </trkpt>
      <trkpt lat="45.24589" lon="5.71836">
        <ele>523.57934570312</ele>
        <time>2011-05-15T07:19:20Z</time>
      </trkpt>
      <trkpt lat="45.24581" lon="5.71847">
        <ele>524.65454101562</ele>
        <time>2011-05-15T07:19:25Z</time>
      </trkpt>
      <trkpt lat="45.24574" lon="5.71857">
        <ele>525.15832519531</ele>
        <time>2011-05-15T07:19:30Z</time>
      </trkpt>
      <trkpt lat="45.24566" lon="5.71871">
        <ele>525.51196289062</ele>
        <time>2011-05-15T07:19:36Z</time>
      </trkpt>
      <trkpt lat="45.24555" lon="5.71885">
        <ele>527.4140625</ele>
        <time>2011-05-15T07:19:41Z</time>
      </trkpt>
      <trkpt lat="45.24539" lon="5.719">
        <ele>528.16613769531</ele>
        <time>2011-05-15T07:19:47Z</time>
      </trkpt>
      <trkpt lat="45.24527" lon="5.71917">
        <ele>528.28338623047</ele>
        <time>2011-05-15T07:19:53Z</time>
      </trkpt>
      <trkpt lat="45.24518" lon="5.71938">
        <ele>527.68572998047</ele>
        <time>2011-05-15T07:19:58Z</time>
      </trkpt>
      <trkpt lat="45.24508" lon="5.71953">
        <ele>527.12066650391</ele>
        <time>2011-05-15T07:20:02Z</time>
      </trkpt>
      <trkpt lat="45.24498" lon="5.71965">
        <ele>526.90301513672</ele>
        <time>2011-05-15T07:20:06Z</time>
      </trkpt>
      <trkpt lat="45.24483" lon="5.7198">
        <ele>526.45324707031</ele>
        <time>2011-05-15T07:20:12Z</time>
      </trkpt>
      <trkpt lat="45.24468" lon="5.71984">
        <ele>528.34497070312</ele>
        <time>2011-05-15T07:20:17Z</time>
      </trkpt>
      <trkpt lat="45.24452" lon="5.7199">
        <ele>529.79724121094</ele>
        <time>2011-05-15T07:20:23Z</time>
      </trkpt>
      <trkpt lat="45.24445" lon="5.71994">
        <ele>530.23669433594</ele>
        <time>2011-05-15T07:20:26Z</time>
      </trkpt>
      <trkpt lat="45.24431" lon="5.72003">
        <ele>531.09075927734</ele>
        <time>2011-05-15T07:20:32Z</time>
      </trkpt>
      <trkpt lat="45.24418" lon="5.72011">
        <ele>532.20037841797</ele>
        <time>2011-05-15T07:20:37Z</time>
      </trkpt>
      <trkpt lat="45.24415" lon="5.72015">
        <ele>532.134765625</ele>
        <time>2011-05-15T07:20:39Z</time>
      </trkpt>
      <trkpt lat="45.24399" lon="5.72028">
        <ele>533.75201416016</ele>
        <time>2011-05-15T07:20:45Z</time>
      </trkpt>
      <trkpt lat="45.24389" lon="5.72037">
        <ele>534.34399414062</ele>
        <time>2011-05-15T07:20:50Z</time>
      </trkpt>
      <trkpt lat="45.24379" lon="5.72046">
        <ele>534.86657714844</ele>
        <time>2011-05-15T07:20:55Z</time>
      </trkpt>
      <trkpt lat="45.24377" lon="5.72048">
        <ele>535.00677490234</ele>
        <time>2011-05-15T07:20:56Z</time>
      </trkpt>
      <trkpt lat="45.24361" lon="5.72061">
        <ele>537.10498046875</ele>
        <time>2011-05-15T07:21:03Z</time>
      </trkpt>
      <trkpt lat="45.24351" lon="5.72071">
        <ele>537.86938476562</ele>
        <time>2011-05-15T07:21:08Z</time>
      </trkpt>
      <trkpt lat="45.24344" lon="5.72086">
        <ele>537.89990234375</ele>
        <time>2011-05-15T07:21:14Z</time>
      </trkpt>
      <trkpt lat="45.24333" lon="5.72105">
        <ele>540.23815917969</ele>
        <time>2011-05-15T07:21:20Z</time>
      </trkpt>
      <trkpt lat="45.24324" lon="5.72126">
        <ele>541.37591552734</ele>
        <time>2011-05-15T07:21:25Z</time>
      </trkpt>
      <trkpt lat="45.24313" lon="5.72125">
        <ele>543.80151367188</ele>
        <time>2011-05-15T07:21:29Z</time>
      </trkpt>
      <trkpt lat="45.24305" lon="5.72118">
        <ele>545.81286621094</ele>
        <time>2011-05-15T07:21:35Z</time>
      </trkpt>
      <trkpt lat="45.243" lon="5.7211">
        <ele>547.79968261719</ele>
        <time>2011-05-15T07:21:39Z</time>
      </trkpt>
      <trkpt lat="45.24294" lon="5.72093">
        <ele>551.20715332031</ele>
        <time>2011-05-15T07:21:46Z</time>
      </trkpt>
      <trkpt lat="45.24294" lon="5.7209">
        <ele>551.71527099609</ele>
        <time>2011-05-15T07:21:47Z</time>
      </trkpt>
      <trkpt lat="45.2429" lon="5.72086">
        <ele>553.16235351562</ele>
        <time>2011-05-15T07:21:51Z</time>
      </trkpt>
      <trkpt lat="45.24276" lon="5.72087">
        <ele>557.12280273438</ele>
        <time>2011-05-15T07:21:58Z</time>
      </trkpt>
      <trkpt lat="45.24268" lon="5.72084">
        <ele>559.90167236328</ele>
        <time>2011-05-15T07:22:04Z</time>
      </trkpt>
      <trkpt lat="45.24262" lon="5.72085">
        <ele>561.35015869141</ele>
        <time>2011-05-15T07:22:10Z</time>
      </trkpt>
      <trkpt lat="45.24258" lon="5.72085">
        <ele>562.44793701172</ele>
        <time>2011-05-15T07:22:13Z</time>
      </trkpt>
      <trkpt lat="45.24256" lon="5.72084">
        <ele>563.18408203125</ele>
        <time>2011-05-15T07:22:15Z</time>
      </trkpt>
      <trkpt lat="45.24249" lon="5.72084">
        <ele>565.21545410156</ele>
        <time>2011-05-15T07:22:22Z</time>
      </trkpt>
      <trkpt lat="45.24242" lon="5.72089">
        <ele>566.36322021484</ele>
        <time>2011-05-15T07:22:27Z</time>
      </trkpt>
      <trkpt lat="45.24231" lon="5.72096">
        <ele>567.89721679688</ele>
        <time>2011-05-15T07:22:34Z</time>
      </trkpt>
      <trkpt lat="45.24226" lon="5.721">
        <ele>568.33728027344</ele>
        <time>2011-05-15T07:22:37Z</time>
      </trkpt>
      <trkpt lat="45.24223" lon="5.72102">
        <ele>568.65979003906</ele>
        <time>2011-05-15T07:22:40Z</time>
      </trkpt>
      <trkpt lat="45.24217" lon="5.72108">
        <ele>568.95751953125</ele>
        <time>2011-05-15T07:22:45Z</time>
      </trkpt>
      <trkpt lat="45.24209" lon="5.72114">
        <ele>570.42883300781</ele>
        <time>2011-05-15T07:22:50Z</time>
      </trkpt>
      <trkpt lat="45.24202" lon="5.72128">
        <ele>570.05529785156</ele>
        <time>2011-05-15T07:22:56Z</time>
      </trkpt>
      <trkpt lat="45.2419" lon="5.72139">
        <ele>570.51977539062</ele>
        <time>2011-05-15T07:23:03Z</time>
      </trkpt>
      <trkpt lat="45.2418" lon="5.72143">
        <ele>573.05065917969</ele>
        <time>2011-05-15T07:23:08Z</time>
      </trkpt>
      <trkpt lat="45.24164" lon="5.72151">
        <ele>576.27166748047</ele>
        <time>2011-05-15T07:23:16Z</time>
      </trkpt>
      <trkpt lat="45.2415" lon="5.72155">
        <ele>578.37145996094</ele>
        <time>2011-05-15T07:23:23Z</time>
      </trkpt>
      <trkpt lat="45.24137" lon="5.7216">
        <ele>579.60583496094</ele>
        <time>2011-05-15T07:23:30Z</time>
      </trkpt>
      <trkpt lat="45.24125" lon="5.72162">
        <ele>581.35302734375</ele>
        <time>2011-05-15T07:23:37Z</time>
      </trkpt>
      <trkpt lat="45.24115" lon="5.72161">
        <ele>583.41955566406</ele>
        <time>2011-05-15T07:23:43Z</time>
      </trkpt>
      <trkpt lat="45.24108" lon="5.72162">
        <ele>584.609375</ele>
        <time>2011-05-15T07:23:47Z</time>
      </trkpt>
      <trkpt lat="45.24104" lon="5.72162">
        <ele>585.78240966797</ele>
        <time>2011-05-15T07:23:49Z</time>
      </trkpt>
      <trkpt lat="45.24096" lon="5.72165">
        <ele>587.34216308594</ele>
        <time>2011-05-15T07:23:53Z</time>
      </trkpt>
      <trkpt lat="45.24084" lon="5.72174">
        <ele>588.94915771484</ele>
        <time>2011-05-15T07:24:00Z</time>
      </trkpt>
      <trkpt lat="45.24067" lon="5.72184">
        <ele>590.44201660156</ele>
        <time>2011-05-15T07:24:08Z</time>
      </trkpt>
      <trkpt lat="45.24055" lon="5.72189">
        <ele>591.56005859375</ele>
        <time>2011-05-15T07:24:14Z</time>
      </trkpt>
      <trkpt lat="45.24047" lon="5.72192">
        <ele>592.77960205078</ele>
        <time>2011-05-15T07:24:19Z</time>
      </trkpt>
      <trkpt lat="45.24036" lon="5.72194">
        <ele>594.56750488281</ele>
        <time>2011-05-15T07:24:25Z</time>
      </trkpt>
      <trkpt lat="45.24023" lon="5.72199">
        <ele>596.24536132812</ele>
        <time>2011-05-15T07:24:31Z</time>
      </trkpt>
      <trkpt lat="45.2401" lon="5.72206">
        <ele>597.85162353516</ele>
        <time>2011-05-15T07:24:37Z</time>
      </trkpt>
      <trkpt lat="45.23998" lon="5.72206">
        <ele>599.84790039062</ele>
        <time>2011-05-15T07:24:42Z</time>
      </trkpt>
      <trkpt lat="45.23985" lon="5.72211">
        <ele>600.14111328125</ele>
        <time>2011-05-15T07:24:48Z</time>
      </trkpt>
      <trkpt lat="45.23969" lon="5.72219">
        <ele>600.10461425781</ele>
        <time>2011-05-15T07:24:54Z</time>
      </trkpt>
      <trkpt lat="45.23958" lon="5.72225">
        <ele>601.18322753906</ele>
        <time>2011-05-15T07:24:59Z</time>
      </trkpt>
      <trkpt lat="45.23941" lon="5.72233">
        <ele>601.84832763672</ele>
        <time>2011-05-15T07:25:06Z</time>
      </trkpt>
      <trkpt lat="45.23936" lon="5.72233">
        <ele>602.35681152344</ele>
        <time>2011-05-15T07:25:08Z</time>
      </trkpt>
      <trkpt lat="45.2392" lon="5.72238">
        <ele>603.00427246094</ele>
        <time>2011-05-15T07:25:15Z</time>
      </trkpt>
      <trkpt lat="45.23905" lon="5.72237">
        <ele>604.37573242188</ele>
        <time>2011-05-15T07:25:21Z</time>
      </trkpt>
      <trkpt lat="45.2389" lon="5.7224">
        <ele>605.34417724609</ele>
        <time>2011-05-15T07:25:26Z</time>
      </trkpt>
      <trkpt lat="45.23876" lon="5.72243">
        <ele>605.80999755859</ele>
        <time>2011-05-15T07:25:31Z</time>
      </trkpt>
      <trkpt lat="45.2386" lon="5.7225">
        <ele>606.10076904297</ele>
        <time>2011-05-15T07:25:37Z</time>
      </trkpt>
      <trkpt lat="45.23843" lon="5.72255">
        <ele>606.99597167969</ele>
        <time>2011-05-15T07:25:43Z</time>
      </trkpt>
      <trkpt lat="45.23826" lon="5.7225">
        <ele>608.80767822266</ele>
        <time>2011-05-15T07:25:49Z</time>
      </trkpt>
      <trkpt lat="45.23815" lon="5.72251">
        <ele>609.89929199219</ele>
        <time>2011-05-15T07:25:54Z</time>
      </trkpt>
      <trkpt lat="45.238" lon="5.72256">
        <ele>611.24859619141</ele>
        <time>2011-05-15T07:26:00Z</time>
      </trkpt>
      <trkpt lat="45.23782" lon="5.72262">
        <ele>612.39703369141</ele>
        <time>2011-05-15T07:26:07Z</time>
      </trkpt>
      <trkpt lat="45.23772" lon="5.72265">
        <ele>613.28558349609</ele>
        <time>2011-05-15T07:26:11Z</time>
      </trkpt>
      <trkpt lat="45.23753" lon="5.72274">
        <ele>616.39862060547</ele>
        <time>2011-05-15T07:26:19Z</time>
      </trkpt>
      <trkpt lat="45.23739" lon="5.72285">
        <ele>618.26361083984</ele>
        <time>2011-05-15T07:26:25Z</time>
      </trkpt>
      <trkpt lat="45.23725" lon="5.72294">
        <ele>619.01776123047</ele>
        <time>2011-05-15T07:26:31Z</time>
      </trkpt>
      <trkpt lat="45.23713" lon="5.72301">
        <ele>620.53460693359</ele>
        <time>2011-05-15T07:26:35Z</time>
      </trkpt>
      <trkpt lat="45.23698" lon="5.72298">
        <ele>623.35473632812</ele>
        <time>2011-05-15T07:26:40Z</time>
      </trkpt>
      <trkpt lat="45.23686" lon="5.72296">
        <ele>624.81262207031</ele>
        <time>2011-05-15T07:26:45Z</time>
      </trkpt>
      <trkpt lat="45.23674" lon="5.72293">
        <ele>626.40521240234</ele>
        <time>2011-05-15T07:26:51Z</time>
      </trkpt>
      <trkpt lat="45.23658" lon="5.72295">
        <ele>628.35888671875</ele>
        <time>2011-05-15T07:26:57Z</time>
      </trkpt>
      <trkpt lat="45.2364" lon="5.72302">
        <ele>630.50848388672</ele>
        <time>2011-05-15T07:27:05Z</time>
      </trkpt>
      <trkpt lat="45.23622" lon="5.72308">
        <ele>630.49322509766</ele>
        <time>2011-05-15T07:27:11Z</time>
      </trkpt>
      <trkpt lat="45.23605" lon="5.72317">
        <ele>631.59027099609</ele>
        <time>2011-05-15T07:27:18Z</time>
      </trkpt>
      <trkpt lat="45.23589" lon="5.72328">
        <ele>633.55700683594</ele>
        <time>2011-05-15T07:27:24Z</time>
      </trkpt>
      <trkpt lat="45.23578" lon="5.7234">
        <ele>634.30169677734</ele>
        <time>2011-05-15T07:27:30Z</time>
      </trkpt>
      <trkpt lat="45.23566" lon="5.72348">
        <ele>634.41845703125</ele>
        <time>2011-05-15T07:27:36Z</time>
      </trkpt>
      <trkpt lat="45.23543" lon="5.72356">
        <ele>634.96203613281</ele>
        <time>2011-05-15T07:27:43Z</time>
      </trkpt>
      <trkpt lat="45.23527" lon="5.72363">
        <ele>635.89459228516</ele>
        <time>2011-05-15T07:27:49Z</time>
      </trkpt>
      <trkpt lat="45.23504" lon="5.72374">
        <ele>634.19116210938</ele>
        <time>2011-05-15T07:27:56Z</time>
      </trkpt>
      <trkpt lat="45.23489" lon="5.72383">
        <ele>634.31915283203</ele>
        <time>2011-05-15T07:28:00Z</time>
      </trkpt>
      <trkpt lat="45.2347" lon="5.72394">
        <ele>634.47796630859</ele>
        <time>2011-05-15T07:28:06Z</time>
      </trkpt>
      <trkpt lat="45.23452" lon="5.72407">
        <ele>632.06341552734</ele>
        <time>2011-05-15T07:28:11Z</time>
      </trkpt>
      <trkpt lat="45.23436" lon="5.72429">
        <ele>629.83715820312</ele>
        <time>2011-05-15T07:28:17Z</time>
      </trkpt>
      <trkpt lat="45.23423" lon="5.72451">
        <ele>627.74255371094</ele>
        <time>2011-05-15T07:28:22Z</time>
      </trkpt>
      <trkpt lat="45.23421" lon="5.72454">
        <ele>627.53826904297</ele>
        <time>2011-05-15T07:28:23Z</time>
      </trkpt>
      <trkpt lat="45.23402" lon="5.72457">
        <ele>625.68878173828</ele>
        <time>2011-05-15T07:28:28Z</time>
      </trkpt>
      <trkpt lat="45.23388" lon="5.72444">
        <ele>623.95690917969</ele>
        <time>2011-05-15T07:28:33Z</time>
      </trkpt>
      <trkpt lat="45.23376" lon="5.7244">
        <ele>622.97955322266</ele>
        <time>2011-05-15T07:28:37Z</time>
      </trkpt>
      <trkpt lat="45.23359" lon="5.72438">
        <ele>621.39465332031</ele>
        <time>2011-05-15T07:28:43Z</time>
      </trkpt>
      <trkpt lat="45.23343" lon="5.72434">
        <ele>618.65704345703</ele>
        <time>2011-05-15T07:28:48Z</time>
      </trkpt>
      <trkpt lat="45.23328" lon="5.72425">
        <ele>616.48620605469</ele>
        <time>2011-05-15T07:28:53Z</time>
      </trkpt>
      <trkpt lat="45.23322" lon="5.72421">
        <ele>615.798828125</ele>
        <time>2011-05-15T07:28:55Z</time>
      </trkpt>
      <trkpt lat="45.23298" lon="5.72409">
        <ele>613.50335693359</ele>
        <time>2011-05-15T07:29:02Z</time>
      </trkpt>
      <trkpt lat="45.23282" lon="5.72403">
        <ele>612.35247802734</ele>
        <time>2011-05-15T07:29:07Z</time>
      </trkpt>
      <trkpt lat="45.23264" lon="5.72402">
        <ele>610.30767822266</ele>
        <time>2011-05-15T07:29:11Z</time>
      </trkpt>
      <trkpt lat="45.2326" lon="5.72401">
        <ele>609.93463134766</ele>
        <time>2011-05-15T07:29:12Z</time>
      </trkpt>
      <trkpt lat="45.23248" lon="5.72395">
        <ele>608.61267089844</ele>
        <time>2011-05-15T07:29:16Z</time>
      </trkpt>
      <trkpt lat="45.23225" lon="5.72394">
        <ele>607.03161621094</ele>
        <time>2011-05-15T07:29:22Z</time>
      </trkpt>
      <trkpt lat="45.2321" lon="5.72395">
        <ele>605.900390625</ele>
        <time>2011-05-15T07:29:25Z</time>
      </trkpt>
      <trkpt lat="45.23198" lon="5.72396">
        <ele>604.95281982422</ele>
        <time>2011-05-15T07:29:28Z</time>
      </trkpt>
      <trkpt lat="45.23189" lon="5.72395">
        <ele>604.37872314453</ele>
        <time>2011-05-15T07:29:30Z</time>
      </trkpt>
      <trkpt lat="45.23178" lon="5.72389">
        <ele>603.83361816406</ele>
        <time>2011-05-15T07:29:33Z</time>
      </trkpt>
      <trkpt lat="45.23171" lon="5.72386">
        <ele>603.43707275391</ele>
        <time>2011-05-15T07:29:35Z</time>
      </trkpt>
      <trkpt lat="45.23153" lon="5.72371">
        <ele>602.46008300781</ele>
        <time>2011-05-15T07:29:41Z</time>
      </trkpt>
      <trkpt lat="45.23141" lon="5.72355">
        <ele>602.37963867188</ele>
        <time>2011-05-15T07:29:46Z</time>
      </trkpt>
      <trkpt lat="45.23134" lon="5.72341">
        <ele>602.32275390625</ele>
        <time>2011-05-15T07:29:50Z</time>
      </trkpt>
      <trkpt lat="45.23117" lon="5.72324">
        <ele>602.32745361328</ele>
        <time>2011-05-15T07:29:56Z</time>
      </trkpt>
      <trkpt lat="45.23101" lon="5.72313">
        <ele>602.02386474609</ele>
        <time>2011-05-15T07:30:01Z</time>
      </trkpt>
      <trkpt lat="45.23088" lon="5.72294">
        <ele>602.58850097656</ele>
        <time>2011-05-15T07:30:07Z</time>
      </trkpt>
      <trkpt lat="45.2307" lon="5.72285">
        <ele>601.71588134766</ele>
        <time>2011-05-15T07:30:12Z</time>
      </trkpt>
      <trkpt lat="45.23052" lon="5.72262">
        <ele>601.57147216797</ele>
        <time>2011-05-15T07:30:19Z</time>
      </trkpt>
      <trkpt lat="45.23038" lon="5.72242">
        <ele>601.68353271484</ele>
        <time>2011-05-15T07:30:25Z</time>
      </trkpt>
      <trkpt lat="45.23018" lon="5.72227">
        <ele>600.80462646484</ele>
        <time>2011-05-15T07:30:31Z</time>
      </trkpt>
      <trkpt lat="45.23005" lon="5.72212">
        <ele>601.23034667969</ele>
        <time>2011-05-15T07:30:36Z</time>
      </trkpt>
      <trkpt lat="45.22988" lon="5.72194">
        <ele>602.22644042969</ele>
        <time>2011-05-15T07:30:42Z</time>
      </trkpt>
      <trkpt lat="45.22971" lon="5.72178">
        <ele>602.69226074219</ele>
        <time>2011-05-15T07:30:48Z</time>
      </trkpt>
      <trkpt lat="45.22957" lon="5.72166">
        <ele>602.37921142578</ele>
        <time>2011-05-15T07:30:53Z</time>
      </trkpt>
      <trkpt lat="45.22943" lon="5.72155">
        <ele>601.98864746094</ele>
        <time>2011-05-15T07:30:58Z</time>
      </trkpt>
      <trkpt lat="45.22926" lon="5.72145">
        <ele>600.61517333984</ele>
        <time>2011-05-15T07:31:04Z</time>
      </trkpt>
      <trkpt lat="45.22911" lon="5.7214">
        <ele>599.23291015625</ele>
        <time>2011-05-15T07:31:09Z</time>
      </trkpt>
      <trkpt lat="45.2289" lon="5.72134">
        <ele>598.26831054688</ele>
        <time>2011-05-15T07:31:16Z</time>
      </trkpt>
      <trkpt lat="45.22867" lon="5.72129">
        <ele>598.22882080078</ele>
        <time>2011-05-15T07:31:22Z</time>
      </trkpt>
      <trkpt lat="45.22853" lon="5.72129">
        <ele>597.64831542969</ele>
        <time>2011-05-15T07:31:25Z</time>
      </trkpt>
      <trkpt lat="45.22823" lon="5.72119">
        <ele>595.85491943359</ele>
        <time>2011-05-15T07:31:33Z</time>
      </trkpt>
      <trkpt lat="45.22814" lon="5.72117">
        <ele>594.79748535156</ele>
        <time>2011-05-15T07:31:35Z</time>
      </trkpt>
      <trkpt lat="45.228" lon="5.7211">
        <ele>593.79455566406</ele>
        <time>2011-05-15T07:31:39Z</time>
      </trkpt>
      <trkpt lat="45.22778" lon="5.72097">
        <ele>592.95617675781</ele>
        <time>2011-05-15T07:31:46Z</time>
      </trkpt>
      <trkpt lat="45.22762" lon="5.72093">
        <ele>591.39788818359</ele>
        <time>2011-05-15T07:31:50Z</time>
      </trkpt>
      <trkpt lat="45.22742" lon="5.72091">
        <ele>589.06774902344</ele>
        <time>2011-05-15T07:31:55Z</time>
      </trkpt>
      <trkpt lat="45.22733" lon="5.72092">
        <ele>587.83728027344</ele>
        <time>2011-05-15T07:31:57Z</time>
      </trkpt>
      <trkpt lat="45.22715" lon="5.7209">
        <ele>585.44757080078</ele>
        <time>2011-05-15T07:32:01Z</time>
      </trkpt>
      <trkpt lat="45.22696" lon="5.72091">
        <ele>582.48272705078</ele>
        <time>2011-05-15T07:32:06Z</time>
      </trkpt>
      <trkpt lat="45.22693" lon="5.72106">
        <ele>580.43780517578</ele>
        <time>2011-05-15T07:32:09Z</time>
      </trkpt>
      <trkpt lat="45.22694" lon="5.72112">
        <ele>579.93206787109</ele>
        <time>2011-05-15T07:32:10Z</time>
      </trkpt>
      <trkpt lat="45.22699" lon="5.72152">
        <ele>577.80999755859</ele>
        <time>2011-05-15T07:32:17Z</time>
      </trkpt>
      <trkpt lat="45.227" lon="5.72158">
        <ele>577.27185058594</ele>
        <time>2011-05-15T07:32:18Z</time>
      </trkpt>
      <trkpt lat="45.22701" lon="5.72169">
        <ele>576.36633300781</ele>
        <time>2011-05-15T07:32:20Z</time>
      </trkpt>
      <trkpt lat="45.22704" lon="5.72198">
        <ele>575.03009033203</ele>
        <time>2011-05-15T07:32:25Z</time>
      </trkpt>
      <trkpt lat="45.22709" lon="5.72231">
        <ele>573.04284667969</ele>
        <time>2011-05-15T07:32:31Z</time>
      </trkpt>
      <trkpt lat="45.22714" lon="5.72263">
        <ele>572.39733886719</ele>
        <time>2011-05-15T07:32:37Z</time>
      </trkpt>
      <trkpt lat="45.22724" lon="5.7229">
        <ele>573.54119873047</ele>
        <time>2011-05-15T07:32:43Z</time>
      </trkpt>
      <trkpt lat="45.22736" lon="5.72315">
        <ele>574.84637451172</ele>
        <time>2011-05-15T07:32:49Z</time>
      </trkpt>
      <trkpt lat="45.22747" lon="5.7233">
        <ele>576.47802734375</ele>
        <time>2011-05-15T07:32:54Z</time>
      </trkpt>
      <trkpt lat="45.22757" lon="5.72344">
        <ele>577.62731933594</ele>
        <time>2011-05-15T07:33:00Z</time>
      </trkpt>
      <trkpt lat="45.22768" lon="5.72356">
        <ele>578.85382080078</ele>
        <time>2011-05-15T07:33:05Z</time>
      </trkpt>
      <trkpt lat="45.22784" lon="5.72365">
        <ele>580.59149169922</ele>
        <time>2011-05-15T07:33:10Z</time>
      </trkpt>
      <trkpt lat="45.22796" lon="5.72376">
        <ele>581.50506591797</ele>
        <time>2011-05-15T07:33:15Z</time>
      </trkpt>
      <trkpt lat="45.22808" lon="5.72391">
        <ele>582.09881591797</ele>
        <time>2011-05-15T07:33:20Z</time>
      </trkpt>
      <trkpt lat="45.22813" lon="5.72408">
        <ele>582.47674560547</ele>
        <time>2011-05-15T07:33:24Z</time>
      </trkpt>
      <trkpt lat="45.22814" lon="5.72412">
        <ele>582.56781005859</ele>
        <time>2011-05-15T07:33:25Z</time>
      </trkpt>
      <trkpt lat="45.22816" lon="5.72429">
        <ele>583.18292236328</ele>
        <time>2011-05-15T07:33:30Z</time>
      </trkpt>
      <trkpt lat="45.22818" lon="5.72451">
        <ele>584.15106201172</ele>
        <time>2011-05-15T07:33:36Z</time>
      </trkpt>
      <trkpt lat="45.22819" lon="5.72475">
        <ele>585.06774902344</ele>
        <time>2011-05-15T07:33:42Z</time>
      </trkpt>
      <trkpt lat="45.2281" lon="5.72494">
        <ele>585.09008789062</ele>
        <time>2011-05-15T07:33:47Z</time>
      </trkpt>
      <trkpt lat="45.22803" lon="5.72512">
        <ele>584.84130859375</ele>
        <time>2011-05-15T07:33:52Z</time>
      </trkpt>
      <trkpt lat="45.228" lon="5.72539">
        <ele>585.38842773438</ele>
        <time>2011-05-15T07:33:58Z</time>
      </trkpt>
      <trkpt lat="45.22802" lon="5.72557">
        <ele>586.54571533203</ele>
        <time>2011-05-15T07:34:03Z</time>
      </trkpt>
      <trkpt lat="45.22803" lon="5.72567">
        <ele>586.63726806641</ele>
        <time>2011-05-15T07:34:06Z</time>
      </trkpt>
      <trkpt lat="45.22804" lon="5.72586">
        <ele>587.15606689453</ele>
        <time>2011-05-15T07:34:12Z</time>
      </trkpt>
      <trkpt lat="45.22802" lon="5.72605">
        <ele>589.07220458984</ele>
        <time>2011-05-15T07:34:18Z</time>
      </trkpt>
      <trkpt lat="45.22801" lon="5.72615">
        <ele>590.09033203125</ele>
        <time>2011-05-15T07:34:21Z</time>
      </trkpt>
      <trkpt lat="45.22791" lon="5.72634">
        <ele>591.01525878906</ele>
        <time>2011-05-15T07:34:29Z</time>
      </trkpt>
      <trkpt lat="45.22778" lon="5.72645">
        <ele>590.94067382812</ele>
        <time>2011-05-15T07:34:35Z</time>
      </trkpt>
      <trkpt lat="45.22762" lon="5.72658">
        <ele>591.49700927734</ele>
        <time>2011-05-15T07:34:42Z</time>
      </trkpt>
      <trkpt lat="45.22761" lon="5.72661">
        <ele>591.78234863281</ele>
        <time>2011-05-15T07:34:43Z</time>
      </trkpt>
      <trkpt lat="45.22765" lon="5.72663">
        <ele>592.59790039062</ele>
        <time>2011-05-15T07:34:47Z</time>
      </trkpt>
      <trkpt lat="45.22767" lon="5.72662">
        <ele>592.51000976562</ele>
        <time>2011-05-15T07:34:48Z</time>
      </trkpt>
      <trkpt lat="45.22784" lon="5.72659">
        <ele>593.40618896484</ele>
        <time>2011-05-15T07:34:55Z</time>
      </trkpt>
      <trkpt lat="45.22785" lon="5.72661">
        <ele>593.78076171875</ele>
        <time>2011-05-15T07:34:56Z</time>
      </trkpt>
      <trkpt lat="45.22785" lon="5.72675">
        <ele>596.32659912109</ele>
        <time>2011-05-15T07:35:01Z</time>
      </trkpt>
      <trkpt lat="45.22769" lon="5.72684">
        <ele>596.86242675781</ele>
        <time>2011-05-15T07:35:08Z</time>
      </trkpt>
      <trkpt lat="45.22766" lon="5.72685">
        <ele>596.81298828125</ele>
        <time>2011-05-15T07:35:09Z</time>
      </trkpt>
      <trkpt lat="45.22752" lon="5.72696">
        <ele>597.53735351562</ele>
        <time>2011-05-15T07:35:16Z</time>
      </trkpt>
      <trkpt lat="45.22746" lon="5.72706">
        <ele>599.46990966797</ele>
        <time>2011-05-15T07:35:21Z</time>
      </trkpt>
      <trkpt lat="45.22738" lon="5.72721">
        <ele>602.22998046875</ele>
        <time>2011-05-15T07:35:27Z</time>
      </trkpt>
      <trkpt lat="45.22723" lon="5.72736">
        <ele>607.35577392578</ele>
        <time>2011-05-15T07:35:33Z</time>
      </trkpt>
      <trkpt lat="45.22709" lon="5.72746">
        <ele>612.68902587891</ele>
        <time>2011-05-15T07:35:39Z</time>
      </trkpt>
      <trkpt lat="45.22698" lon="5.7275">
        <ele>615.43505859375</ele>
        <time>2011-05-15T07:35:44Z</time>
      </trkpt>
      <trkpt lat="45.2268" lon="5.72753">
        <ele>619.16705322266</ele>
        <time>2011-05-15T07:35:51Z</time>
      </trkpt>
      <trkpt lat="45.22668" lon="5.72752">
        <ele>620.64099121094</ele>
        <time>2011-05-15T07:35:56Z</time>
      </trkpt>
      <trkpt lat="45.22659" lon="5.72746">
        <ele>620.90985107422</ele>
        <time>2011-05-15T07:36:01Z</time>
      </trkpt>
      <trkpt lat="45.22658" lon="5.7274">
        <ele>618.71203613281</ele>
        <time>2011-05-15T07:36:04Z</time>
      </trkpt>
      <trkpt lat="45.2264" lon="5.72739">
        <ele>622.62194824219</ele>
        <time>2011-05-15T07:36:10Z</time>
      </trkpt>
      <trkpt lat="45.22623" lon="5.72742">
        <ele>629.59362792969</ele>
        <time>2011-05-15T07:36:15Z</time>
      </trkpt>
      <trkpt lat="45.22614" lon="5.72742">
        <ele>632.50231933594</ele>
        <time>2011-05-15T07:36:20Z</time>
      </trkpt>
      <trkpt lat="45.22611" lon="5.7274">
        <ele>632.55688476562</ele>
        <time>2011-05-15T07:36:22Z</time>
      </trkpt>
      <trkpt lat="45.22601" lon="5.72737">
        <ele>633.82971191406</ele>
        <time>2011-05-15T07:36:28Z</time>
      </trkpt>
      <trkpt lat="45.22595" lon="5.72733">
        <ele>632.97308349609</ele>
        <time>2011-05-15T07:36:33Z</time>
      </trkpt>
      <trkpt lat="45.22588" lon="5.72731">
        <ele>632.93524169922</ele>
        <time>2011-05-15T07:36:37Z</time>
      </trkpt>
      <trkpt lat="45.22585" lon="5.72732">
        <ele>634.07464599609</ele>
        <time>2011-05-15T07:36:38Z</time>
      </trkpt>
      <trkpt lat="45.22575" lon="5.72731">
        <ele>634.77947998047</ele>
        <time>2011-05-15T07:36:44Z</time>
      </trkpt>
      <trkpt lat="45.22573" lon="5.7273">
        <ele>634.86169433594</ele>
        <time>2011-05-15T07:36:45Z</time>
      </trkpt>
      <trkpt lat="45.22559" lon="5.72728">
        <ele>635.77239990234</ele>
        <time>2011-05-15T07:36:53Z</time>
      </trkpt>
      <trkpt lat="45.22553" lon="5.72726">
        <ele>635.46173095703</ele>
        <time>2011-05-15T07:36:59Z</time>
      </trkpt>
      <trkpt lat="45.22546" lon="5.72726">
        <ele>635.22369384766</ele>
        <time>2011-05-15T07:37:03Z</time>
      </trkpt>
      <trkpt lat="45.22535" lon="5.72726">
        <ele>634.96990966797</ele>
        <time>2011-05-15T07:37:11Z</time>
      </trkpt>
      <trkpt lat="45.22526" lon="5.72728">
        <ele>636.35546875</ele>
        <time>2011-05-15T07:37:16Z</time>
      </trkpt>
      <trkpt lat="45.22519" lon="5.72733">
        <ele>639.90893554688</ele>
        <time>2011-05-15T07:37:21Z</time>
      </trkpt>
      <trkpt lat="45.22516" lon="5.72737">
        <ele>642.31109619141</ele>
        <time>2011-05-15T07:37:24Z</time>
      </trkpt>
      <trkpt lat="45.22517" lon="5.72741">
        <ele>644.56134033203</ele>
        <time>2011-05-15T07:37:27Z</time>
      </trkpt>
      <trkpt lat="45.22515" lon="5.72752">
        <ele>649.62921142578</ele>
        <time>2011-05-15T07:37:32Z</time>
      </trkpt>
      <trkpt lat="45.22512" lon="5.72762">
        <ele>653.68481445312</ele>
        <time>2011-05-15T07:37:39Z</time>
      </trkpt>
      <trkpt lat="45.22511" lon="5.72766">
        <ele>655.01385498047</ele>
        <time>2011-05-15T07:37:42Z</time>
      </trkpt>
      <trkpt lat="45.22505" lon="5.72776">
        <ele>658.60729980469</ele>
        <time>2011-05-15T07:37:48Z</time>
      </trkpt>
      <trkpt lat="45.22505" lon="5.7278">
        <ele>659.78625488281</ele>
        <time>2011-05-15T07:37:51Z</time>
      </trkpt>
      <trkpt lat="45.22506" lon="5.72782">
        <ele>660.58953857422</ele>
        <time>2011-05-15T07:37:53Z</time>
      </trkpt>
      <trkpt lat="45.22505" lon="5.72793">
        <ele>663.89544677734</ele>
        <time>2011-05-15T07:37:58Z</time>
      </trkpt>
      <trkpt lat="45.22503" lon="5.72801">
        <ele>666.26776123047</ele>
        <time>2011-05-15T07:38:03Z</time>
      </trkpt>
      <trkpt lat="45.22503" lon="5.72805">
        <ele>667.71136474609</ele>
        <time>2011-05-15T07:38:06Z</time>
      </trkpt>
      <trkpt lat="45.22503" lon="5.72815">
        <ele>670.79418945312</ele>
        <time>2011-05-15T07:38:11Z</time>
      </trkpt>
      <trkpt lat="45.22502" lon="5.7282">
        <ele>672.54974365234</ele>
        <time>2011-05-15T07:38:16Z</time>
      </trkpt>
      <trkpt lat="45.22498" lon="5.72826">
        <ele>674.95837402344</ele>
        <time>2011-05-15T07:38:20Z</time>
      </trkpt>
      <trkpt lat="45.22498" lon="5.72829">
        <ele>675.74645996094</ele>
        <time>2011-05-15T07:38:22Z</time>
      </trkpt>
      <trkpt lat="45.22498" lon="5.72835">
        <ele>677.80261230469</ele>
        <time>2011-05-15T07:38:26Z</time>
      </trkpt>
      <trkpt lat="45.225" lon="5.72842">
        <ele>679.30383300781</ele>
        <time>2011-05-15T07:38:30Z</time>
      </trkpt>
      <trkpt lat="45.22499" lon="5.72854">
        <ele>682.28723144531</ele>
        <time>2011-05-15T07:38:36Z</time>
      </trkpt>
      <trkpt lat="45.22501" lon="5.72865">
        <ele>685.11511230469</ele>
        <time>2011-05-15T07:38:42Z</time>
      </trkpt>
      <trkpt lat="45.22501" lon="5.72874">
        <ele>687.34393310547</ele>
        <time>2011-05-15T07:38:47Z</time>
      </trkpt>
      <trkpt lat="45.22504" lon="5.7288">
        <ele>688.99395751953</ele>
        <time>2011-05-15T07:38:50Z</time>
      </trkpt>
      <trkpt lat="45.22507" lon="5.72884">
        <ele>690.17724609375</ele>
        <time>2011-05-15T07:38:54Z</time>
      </trkpt>
      <trkpt lat="45.22509" lon="5.72889">
        <ele>691.45599365234</ele>
        <time>2011-05-15T07:39:00Z</time>
      </trkpt>
      <trkpt lat="45.22512" lon="5.72891">
        <ele>692.10327148438</ele>
        <time>2011-05-15T07:39:04Z</time>
      </trkpt>
      <trkpt lat="45.22515" lon="5.72893">
        <ele>692.83868408203</ele>
        <time>2011-05-15T07:39:07Z</time>
      </trkpt>
      <trkpt lat="45.22517" lon="5.72891">
        <ele>692.36968994141</ele>
        <time>2011-05-15T07:39:10Z</time>
      </trkpt>
      <trkpt lat="45.22524" lon="5.72894">
        <ele>693.36853027344</ele>
        <time>2011-05-15T07:39:14Z</time>
      </trkpt>
      <trkpt lat="45.2253" lon="5.72896">
        <ele>694.62561035156</ele>
        <time>2011-05-15T07:39:19Z</time>
      </trkpt>
      <trkpt lat="45.22539" lon="5.72892">
        <ele>694.45355224609</ele>
        <time>2011-05-15T07:39:27Z</time>
      </trkpt>
      <trkpt lat="45.22548" lon="5.72885">
        <ele>693.42626953125</ele>
        <time>2011-05-15T07:39:34Z</time>
      </trkpt>
      <trkpt lat="45.22554" lon="5.72885">
        <ele>694.25012207031</ele>
        <time>2011-05-15T07:39:40Z</time>
      </trkpt>
      <trkpt lat="45.2256" lon="5.72883">
        <ele>693.75061035156</ele>
        <time>2011-05-15T07:39:46Z</time>
      </trkpt>
      <trkpt lat="45.2256" lon="5.72883">
        <ele>693.76892089844</ele>
        <time>2011-05-15T07:39:47Z</time>
      </trkpt>
      <trkpt lat="45.22568" lon="5.72882">
        <ele>693.53625488281</ele>
        <time>2011-05-15T07:39:52Z</time>
      </trkpt>
      <trkpt lat="45.22576" lon="5.72894">
        <ele>697.42999267578</ele>
        <time>2011-05-15T07:39:58Z</time>
      </trkpt>
      <trkpt lat="45.22583" lon="5.72898">
        <ele>698.95275878906</ele>
        <time>2011-05-15T07:40:04Z</time>
      </trkpt>
      <trkpt lat="45.22591" lon="5.72905">
        <ele>699.11901855469</ele>
        <time>2011-05-15T07:40:10Z</time>
      </trkpt>
      <trkpt lat="45.22592" lon="5.72907">
        <ele>699.60540771484</ele>
        <time>2011-05-15T07:40:11Z</time>
      </trkpt>
      <trkpt lat="45.22594" lon="5.7291">
        <ele>700.66802978516</ele>
        <time>2011-05-15T07:40:13Z</time>
      </trkpt>
      <trkpt lat="45.22595" lon="5.72911">
        <ele>700.46484375</ele>
        <time>2011-05-15T07:40:16Z</time>
      </trkpt>
      <trkpt lat="45.22599" lon="5.72918">
        <ele>702.54473876953</ele>
        <time>2011-05-15T07:40:21Z</time>
      </trkpt>
      <trkpt lat="45.22601" lon="5.72918">
        <ele>702.01428222656</ele>
        <time>2011-05-15T07:40:24Z</time>
      </trkpt>
      <trkpt lat="45.22604" lon="5.72927">
        <ele>704.45324707031</ele>
        <time>2011-05-15T07:40:30Z</time>
      </trkpt>
      <trkpt lat="45.22607" lon="5.72934">
        <ele>706.14672851562</ele>
        <time>2011-05-15T07:40:34Z</time>
      </trkpt>
      <trkpt lat="45.22618" lon="5.72948">
        <ele>708.22930908203</ele>
        <time>2011-05-15T07:40:40Z</time>
      </trkpt>
      <trkpt lat="45.22625" lon="5.72962">
        <ele>710.43542480469</ele>
        <time>2011-05-15T07:40:45Z</time>
      </trkpt>
      <trkpt lat="45.2264" lon="5.72966">
        <ele>710.16809082031</ele>
        <time>2011-05-15T07:40:51Z</time>
      </trkpt>
      <trkpt lat="45.22656" lon="5.72969">
        <ele>708.82891845703</ele>
        <time>2011-05-15T07:40:55Z</time>
      </trkpt>
      <trkpt lat="45.22665" lon="5.72971">
        <ele>707.73675537109</ele>
        <time>2011-05-15T07:40:59Z</time>
      </trkpt>
      <trkpt lat="45.22679" lon="5.72976">
        <ele>705.79437255859</ele>
        <time>2011-05-15T07:41:05Z</time>
      </trkpt>
      <trkpt lat="45.22697" lon="5.72986">
        <ele>704.9072265625</ele>
        <time>2011-05-15T07:41:11Z</time>
      </trkpt>
      <trkpt lat="45.22715" lon="5.72999">
        <ele>706.94592285156</ele>
        <time>2011-05-15T07:41:16Z</time>
      </trkpt>
      <trkpt lat="45.22726" lon="5.73003">
        <ele>706.27722167969</ele>
        <time>2011-05-15T07:41:20Z</time>
      </trkpt>
      <trkpt lat="45.22728" lon="5.73005">
        <ele>706.56005859375</ele>
        <time>2011-05-15T07:41:21Z</time>
      </trkpt>
      <trkpt lat="45.22742" lon="5.73014">
        <ele>707.04840087891</ele>
        <time>2011-05-15T07:41:25Z</time>
      </trkpt>
      <trkpt lat="45.22759" lon="5.73029">
        <ele>707.7373046875</ele>
        <time>2011-05-15T07:41:30Z</time>
      </trkpt>
      <trkpt lat="45.22771" lon="5.73033">
        <ele>705.52270507812</ele>
        <time>2011-05-15T07:41:34Z</time>
      </trkpt>
      <trkpt lat="45.22787" lon="5.73043">
        <ele>703.58819580078</ele>
        <time>2011-05-15T07:41:40Z</time>
      </trkpt>
      <trkpt lat="45.22803" lon="5.73052">
        <ele>702.43206787109</ele>
        <time>2011-05-15T07:41:44Z</time>
      </trkpt>
      <trkpt lat="45.22818" lon="5.73059">
        <ele>700.16961669922</ele>
        <time>2011-05-15T07:41:49Z</time>
      </trkpt>
      <trkpt lat="45.22834" lon="5.73066">
        <ele>697.47357177734</ele>
        <time>2011-05-15T07:41:54Z</time>
      </trkpt>
      <trkpt lat="45.22845" lon="5.73076">
        <ele>698.17053222656</ele>
        <time>2011-05-15T07:41:58Z</time>
      </trkpt>
      <trkpt lat="45.22861" lon="5.73089">
        <ele>699.91400146484</ele>
        <time>2011-05-15T07:42:03Z</time>
      </trkpt>
      <trkpt lat="45.2288" lon="5.73101">
        <ele>700.23596191406</ele>
        <time>2011-05-15T07:42:09Z</time>
      </trkpt>
      <trkpt lat="45.22894" lon="5.73108">
        <ele>699.84448242188</ele>
        <time>2011-05-15T07:42:14Z</time>
      </trkpt>
      <trkpt lat="45.2291" lon="5.73114">
        <ele>698.89916992188</ele>
        <time>2011-05-15T07:42:19Z</time>
      </trkpt>
      <trkpt lat="45.22924" lon="5.73116">
        <ele>697.75366210938</ele>
        <time>2011-05-15T07:42:24Z</time>
      </trkpt>
      <trkpt lat="45.22938" lon="5.73118">
        <ele>698.86773681641</ele>
        <time>2011-05-15T07:42:29Z</time>
      </trkpt>
      <trkpt lat="45.22949" lon="5.73116">
        <ele>697.73950195312</ele>
        <time>2011-05-15T07:42:34Z</time>
      </trkpt>
      <trkpt lat="45.22965" lon="5.73119">
        <ele>697.75665283203</ele>
        <time>2011-05-15T07:42:39Z</time>
      </trkpt>
      <trkpt lat="45.22968" lon="5.7312">
        <ele>698.02789306641</ele>
        <time>2011-05-15T07:42:40Z</time>
      </trkpt>
      <trkpt lat="45.22973" lon="5.73126">
        <ele>699.86120605469</ele>
        <time>2011-05-15T07:42:43Z</time>
      </trkpt>
      <trkpt lat="45.22977" lon="5.73132">
        <ele>701.95721435547</ele>
        <time>2011-05-15T07:42:47Z</time>
      </trkpt>
      <trkpt lat="45.22983" lon="5.73139">
        <ele>704.12359619141</ele>
        <time>2011-05-15T07:42:51Z</time>
      </trkpt>
      <trkpt lat="45.22985" lon="5.73142">
        <ele>705.27026367188</ele>
        <time>2011-05-15T07:42:53Z</time>
      </trkpt>
      <trkpt lat="45.22993" lon="5.73141">
        <ele>704.49438476562</ele>
        <time>2011-05-15T07:42:59Z</time>
      </trkpt>
      <trkpt lat="45.23004" lon="5.73141">
        <ele>703.9658203125</ele>
        <time>2011-05-15T07:43:06Z</time>
      </trkpt>
      <trkpt lat="45.23006" lon="5.73142">
        <ele>704.56896972656</ele>
        <time>2011-05-15T07:43:08Z</time>
      </trkpt>
      <trkpt lat="45.23014" lon="5.73146">
        <ele>707.16003417969</ele>
        <time>2011-05-15T07:43:15Z</time>
      </trkpt>
      <trkpt lat="45.23024" lon="5.73151">
        <ele>710.08978271484</ele>
        <time>2011-05-15T07:43:22Z</time>
      </trkpt>
      <trkpt lat="45.23025" lon="5.73152">
        <ele>710.33386230469</ele>
        <time>2011-05-15T07:43:23Z</time>
      </trkpt>
      <trkpt lat="45.2303" lon="5.73154">
        <ele>711.73919677734</ele>
        <time>2011-05-15T07:43:27Z</time>
      </trkpt>
      <trkpt lat="45.23037" lon="5.73156">
        <ele>712.90020751953</ele>
        <time>2011-05-15T07:43:33Z</time>
      </trkpt>
      <trkpt lat="45.23039" lon="5.73158">
        <ele>713.57135009766</ele>
        <time>2011-05-15T07:43:36Z</time>
      </trkpt>
      <trkpt lat="45.23043" lon="5.73161">
        <ele>715.08911132812</ele>
        <time>2011-05-15T07:43:40Z</time>
      </trkpt>
      <trkpt lat="45.23046" lon="5.73164">
        <ele>716.58966064453</ele>
        <time>2011-05-15T07:43:43Z</time>
      </trkpt>
      <trkpt lat="45.23048" lon="5.73169">
        <ele>718.22515869141</ele>
        <time>2011-05-15T07:43:46Z</time>
      </trkpt>
      <trkpt lat="45.23053" lon="5.73175">
        <ele>719.99731445312</ele>
        <time>2011-05-15T07:43:51Z</time>
      </trkpt>
      <trkpt lat="45.23054" lon="5.73176">
        <ele>720.25518798828</ele>
        <time>2011-05-15T07:43:52Z</time>
      </trkpt>
      <trkpt lat="45.23061" lon="5.73185">
        <ele>722.79522705078</ele>
        <time>2011-05-15T07:43:57Z</time>
      </trkpt>
      <trkpt lat="45.23069" lon="5.73185">
        <ele>722.86181640625</ele>
        <time>2011-05-15T07:44:01Z</time>
      </trkpt>
      <trkpt lat="45.23083" lon="5.73183">
        <ele>722.46081542969</ele>
        <time>2011-05-15T07:44:08Z</time>
      </trkpt>
      <trkpt lat="45.23085" lon="5.73182">
        <ele>722.43951416016</ele>
        <time>2011-05-15T07:44:09Z</time>
      </trkpt>
      <trkpt lat="45.23096" lon="5.73179">
        <ele>722.42541503906</ele>
        <time>2011-05-15T07:44:14Z</time>
      </trkpt>
      <trkpt lat="45.23103" lon="5.73179">
        <ele>722.9609375</ele>
        <time>2011-05-15T07:44:18Z</time>
      </trkpt>
      <trkpt lat="45.23116" lon="5.73183">
        <ele>724.62530517578</ele>
        <time>2011-05-15T07:44:26Z</time>
      </trkpt>
      <trkpt lat="45.23125" lon="5.73185">
        <ele>724.57794189453</ele>
        <time>2011-05-15T07:44:31Z</time>
      </trkpt>
      <trkpt lat="45.23135" lon="5.73186">
        <ele>724.36639404297</ele>
        <time>2011-05-15T07:44:36Z</time>
      </trkpt>
      <trkpt lat="45.23146" lon="5.7319">
        <ele>725.26239013672</ele>
        <time>2011-05-15T07:44:41Z</time>
      </trkpt>
      <trkpt lat="45.23161" lon="5.73201">
        <ele>728.48168945312</ele>
        <time>2011-05-15T07:44:48Z</time>
      </trkpt>
      <trkpt lat="45.23172" lon="5.73211">
        <ele>731.21203613281</ele>
        <time>2011-05-15T07:44:54Z</time>
      </trkpt>
      <trkpt lat="45.23184" lon="5.7322">
        <ele>732.42779541016</ele>
        <time>2011-05-15T07:45:01Z</time>
      </trkpt>
      <trkpt lat="45.2319" lon="5.73223">
        <ele>732.43737792969</ele>
        <time>2011-05-15T07:45:05Z</time>
      </trkpt>
      <trkpt lat="45.23206" lon="5.73229">
        <ele>736.21508789062</ele>
        <time>2011-05-15T07:45:11Z</time>
      </trkpt>
      <trkpt lat="45.23211" lon="5.7323">
        <ele>737.42443847656</ele>
        <time>2011-05-15T07:45:13Z</time>
      </trkpt>
      <trkpt lat="45.23219" lon="5.7323">
        <ele>738.54449462891</ele>
        <time>2011-05-15T07:45:18Z</time>
      </trkpt>
      <trkpt lat="45.23223" lon="5.73233">
        <ele>739.57165527344</ele>
        <time>2011-05-15T07:45:21Z</time>
      </trkpt>
      <trkpt lat="45.2323" lon="5.73238">
        <ele>740.80218505859</ele>
        <time>2011-05-15T07:45:26Z</time>
      </trkpt>
      <trkpt lat="45.23239" lon="5.73246">
        <ele>743.23474121094</ele>
        <time>2011-05-15T07:45:34Z</time>
      </trkpt>
      <trkpt lat="45.23245" lon="5.73251">
        <ele>745.14587402344</ele>
        <time>2011-05-15T07:45:41Z</time>
      </trkpt>
      <trkpt lat="45.23251" lon="5.73254">
        <ele>745.90203857422</ele>
        <time>2011-05-15T07:45:46Z</time>
      </trkpt>
      <trkpt lat="45.23257" lon="5.73268">
        <ele>748.59594726562</ele>
        <time>2011-05-15T07:45:53Z</time>
      </trkpt>
      <trkpt lat="45.23258" lon="5.73277">
        <ele>750.87066650391</ele>
        <time>2011-05-15T07:45:58Z</time>
      </trkpt>
      <trkpt lat="45.23258" lon="5.73289">
        <ele>753.95147705078</ele>
        <time>2011-05-15T07:46:04Z</time>
      </trkpt>
      <trkpt lat="45.23264" lon="5.73283">
        <ele>751.919921875</ele>
        <time>2011-05-15T07:46:09Z</time>
      </trkpt>
      <trkpt lat="45.23273" lon="5.73271">
        <ele>747.71362304688</ele>
        <time>2011-05-15T07:46:14Z</time>
      </trkpt>
      <trkpt lat="45.23279" lon="5.73269">
        <ele>746.35247802734</ele>
        <time>2011-05-15T07:46:16Z</time>
      </trkpt>
      <trkpt lat="45.23298" lon="5.73269">
        <ele>745.14398193359</ele>
        <time>2011-05-15T07:46:21Z</time>
      </trkpt>
      <trkpt lat="45.23319" lon="5.73279">
        <ele>745.41967773438</ele>
        <time>2011-05-15T07:46:27Z</time>
      </trkpt>
      <trkpt lat="45.23335" lon="5.7329">
        <ele>745.53186035156</ele>
        <time>2011-05-15T07:46:32Z</time>
      </trkpt>
      <trkpt lat="45.23349" lon="5.73297">
        <ele>745.62158203125</ele>
        <time>2011-05-15T07:46:37Z</time>
      </trkpt>
      <trkpt lat="45.23354" lon="5.73299">
        <ele>745.81994628906</ele>
        <time>2011-05-15T07:46:39Z</time>
      </trkpt>
      <trkpt lat="45.23361" lon="5.73314">
        <ele>748.1796875</ele>
        <time>2011-05-15T07:46:45Z</time>
      </trkpt>
      <trkpt lat="45.23363" lon="5.73323">
        <ele>749.16387939453</ele>
        <time>2011-05-15T07:46:51Z</time>
      </trkpt>
      <trkpt lat="45.23364" lon="5.7333">
        <ele>750.05780029297</ele>
        <time>2011-05-15T07:46:56Z</time>
      </trkpt>
      <trkpt lat="45.23365" lon="5.73339">
        <ele>752.94866943359</ele>
        <time>2011-05-15T07:47:02Z</time>
      </trkpt>
      <trkpt lat="45.23366" lon="5.73343">
        <ele>754.05578613281</ele>
        <time>2011-05-15T07:47:04Z</time>
      </trkpt>
      <trkpt lat="45.23373" lon="5.73355">
        <ele>757.14831542969</ele>
        <time>2011-05-15T07:47:11Z</time>
      </trkpt>
      <trkpt lat="45.23376" lon="5.73361">
        <ele>758.77349853516</ele>
        <time>2011-05-15T07:47:16Z</time>
      </trkpt>
      <trkpt lat="45.23377" lon="5.73365">
        <ele>759.51531982422</ele>
        <time>2011-05-15T07:47:18Z</time>
      </trkpt>
      <trkpt lat="45.2338" lon="5.73372">
        <ele>761.33929443359</ele>
        <time>2011-05-15T07:47:24Z</time>
      </trkpt>
      <trkpt lat="45.23381" lon="5.73378">
        <ele>763.11169433594</ele>
        <time>2011-05-15T07:47:30Z</time>
      </trkpt>
      <trkpt lat="45.23382" lon="5.73384">
        <ele>765.05444335938</ele>
        <time>2011-05-15T07:47:34Z</time>
      </trkpt>
      <trkpt lat="45.23385" lon="5.7339">
        <ele>767.37377929688</ele>
        <time>2011-05-15T07:47:41Z</time>
      </trkpt>
      <trkpt lat="45.23388" lon="5.73394">
        <ele>768.28143310547</ele>
        <time>2011-05-15T07:47:45Z</time>
      </trkpt>
      <trkpt lat="45.23391" lon="5.73405">
        <ele>770.83251953125</ele>
        <time>2011-05-15T07:47:52Z</time>
      </trkpt>
      <trkpt lat="45.23392" lon="5.73408">
        <ele>771.27655029297</ele>
        <time>2011-05-15T07:47:54Z</time>
      </trkpt>
      <trkpt lat="45.23396" lon="5.73418">
        <ele>773.94512939453</ele>
        <time>2011-05-15T07:48:02Z</time>
      </trkpt>
      <trkpt lat="45.23399" lon="5.73427">
        <ele>776.69775390625</ele>
        <time>2011-05-15T07:48:09Z</time>
      </trkpt>
      <trkpt lat="45.23403" lon="5.73435">
        <ele>779.51232910156</ele>
        <time>2011-05-15T07:48:16Z</time>
      </trkpt>
      <trkpt lat="45.23407" lon="5.73444">
        <ele>782.08123779297</ele>
        <time>2011-05-15T07:48:23Z</time>
      </trkpt>
      <trkpt lat="45.23409" lon="5.73447">
        <ele>783.18511962891</ele>
        <time>2011-05-15T07:48:26Z</time>
      </trkpt>
      <trkpt lat="45.2341" lon="5.73449">
        <ele>783.7763671875</ele>
        <time>2011-05-15T07:48:28Z</time>
      </trkpt>
      <trkpt lat="45.23411" lon="5.73453">
        <ele>784.91912841797</ele>
        <time>2011-05-15T07:48:34Z</time>
      </trkpt>
      <trkpt lat="45.23412" lon="5.73459">
        <ele>787.15118408203</ele>
        <time>2011-05-15T07:48:40Z</time>
      </trkpt>
      <trkpt lat="45.23415" lon="5.73465">
        <ele>788.68634033203</ele>
        <time>2011-05-15T07:48:45Z</time>
      </trkpt>
      <trkpt lat="45.23415" lon="5.73468">
        <ele>789.77581787109</ele>
        <time>2011-05-15T07:48:47Z</time>
      </trkpt>
      <trkpt lat="45.23418" lon="5.73472">
        <ele>791.08190917969</ele>
        <time>2011-05-15T07:48:51Z</time>
      </trkpt>
      <trkpt lat="45.23422" lon="5.7348">
        <ele>794.00213623047</ele>
        <time>2011-05-15T07:48:56Z</time>
      </trkpt>
      <trkpt lat="45.23425" lon="5.73487">
        <ele>796.20831298828</ele>
        <time>2011-05-15T07:49:02Z</time>
      </trkpt>
      <trkpt lat="45.23426" lon="5.73491">
        <ele>797.50372314453</ele>
        <time>2011-05-15T07:49:04Z</time>
      </trkpt>
      <trkpt lat="45.23428" lon="5.73498">
        <ele>799.56707763672</ele>
        <time>2011-05-15T07:49:08Z</time>
      </trkpt>
      <trkpt lat="45.23434" lon="5.73504">
        <ele>800.45483398438</ele>
        <time>2011-05-15T07:49:16Z</time>
      </trkpt>
      <trkpt lat="45.23436" lon="5.73505">
        <ele>800.38702392578</ele>
        <time>2011-05-15T07:49:17Z</time>
      </trkpt>
      <trkpt lat="45.23439" lon="5.73509">
        <ele>801.47979736328</ele>
        <time>2011-05-15T07:49:20Z</time>
      </trkpt>
      <trkpt lat="45.23441" lon="5.7352">
        <ele>806.54498291016</ele>
        <time>2011-05-15T07:49:28Z</time>
      </trkpt>
      <trkpt lat="45.23441" lon="5.7352">
        <ele>806.57135009766</ele>
        <time>2011-05-15T07:49:29Z</time>
      </trkpt>
      <trkpt lat="45.2344" lon="5.7352">
        <ele>806.63531494141</ele>
        <time>2011-05-15T07:49:31Z</time>
      </trkpt>
      <trkpt lat="45.2344" lon="5.73517">
        <ele>805.33532714844</ele>
        <time>2011-05-15T07:49:34Z</time>
      </trkpt>
      <trkpt lat="45.2345" lon="5.73534">
        <ele>810.43334960938</ele>
        <time>2011-05-15T07:49:42Z</time>
      </trkpt>
      <trkpt lat="45.23452" lon="5.73539">
        <ele>811.72735595703</ele>
        <time>2011-05-15T07:49:46Z</time>
      </trkpt>
      <trkpt lat="45.23456" lon="5.73545">
        <ele>813.291015625</ele>
        <time>2011-05-15T07:49:53Z</time>
      </trkpt>
      <trkpt lat="45.23457" lon="5.73546">
        <ele>813.69519042969</ele>
        <time>2011-05-15T07:49:54Z</time>
      </trkpt>
      <trkpt lat="45.2346" lon="5.73549">
        <ele>814.69665527344</ele>
        <time>2011-05-15T07:49:58Z</time>
      </trkpt>
      <trkpt lat="45.23463" lon="5.73552">
        <ele>815.71807861328</ele>
        <time>2011-05-15T07:50:05Z</time>
      </trkpt>
      <trkpt lat="45.23467" lon="5.73557">
        <ele>817.81640625</ele>
        <time>2011-05-15T07:50:12Z</time>
      </trkpt>
      <trkpt lat="45.2347" lon="5.73564">
        <ele>820.53558349609</ele>
        <time>2011-05-15T07:50:19Z</time>
      </trkpt>
      <trkpt lat="45.23476" lon="5.73571">
        <ele>822.19543457031</ele>
        <time>2011-05-15T07:50:25Z</time>
      </trkpt>
      <trkpt lat="45.2348" lon="5.73579">
        <ele>825.04864501953</ele>
        <time>2011-05-15T07:50:32Z</time>
      </trkpt>
      <trkpt lat="45.23484" lon="5.73588">
        <ele>828.63635253906</ele>
        <time>2011-05-15T07:50:42Z</time>
      </trkpt>
      <trkpt lat="45.23486" lon="5.73589">
        <ele>828.65679931641</ele>
        <time>2011-05-15T07:50:46Z</time>
      </trkpt>
      <trkpt lat="45.23486" lon="5.73591">
        <ele>829.54248046875</ele>
        <time>2011-05-15T07:50:49Z</time>
      </trkpt>
      <trkpt lat="45.23488" lon="5.73595">
        <ele>830.91168212891</ele>
        <time>2011-05-15T07:50:53Z</time>
      </trkpt>
      <trkpt lat="45.2349" lon="5.73596">
        <ele>830.84149169922</ele>
        <time>2011-05-15T07:50:56Z</time>
      </trkpt>
      <trkpt lat="45.23492" lon="5.73598">
        <ele>831.59002685547</ele>
        <time>2011-05-15T07:50:59Z</time>
      </trkpt>
      <trkpt lat="45.23499" lon="5.73603">
        <ele>832.74322509766</ele>
        <time>2011-05-15T07:51:05Z</time>
      </trkpt>
      <trkpt lat="45.23507" lon="5.73609">
        <ele>835.44445800781</ele>
        <time>2011-05-15T07:51:11Z</time>
      </trkpt>
      <trkpt lat="45.23516" lon="5.73611">
        <ele>837.23083496094</ele>
        <time>2011-05-15T07:51:16Z</time>
      </trkpt>
      <trkpt lat="45.2352" lon="5.73613">
        <ele>838.03521728516</ele>
        <time>2011-05-15T07:51:19Z</time>
      </trkpt>
      <trkpt lat="45.23525" lon="5.73612">
        <ele>838.02056884766</ele>
        <time>2011-05-15T07:51:23Z</time>
      </trkpt>
      <trkpt lat="45.2354" lon="5.73609">
        <ele>836.92474365234</ele>
        <time>2011-05-15T07:51:29Z</time>
      </trkpt>
      <trkpt lat="45.23557" lon="5.73606">
        <ele>835.94830322266</ele>
        <time>2011-05-15T07:51:36Z</time>
      </trkpt>
      <trkpt lat="45.23573" lon="5.73604">
        <ele>835.1708984375</ele>
        <time>2011-05-15T07:51:42Z</time>
      </trkpt>
      <trkpt lat="45.23581" lon="5.73604">
        <ele>835.24261474609</ele>
        <time>2011-05-15T07:51:47Z</time>
      </trkpt>
      <trkpt lat="45.23591" lon="5.73607">
        <ele>836.18872070312</ele>
        <time>2011-05-15T07:51:52Z</time>
      </trkpt>
      <trkpt lat="45.23598" lon="5.73608">
        <ele>836.00048828125</ele>
        <time>2011-05-15T07:51:55Z</time>
      </trkpt>
      <trkpt lat="45.23606" lon="5.73611">
        <ele>837.11737060547</ele>
        <time>2011-05-15T07:51:59Z</time>
      </trkpt>
      <trkpt lat="45.23614" lon="5.73614">
        <ele>837.90808105469</ele>
        <time>2011-05-15T07:52:03Z</time>
      </trkpt>
      <trkpt lat="45.23626" lon="5.73624">
        <ele>841.03234863281</ele>
        <time>2011-05-15T07:52:09Z</time>
      </trkpt>
      <trkpt lat="45.23629" lon="5.73626">
        <ele>841.46490478516</ele>
        <time>2011-05-15T07:52:11Z</time>
      </trkpt>
      <trkpt lat="45.23635" lon="5.73628">
        <ele>841.9404296875</ele>
        <time>2011-05-15T07:52:14Z</time>
      </trkpt>
      <trkpt lat="45.23646" lon="5.73633">
        <ele>842.97552490234</ele>
        <time>2011-05-15T07:52:20Z</time>
      </trkpt>
      <trkpt lat="45.23653" lon="5.73632">
        <ele>842.17901611328</ele>
        <time>2011-05-15T07:52:24Z</time>
      </trkpt>
      <trkpt lat="45.23661" lon="5.73631">
        <ele>841.21600341797</ele>
        <time>2011-05-15T07:52:29Z</time>
      </trkpt>
      <trkpt lat="45.23665" lon="5.7363">
        <ele>840.572265625</ele>
        <time>2011-05-15T07:52:31Z</time>
      </trkpt>
      <trkpt lat="45.23676" lon="5.73633">
        <ele>840.64776611328</ele>
        <time>2011-05-15T07:52:36Z</time>
      </trkpt>
      <trkpt lat="45.23682" lon="5.73637">
        <ele>841.49920654297</ele>
        <time>2011-05-15T07:52:39Z</time>
      </trkpt>
      <trkpt lat="45.23701" lon="5.73643">
        <ele>841.91979980469</ele>
        <time>2011-05-15T07:52:47Z</time>
      </trkpt>
      <trkpt lat="45.23708" lon="5.73648">
        <ele>843.00982666016</ele>
        <time>2011-05-15T07:52:50Z</time>
      </trkpt>
      <trkpt lat="45.23722" lon="5.73657">
        <ele>845.07318115234</ele>
        <time>2011-05-15T07:52:57Z</time>
      </trkpt>
      <trkpt lat="45.23724" lon="5.73658">
        <ele>845.27917480469</ele>
        <time>2011-05-15T07:52:58Z</time>
      </trkpt>
      <trkpt lat="45.23739" lon="5.73659">
        <ele>844.31103515625</ele>
        <time>2011-05-15T07:53:03Z</time>
      </trkpt>
      <trkpt lat="45.23751" lon="5.73663">
        <ele>844.05718994141</ele>
        <time>2011-05-15T07:53:09Z</time>
      </trkpt>
      <trkpt lat="45.23769" lon="5.7367">
        <ele>839.7841796875</ele>
        <time>2011-05-15T07:53:16Z</time>
      </trkpt>
      <trkpt lat="45.23793" lon="5.73667">
        <ele>831.16137695312</ele>
        <time>2011-05-15T07:53:22Z</time>
      </trkpt>
      <trkpt lat="45.23803" lon="5.7369">
        <ele>834.28845214844</ele>
        <time>2011-05-15T07:53:27Z</time>
      </trkpt>
      <trkpt lat="45.23813" lon="5.73708">
        <ele>833.24237060547</ele>
        <time>2011-05-15T07:53:31Z</time>
      </trkpt>
      <trkpt lat="45.23819" lon="5.73711">
        <ele>831.41412353516</ele>
        <time>2011-05-15T07:53:32Z</time>
      </trkpt>
      <trkpt lat="45.23835" lon="5.73718">
        <ele>826.66430664062</ele>
        <time>2011-05-15T07:53:36Z</time>
      </trkpt>
      <trkpt lat="45.23855" lon="5.73736">
        <ele>822.20678710938</ele>
        <time>2011-05-15T07:53:42Z</time>
      </trkpt>
      <trkpt lat="45.23867" lon="5.73741">
        <ele>818.32531738281</ele>
        <time>2011-05-15T07:53:46Z</time>
      </trkpt>
      <trkpt lat="45.23884" lon="5.73737">
        <ele>811.42687988281</ele>
        <time>2011-05-15T07:53:51Z</time>
      </trkpt>
      <trkpt lat="45.23907" lon="5.73755">
        <ele>806.52899169922</ele>
        <time>2011-05-15T07:53:56Z</time>
      </trkpt>
      <trkpt lat="45.23911" lon="5.73757">
        <ele>805.7685546875</ele>
        <time>2011-05-15T07:53:57Z</time>
      </trkpt>
      <trkpt lat="45.2392" lon="5.7376">
        <ele>804.109375</ele>
        <time>2011-05-15T07:53:59Z</time>
      </trkpt>
      <trkpt lat="45.23928" lon="5.73762">
        <ele>803.62164306641</ele>
        <time>2011-05-15T07:54:02Z</time>
      </trkpt>
      <trkpt lat="45.23942" lon="5.73768">
        <ele>803.38757324219</ele>
        <time>2011-05-15T07:54:08Z</time>
      </trkpt>
      <trkpt lat="45.23959" lon="5.73763">
        <ele>799.90197753906</ele>
        <time>2011-05-15T07:54:15Z</time>
      </trkpt>
      <trkpt lat="45.2396" lon="5.73762">
        <ele>799.54229736328</ele>
        <time>2011-05-15T07:54:16Z</time>
      </trkpt>
      <trkpt lat="45.23973" lon="5.73755">
        <ele>796.06536865234</ele>
        <time>2011-05-15T07:54:21Z</time>
      </trkpt>
      <trkpt lat="45.23988" lon="5.73743">
        <ele>792.00463867188</ele>
        <time>2011-05-15T07:54:26Z</time>
      </trkpt>
      <trkpt lat="45.23993" lon="5.73742">
        <ele>791.2529296875</ele>
        <time>2011-05-15T07:54:27Z</time>
      </trkpt>
      <trkpt lat="45.24004" lon="5.73756">
        <ele>792.70501708984</ele>
        <time>2011-05-15T07:54:31Z</time>
      </trkpt>
      <trkpt lat="45.2402" lon="5.73779">
        <ele>795.56964111328</ele>
        <time>2011-05-15T07:54:37Z</time>
      </trkpt>
      <trkpt lat="45.24034" lon="5.73784">
        <ele>793.62719726562</ele>
        <time>2011-05-15T07:54:41Z</time>
      </trkpt>
      <trkpt lat="45.24055" lon="5.73787">
        <ele>789.25909423828</ele>
        <time>2011-05-15T07:54:47Z</time>
      </trkpt>
      <trkpt lat="45.2408" lon="5.73794">
        <ele>786.60046386719</ele>
        <time>2011-05-15T07:54:53Z</time>
      </trkpt>
      <trkpt lat="45.24094" lon="5.73795">
        <ele>784.57977294922</ele>
        <time>2011-05-15T07:54:57Z</time>
      </trkpt>
      <trkpt lat="45.2411" lon="5.73789">
        <ele>781.51422119141</ele>
        <time>2011-05-15T07:55:02Z</time>
      </trkpt>
      <trkpt lat="45.24125" lon="5.73784">
        <ele>777.50946044922</ele>
        <time>2011-05-15T07:55:07Z</time>
      </trkpt>
      <trkpt lat="45.2414" lon="5.73786">
        <ele>775.47717285156</ele>
        <time>2011-05-15T07:55:12Z</time>
      </trkpt>
      <trkpt lat="45.24157" lon="5.73791">
        <ele>775.29949951172</ele>
        <time>2011-05-15T07:55:18Z</time>
      </trkpt>
      <trkpt lat="45.24167" lon="5.73798">
        <ele>776.06646728516</ele>
        <time>2011-05-15T07:55:23Z</time>
      </trkpt>
      <trkpt lat="45.24182" lon="5.7381">
        <ele>778.32727050781</ele>
        <time>2011-05-15T07:55:28Z</time>
      </trkpt>
      <trkpt lat="45.24196" lon="5.73819">
        <ele>779.63409423828</ele>
        <time>2011-05-15T07:55:33Z</time>
      </trkpt>
      <trkpt lat="45.24209" lon="5.7382">
        <ele>779.01513671875</ele>
        <time>2011-05-15T07:55:38Z</time>
      </trkpt>
      <trkpt lat="45.24222" lon="5.73826">
        <ele>779.50390625</ele>
        <time>2011-05-15T07:55:43Z</time>
      </trkpt>
      <trkpt lat="45.24237" lon="5.73828">
        <ele>778.45745849609</ele>
        <time>2011-05-15T07:55:49Z</time>
      </trkpt>
      <trkpt lat="45.24255" lon="5.73831">
        <ele>777.22100830078</ele>
        <time>2011-05-15T07:55:56Z</time>
      </trkpt>
      <trkpt lat="45.24272" lon="5.7384">
        <ele>776.57464599609</ele>
        <time>2011-05-15T07:56:01Z</time>
      </trkpt>
      <trkpt lat="45.24284" lon="5.73851">
        <ele>777.28033447266</ele>
        <time>2011-05-15T07:56:05Z</time>
      </trkpt>
      <trkpt lat="45.2429" lon="5.73858">
        <ele>778.42590332031</ele>
        <time>2011-05-15T07:56:07Z</time>
      </trkpt>
      <trkpt lat="45.243" lon="5.73878">
        <ele>781.13763427734</ele>
        <time>2011-05-15T07:56:12Z</time>
      </trkpt>
      <trkpt lat="45.2431" lon="5.73898">
        <ele>782.53900146484</ele>
        <time>2011-05-15T07:56:17Z</time>
      </trkpt>
      <trkpt lat="45.24319" lon="5.73915">
        <ele>784.82739257812</ele>
        <time>2011-05-15T07:56:22Z</time>
      </trkpt>
      <trkpt lat="45.2433" lon="5.73931">
        <ele>784.48449707031</ele>
        <time>2011-05-15T07:56:26Z</time>
      </trkpt>
      <trkpt lat="45.24333" lon="5.73948">
        <ele>785.46862792969</ele>
        <time>2011-05-15T07:56:30Z</time>
      </trkpt>
      <trkpt lat="45.24333" lon="5.73951">
        <ele>785.87438964844</ele>
        <time>2011-05-15T07:56:31Z</time>
      </trkpt>
      <trkpt lat="45.24327" lon="5.73958">
        <ele>788.17907714844</ele>
        <time>2011-05-15T07:56:37Z</time>
      </trkpt>
      <trkpt lat="45.24319" lon="5.73961">
        <ele>790.61016845703</ele>
        <time>2011-05-15T07:56:45Z</time>
      </trkpt>
      <trkpt lat="45.24312" lon="5.73964">
        <ele>792.57489013672</ele>
        <time>2011-05-15T07:56:51Z</time>
      </trkpt>
      <trkpt lat="45.24306" lon="5.73963">
        <ele>794.07043457031</ele>
        <time>2011-05-15T07:56:57Z</time>
      </trkpt>
      <trkpt lat="45.24298" lon="5.73969">
        <ele>797.64080810547</ele>
        <time>2011-05-15T07:57:04Z</time>
      </trkpt>
      <trkpt lat="45.24288" lon="5.73973">
        <ele>803.11145019531</ele>
        <time>2011-05-15T07:57:11Z</time>
      </trkpt>
      <trkpt lat="45.24285" lon="5.73974">
        <ele>804.62445068359</ele>
        <time>2011-05-15T07:57:13Z</time>
      </trkpt>
      <trkpt lat="45.24279" lon="5.73977">
        <ele>807.77490234375</ele>
        <time>2011-05-15T07:57:18Z</time>
      </trkpt>
      <trkpt lat="45.24276" lon="5.73981">
        <ele>809.42608642578</ele>
        <time>2011-05-15T07:57:22Z</time>
      </trkpt>
      <trkpt lat="45.24271" lon="5.73983">
        <ele>811.05841064453</ele>
        <time>2011-05-15T07:57:28Z</time>
      </trkpt>
      <trkpt lat="45.24267" lon="5.73986">
        <ele>812.66345214844</ele>
        <time>2011-05-15T07:57:32Z</time>
      </trkpt>
      <trkpt lat="45.24262" lon="5.73988">
        <ele>814.39630126953</ele>
        <time>2011-05-15T07:57:38Z</time>
      </trkpt>
      <trkpt lat="45.24258" lon="5.7399">
        <ele>815.91656494141</ele>
        <time>2011-05-15T07:57:43Z</time>
      </trkpt>
      <trkpt lat="45.24256" lon="5.73992">
        <ele>817.13354492188</ele>
        <time>2011-05-15T07:57:47Z</time>
      </trkpt>
      <trkpt lat="45.24252" lon="5.73997">
        <ele>819.46154785156</ele>
        <time>2011-05-15T07:57:52Z</time>
      </trkpt>
      <trkpt lat="45.2425" lon="5.73998">
        <ele>820.67376708984</ele>
        <time>2011-05-15T07:57:55Z</time>
      </trkpt>
      <trkpt lat="45.24247" lon="5.74">
        <ele>822.16394042969</ele>
        <time>2011-05-15T07:57:57Z</time>
      </trkpt>
      <trkpt lat="45.24243" lon="5.73999">
        <ele>822.84857177734</ele>
        <time>2011-05-15T07:58:01Z</time>
      </trkpt>
      <trkpt lat="45.2424" lon="5.73995">
        <ele>822.78094482422</ele>
        <time>2011-05-15T07:58:05Z</time>
      </trkpt>
      <trkpt lat="45.24237" lon="5.73991">
        <ele>822.38928222656</ele>
        <time>2011-05-15T07:58:12Z</time>
      </trkpt>
      <trkpt lat="45.24235" lon="5.73988">
        <ele>822.57775878906</ele>
        <time>2011-05-15T07:58:16Z</time>
      </trkpt>
      <trkpt lat="45.24232" lon="5.73988">
        <ele>823.37554931641</ele>
        <time>2011-05-15T07:58:19Z</time>
      </trkpt>
      <trkpt lat="45.24231" lon="5.73993">
        <ele>825.10809326172</ele>
        <time>2011-05-15T07:58:24Z</time>
      </trkpt>
      <trkpt lat="45.24229" lon="5.73998">
        <ele>827.09442138672</ele>
        <time>2011-05-15T07:58:30Z</time>
      </trkpt>
      <trkpt lat="45.24234" lon="5.74013">
        <ele>829.66015625</ele>
        <time>2011-05-15T07:58:39Z</time>
      </trkpt>
      <trkpt lat="45.24241" lon="5.74026">
        <ele>829.91247558594</ele>
        <time>2011-05-15T07:58:43Z</time>
      </trkpt>
      <trkpt lat="45.2426" lon="5.74045">
        <ele>825.35296630859</ele>
        <time>2011-05-15T07:58:50Z</time>
      </trkpt>
      <trkpt lat="45.24275" lon="5.74054">
        <ele>821.63195800781</ele>
        <time>2011-05-15T07:58:54Z</time>
      </trkpt>
      <trkpt lat="45.24287" lon="5.74065">
        <ele>819.84924316406</ele>
        <time>2011-05-15T07:58:59Z</time>
      </trkpt>
      <trkpt lat="45.24295" lon="5.74079">
        <ele>820.00372314453</ele>
        <time>2011-05-15T07:59:05Z</time>
      </trkpt>
      <trkpt lat="45.24308" lon="5.74086">
        <ele>816.84112548828</ele>
        <time>2011-05-15T07:59:10Z</time>
      </trkpt>
      <trkpt lat="45.24323" lon="5.74098">
        <ele>814.92358398438</ele>
        <time>2011-05-15T07:59:15Z</time>
      </trkpt>
      <trkpt lat="45.24342" lon="5.74114">
        <ele>810.70056152344</ele>
        <time>2011-05-15T07:59:21Z</time>
      </trkpt>
      <trkpt lat="45.24358" lon="5.74129">
        <ele>808.85412597656</ele>
        <time>2011-05-15T07:59:26Z</time>
      </trkpt>
      <trkpt lat="45.24371" lon="5.74158">
        <ele>809.09771728516</ele>
        <time>2011-05-15T07:59:32Z</time>
      </trkpt>
      <trkpt lat="45.24387" lon="5.74176">
        <ele>806.61688232422</ele>
        <time>2011-05-15T07:59:37Z</time>
      </trkpt>
      <trkpt lat="45.244" lon="5.74187">
        <ele>804.02136230469</ele>
        <time>2011-05-15T07:59:41Z</time>
      </trkpt>
      <trkpt lat="45.24409" lon="5.74196">
        <ele>802.45581054688</ele>
        <time>2011-05-15T07:59:44Z</time>
      </trkpt>
      <trkpt lat="45.24423" lon="5.7421">
        <ele>801.16552734375</ele>
        <time>2011-05-15T07:59:48Z</time>
      </trkpt>
      <trkpt lat="45.24443" lon="5.74237">
        <ele>801.01208496094</ele>
        <time>2011-05-15T07:59:56Z</time>
      </trkpt>
      <trkpt lat="45.24464" lon="5.74256">
        <ele>795.58892822266</ele>
        <time>2011-05-15T08:00:02Z</time>
      </trkpt>
      <trkpt lat="45.24482" lon="5.74263">
        <ele>789.66711425781</ele>
        <time>2011-05-15T08:00:07Z</time>
      </trkpt>
      <trkpt lat="45.24498" lon="5.74262">
        <ele>781.71368408203</ele>
        <time>2011-05-15T08:00:13Z</time>
      </trkpt>
      <trkpt lat="45.24501" lon="5.7426">
        <ele>779.92340087891</ele>
        <time>2011-05-15T08:00:14Z</time>
      </trkpt>
      <trkpt lat="45.24504" lon="5.74245">
        <ele>776.30950927734</ele>
        <time>2011-05-15T08:00:19Z</time>
      </trkpt>
      <trkpt lat="45.24505" lon="5.74251">
        <ele>776.4970703125</ele>
        <time>2011-05-15T08:00:21Z</time>
      </trkpt>
      <trkpt lat="45.24513" lon="5.74268">
        <ele>775.09631347656</ele>
        <time>2011-05-15T08:00:27Z</time>
      </trkpt>
      <trkpt lat="45.24529" lon="5.74279">
        <ele>768.72973632812</ele>
        <time>2011-05-15T08:00:33Z</time>
      </trkpt>
      <trkpt lat="45.24545" lon="5.74288">
        <ele>762.44689941406</ele>
        <time>2011-05-15T08:00:39Z</time>
      </trkpt>
      <trkpt lat="45.24559" lon="5.74302">
        <ele>758.08673095703</ele>
        <time>2011-05-15T08:00:45Z</time>
      </trkpt>
      <trkpt lat="45.24562" lon="5.74318">
        <ele>758.52618408203</ele>
        <time>2011-05-15T08:00:49Z</time>
      </trkpt>
      <trkpt lat="45.24565" lon="5.74344">
        <ele>759.57592773438</ele>
        <time>2011-05-15T08:00:55Z</time>
      </trkpt>
      <trkpt lat="45.24567" lon="5.74364">
        <ele>757.85766601562</ele>
        <time>2011-05-15T08:01:00Z</time>
      </trkpt>
      <trkpt lat="45.24569" lon="5.7437">
        <ele>756.56011962891</ele>
        <time>2011-05-15T08:01:02Z</time>
      </trkpt>
      <trkpt lat="45.24576" lon="5.74378">
        <ele>752.85394287109</ele>
        <time>2011-05-15T08:01:07Z</time>
      </trkpt>
      <trkpt lat="45.24578" lon="5.74377">
        <ele>751.94158935547</ele>
        <time>2011-05-15T08:01:09Z</time>
      </trkpt>
      <trkpt lat="45.24577" lon="5.74385">
        <ele>751.96343994141</ele>
        <time>2011-05-15T08:01:13Z</time>
      </trkpt>
      <trkpt lat="45.24576" lon="5.74396">
        <ele>751.91381835938</ele>
        <time>2011-05-15T08:01:15Z</time>
      </trkpt>
      <trkpt lat="45.2457" lon="5.74416">
        <ele>753.89501953125</ele>
        <time>2011-05-15T08:01:19Z</time>
      </trkpt>
      <trkpt lat="45.24556" lon="5.74448">
        <ele>753.04583740234</ele>
        <time>2011-05-15T08:01:26Z</time>
      </trkpt>
      <trkpt lat="45.24546" lon="5.74478">
        <ele>751.51922607422</ele>
        <time>2011-05-15T08:01:32Z</time>
      </trkpt>
      <trkpt lat="45.24539" lon="5.74497">
        <ele>750.83837890625</ele>
        <time>2011-05-15T08:01:38Z</time>
      </trkpt>
      <trkpt lat="45.2454" lon="5.74495">
        <ele>750.75555419922</ele>
        <time>2011-05-15T08:01:39Z</time>
      </trkpt>
      <trkpt lat="45.24548" lon="5.74484">
        <ele>749.22058105469</ele>
        <time>2011-05-15T08:01:43Z</time>
      </trkpt>
      <trkpt lat="45.24553" lon="5.74479">
        <ele>747.87292480469</ele>
        <time>2011-05-15T08:01:45Z</time>
      </trkpt>
      <trkpt lat="45.24569" lon="5.74468">
        <ele>742.43029785156</ele>
        <time>2011-05-15T08:01:50Z</time>
      </trkpt>
      <trkpt lat="45.24586" lon="5.74458">
        <ele>736.67181396484</ele>
        <time>2011-05-15T08:01:55Z</time>
      </trkpt>
      <trkpt lat="45.24602" lon="5.74448">
        <ele>733.72814941406</ele>
        <time>2011-05-15T08:02:00Z</time>
      </trkpt>
      <trkpt lat="45.24621" lon="5.7444">
        <ele>723.48217773438</ele>
        <time>2011-05-15T08:02:05Z</time>
      </trkpt>
      <trkpt lat="45.24636" lon="5.74422">
        <ele>712.98468017578</ele>
        <time>2011-05-15T08:02:11Z</time>
      </trkpt>
      <trkpt lat="45.24636" lon="5.74418">
        <ele>713.17553710938</ele>
        <time>2011-05-15T08:02:12Z</time>
      </trkpt>
      <trkpt lat="45.24643" lon="5.74403">
        <ele>709.85919189453</ele>
        <time>2011-05-15T08:02:17Z</time>
      </trkpt>
      <trkpt lat="45.24643" lon="5.74403">
        <ele>709.85919189453</ele>
        <time>2011-05-15T08:02:17Z</time>
      </trkpt>
      <trkpt lat="45.24644" lon="5.74375">
        <ele>710.0048828125</ele>
        <time>2011-05-15T08:02:23Z</time>
      </trkpt>
      <trkpt lat="45.24644" lon="5.74368">
        <ele>710.224609375</ele>
        <time>2011-05-15T08:02:25Z</time>
      </trkpt>
      <trkpt lat="45.24644" lon="5.74351">
        <ele>710.3544921875</ele>
        <time>2011-05-15T08:02:31Z</time>
      </trkpt>
      <trkpt lat="45.24651" lon="5.74342">
        <ele>706.60791015625</ele>
        <time>2011-05-15T08:02:35Z</time>
      </trkpt>
      <trkpt lat="45.24656" lon="5.74332">
        <ele>703.91479492188</ele>
        <time>2011-05-15T08:02:39Z</time>
      </trkpt>
      <trkpt lat="45.24663" lon="5.74324">
        <ele>697.65625</ele>
        <time>2011-05-15T08:02:43Z</time>
      </trkpt>
      <trkpt lat="45.24666" lon="5.74322">
        <ele>695.32580566406</ele>
        <time>2011-05-15T08:02:44Z</time>
      </trkpt>
      <trkpt lat="45.24667" lon="5.7432">
        <ele>694.5927734375</ele>
        <time>2011-05-15T08:02:46Z</time>
      </trkpt>
      <trkpt lat="45.24665" lon="5.74307">
        <ele>693.15100097656</ele>
        <time>2011-05-15T08:02:51Z</time>
      </trkpt>
      <trkpt lat="45.2466" lon="5.74284">
        <ele>693.13629150391</ele>
        <time>2011-05-15T08:02:58Z</time>
      </trkpt>
      <trkpt lat="45.24656" lon="5.74265">
        <ele>693.07995605469</ele>
        <time>2011-05-15T08:03:03Z</time>
      </trkpt>
      <trkpt lat="45.24665" lon="5.74247">
        <ele>684.82525634766</ele>
        <time>2011-05-15T08:03:08Z</time>
      </trkpt>
      <trkpt lat="45.24671" lon="5.74236">
        <ele>680.31713867188</ele>
        <time>2011-05-15T08:03:12Z</time>
      </trkpt>
      <trkpt lat="45.24677" lon="5.74216">
        <ele>675.31658935547</ele>
        <time>2011-05-15T08:03:17Z</time>
      </trkpt>
      <trkpt lat="45.24677" lon="5.74193">
        <ele>672.33953857422</ele>
        <time>2011-05-15T08:03:22Z</time>
      </trkpt>
      <trkpt lat="45.2468" lon="5.74175">
        <ele>670.14038085938</ele>
        <time>2011-05-15T08:03:26Z</time>
      </trkpt>
      <trkpt lat="45.2468" lon="5.7417">
        <ele>670.13488769531</ele>
        <time>2011-05-15T08:03:27Z</time>
      </trkpt>
      <trkpt lat="45.2468" lon="5.74166">
        <ele>670.40209960938</ele>
        <time>2011-05-15T08:03:28Z</time>
      </trkpt>
      <trkpt lat="45.24681" lon="5.74163">
        <ele>670.91003417969</ele>
        <time>2011-05-15T08:03:29Z</time>
      </trkpt>
      <trkpt lat="45.24689" lon="5.74155">
        <ele>669.12902832031</ele>
        <time>2011-05-15T08:03:34Z</time>
      </trkpt>
      <trkpt lat="45.24698" lon="5.7414">
        <ele>668.92687988281</ele>
        <time>2011-05-15T08:03:38Z</time>
      </trkpt>
      <trkpt lat="45.24705" lon="5.74131">
        <ele>665.87194824219</ele>
        <time>2011-05-15T08:03:42Z</time>
      </trkpt>
      <trkpt lat="45.24723" lon="5.74131">
        <ele>656.04547119141</ele>
        <time>2011-05-15T08:03:47Z</time>
      </trkpt>
      <trkpt lat="45.24738" lon="5.74128">
        <ele>652.36553955078</ele>
        <time>2011-05-15T08:03:51Z</time>
      </trkpt>
      <trkpt lat="45.24759" lon="5.74126">
        <ele>646.14801025391</ele>
        <time>2011-05-15T08:03:56Z</time>
      </trkpt>
      <trkpt lat="45.24771" lon="5.74127">
        <ele>643.07739257812</ele>
        <time>2011-05-15T08:03:58Z</time>
      </trkpt>
      <trkpt lat="45.2478" lon="5.7412">
        <ele>643.25433349609</ele>
        <time>2011-05-15T08:04:01Z</time>
      </trkpt>
      <trkpt lat="45.24805" lon="5.74116">
        <ele>637.3310546875</ele>
        <time>2011-05-15T08:04:07Z</time>
      </trkpt>
      <trkpt lat="45.24809" lon="5.74115">
        <ele>636.5625</ele>
        <time>2011-05-15T08:04:08Z</time>
      </trkpt>
      <trkpt lat="45.24818" lon="5.74115">
        <ele>635.01068115234</ele>
        <time>2011-05-15T08:04:10Z</time>
      </trkpt>
      <trkpt lat="45.24826" lon="5.74114">
        <ele>633.84564208984</ele>
        <time>2011-05-15T08:04:12Z</time>
      </trkpt>
      <trkpt lat="45.24839" lon="5.74103">
        <ele>633.90344238281</ele>
        <time>2011-05-15T08:04:17Z</time>
      </trkpt>
      <trkpt lat="45.24851" lon="5.74084">
        <ele>633.9326171875</ele>
        <time>2011-05-15T08:04:22Z</time>
      </trkpt>
      <trkpt lat="45.24865" lon="5.74066">
        <ele>632.37188720703</ele>
        <time>2011-05-15T08:04:28Z</time>
      </trkpt>
      <trkpt lat="45.24871" lon="5.74062">
        <ele>632.26800537109</ele>
        <time>2011-05-15T08:04:30Z</time>
      </trkpt>
      <trkpt lat="45.24878" lon="5.74067">
        <ele>630.67510986328</ele>
        <time>2011-05-15T08:04:34Z</time>
      </trkpt>
      <trkpt lat="45.24878" lon="5.74074">
        <ele>629.14727783203</ele>
        <time>2011-05-15T08:04:36Z</time>
      </trkpt>
      <trkpt lat="45.2487" lon="5.74099">
        <ele>627.53491210938</ele>
        <time>2011-05-15T08:04:42Z</time>
      </trkpt>
      <trkpt lat="45.24859" lon="5.74118">
        <ele>627.37713623047</ele>
        <time>2011-05-15T08:04:46Z</time>
      </trkpt>
      <trkpt lat="45.24849" lon="5.74135">
        <ele>623.82427978516</ele>
        <time>2011-05-15T08:04:50Z</time>
      </trkpt>
      <trkpt lat="45.24846" lon="5.74138">
        <ele>623.666015625</ele>
        <time>2011-05-15T08:04:51Z</time>
      </trkpt>
      <trkpt lat="45.24835" lon="5.74156">
        <ele>621.75933837891</ele>
        <time>2011-05-15T08:04:55Z</time>
      </trkpt>
      <trkpt lat="45.24827" lon="5.74185">
        <ele>618.67047119141</ele>
        <time>2011-05-15T08:05:01Z</time>
      </trkpt>
      <trkpt lat="45.24825" lon="5.74207">
        <ele>617.42517089844</ele>
        <time>2011-05-15T08:05:06Z</time>
      </trkpt>
      <trkpt lat="45.2483" lon="5.74226">
        <ele>615.33923339844</ele>
        <time>2011-05-15T08:05:11Z</time>
      </trkpt>
      <trkpt lat="45.24832" lon="5.7424">
        <ele>613.88995361328</ele>
        <time>2011-05-15T08:05:16Z</time>
      </trkpt>
      <trkpt lat="45.24838" lon="5.74254">
        <ele>615.59985351562</ele>
        <time>2011-05-15T08:05:23Z</time>
      </trkpt>
      <trkpt lat="45.24844" lon="5.74265">
        <ele>621.20318603516</ele>
        <time>2011-05-15T08:05:28Z</time>
      </trkpt>
      <trkpt lat="45.24848" lon="5.74271">
        <ele>624.47705078125</ele>
        <time>2011-05-15T08:05:32Z</time>
      </trkpt>
      <trkpt lat="45.24857" lon="5.7428">
        <ele>630.12335205078</ele>
        <time>2011-05-15T08:05:39Z</time>
      </trkpt>
      <trkpt lat="45.24864" lon="5.74284">
        <ele>632.59027099609</ele>
        <time>2011-05-15T08:05:44Z</time>
      </trkpt>
      <trkpt lat="45.24865" lon="5.74285">
        <ele>632.9443359375</ele>
        <time>2011-05-15T08:05:45Z</time>
      </trkpt>
      <trkpt lat="45.24869" lon="5.74287">
        <ele>634.03039550781</ele>
        <time>2011-05-15T08:05:51Z</time>
      </trkpt>
      <trkpt lat="45.24871" lon="5.74286">
        <ele>634.28161621094</ele>
        <time>2011-05-15T08:05:54Z</time>
      </trkpt>
      <trkpt lat="45.24874" lon="5.74286">
        <ele>634.81390380859</ele>
        <time>2011-05-15T08:05:57Z</time>
      </trkpt>
      <trkpt lat="45.24882" lon="5.74284">
        <ele>635.30377197266</ele>
        <time>2011-05-15T08:06:02Z</time>
      </trkpt>
      <trkpt lat="45.24886" lon="5.74281">
        <ele>634.46063232422</ele>
        <time>2011-05-15T08:06:06Z</time>
      </trkpt>
      <trkpt lat="45.24899" lon="5.74279">
        <ele>636.72631835938</ele>
        <time>2011-05-15T08:06:13Z</time>
      </trkpt>
      <trkpt lat="45.24908" lon="5.74277">
        <ele>638.05322265625</ele>
        <time>2011-05-15T08:06:20Z</time>
      </trkpt>
      <trkpt lat="45.24909" lon="5.74277">
        <ele>638.71423339844</ele>
        <time>2011-05-15T08:06:21Z</time>
      </trkpt>
      <trkpt lat="45.24919" lon="5.74278">
        <ele>641.80548095703</ele>
        <time>2011-05-15T08:06:27Z</time>
      </trkpt>
      <trkpt lat="45.24929" lon="5.74277">
        <ele>646.07501220703</ele>
        <time>2011-05-15T08:06:31Z</time>
      </trkpt>
      <trkpt lat="45.24935" lon="5.74278">
        <ele>649.03979492188</ele>
        <time>2011-05-15T08:06:36Z</time>
      </trkpt>
      <trkpt lat="45.2494" lon="5.74277">
        <ele>650.78356933594</ele>
        <time>2011-05-15T08:06:40Z</time>
      </trkpt>
      <trkpt lat="45.24941" lon="5.74275">
        <ele>650.23608398438</ele>
        <time>2011-05-15T08:06:42Z</time>
      </trkpt>
      <trkpt lat="45.24943" lon="5.74274">
        <ele>650.62255859375</ele>
        <time>2011-05-15T08:06:45Z</time>
      </trkpt>
      <trkpt lat="45.24949" lon="5.74273">
        <ele>652.19665527344</ele>
        <time>2011-05-15T08:06:49Z</time>
      </trkpt>
      <trkpt lat="45.2495" lon="5.74267">
        <ele>650.228515625</ele>
        <time>2011-05-15T08:06:53Z</time>
      </trkpt>
      <trkpt lat="45.24959" lon="5.74261">
        <ele>650.19799804688</ele>
        <time>2011-05-15T08:06:59Z</time>
      </trkpt>
      <trkpt lat="45.24963" lon="5.7426">
        <ele>651.09130859375</ele>
        <time>2011-05-15T08:07:02Z</time>
      </trkpt>
      <trkpt lat="45.24973" lon="5.74253">
        <ele>651.59942626953</ele>
        <time>2011-05-15T08:07:09Z</time>
      </trkpt>
      <trkpt lat="45.24979" lon="5.74248">
        <ele>651.56890869141</ele>
        <time>2011-05-15T08:07:14Z</time>
      </trkpt>
      <trkpt lat="45.24984" lon="5.7424">
        <ele>650.85015869141</ele>
        <time>2011-05-15T08:07:19Z</time>
      </trkpt>
      <trkpt lat="45.24986" lon="5.74239">
        <ele>650.7529296875</ele>
        <time>2011-05-15T08:07:20Z</time>
      </trkpt>
      <trkpt lat="45.24989" lon="5.74234">
        <ele>649.79223632812</ele>
        <time>2011-05-15T08:07:24Z</time>
      </trkpt>
      <trkpt lat="45.25002" lon="5.74228">
        <ele>648.80426025391</ele>
        <time>2011-05-15T08:07:31Z</time>
      </trkpt>
      <trkpt lat="45.2501" lon="5.74227">
        <ele>648.72827148438</ele>
        <time>2011-05-15T08:07:36Z</time>
      </trkpt>
      <trkpt lat="45.25018" lon="5.74229">
        <ele>650.49145507812</ele>
        <time>2011-05-15T08:07:41Z</time>
      </trkpt>
      <trkpt lat="45.25023" lon="5.74235">
        <ele>654.73669433594</ele>
        <time>2011-05-15T08:07:45Z</time>
      </trkpt>
      <trkpt lat="45.25033" lon="5.74246">
        <ele>664.42980957031</ele>
        <time>2011-05-15T08:07:53Z</time>
      </trkpt>
      <trkpt lat="45.25042" lon="5.74252">
        <ele>669.41448974609</ele>
        <time>2011-05-15T08:08:00Z</time>
      </trkpt>
      <trkpt lat="45.2505" lon="5.74254">
        <ele>671.66552734375</ele>
        <time>2011-05-15T08:08:05Z</time>
      </trkpt>
      <trkpt lat="45.25062" lon="5.74261">
        <ele>676.59777832031</ele>
        <time>2011-05-15T08:08:13Z</time>
      </trkpt>
      <trkpt lat="45.25063" lon="5.74262">
        <ele>677.21209716797</ele>
        <time>2011-05-15T08:08:14Z</time>
      </trkpt>
      <trkpt lat="45.25069" lon="5.74265">
        <ele>679.79229736328</ele>
        <time>2011-05-15T08:08:18Z</time>
      </trkpt>
      <trkpt lat="45.25077" lon="5.74272">
        <ele>684.64172363281</ele>
        <time>2011-05-15T08:08:24Z</time>
      </trkpt>
      <trkpt lat="45.25088" lon="5.74274">
        <ele>687.91906738281</ele>
        <time>2011-05-15T08:08:31Z</time>
      </trkpt>
      <trkpt lat="45.25099" lon="5.74269">
        <ele>687.64312744141</ele>
        <time>2011-05-15T08:08:36Z</time>
      </trkpt>
      <trkpt lat="45.25103" lon="5.74264">
        <ele>686.07867431641</ele>
        <time>2011-05-15T08:08:39Z</time>
      </trkpt>
      <trkpt lat="45.25111" lon="5.7426">
        <ele>685.35375976562</ele>
        <time>2011-05-15T08:08:46Z</time>
      </trkpt>
      <trkpt lat="45.25114" lon="5.74259">
        <ele>685.01452636719</ele>
        <time>2011-05-15T08:08:48Z</time>
      </trkpt>
      <trkpt lat="45.25123" lon="5.74253">
        <ele>683.08868408203</ele>
        <time>2011-05-15T08:08:55Z</time>
      </trkpt>
      <trkpt lat="45.25133" lon="5.74248">
        <ele>682.12335205078</ele>
        <time>2011-05-15T08:09:01Z</time>
      </trkpt>
      <trkpt lat="45.2514" lon="5.7424">
        <ele>677.81805419922</ele>
        <time>2011-05-15T08:09:07Z</time>
      </trkpt>
      <trkpt lat="45.25141" lon="5.74239">
        <ele>677.54693603516</ele>
        <time>2011-05-15T08:09:08Z</time>
      </trkpt>
      <trkpt lat="45.25141" lon="5.74239">
        <ele>677.54693603516</ele>
        <time>2011-05-15T08:09:08Z</time>
      </trkpt>
      <trkpt lat="45.25149" lon="5.74237">
        <ele>677.76837158203</ele>
        <time>2011-05-15T08:09:13Z</time>
      </trkpt>
      <trkpt lat="45.2515" lon="5.74237">
        <ele>677.83233642578</ele>
        <time>2011-05-15T08:09:14Z</time>
      </trkpt>
      <trkpt lat="45.25162" lon="5.74235">
        <ele>679.03991699219</ele>
        <time>2011-05-15T08:09:20Z</time>
      </trkpt>
      <trkpt lat="45.25176" lon="5.74232">
        <ele>679.65850830078</ele>
        <time>2011-05-15T08:09:26Z</time>
      </trkpt>
      <trkpt lat="45.25193" lon="5.74227">
        <ele>680.19097900391</ele>
        <time>2011-05-15T08:09:32Z</time>
      </trkpt>
      <trkpt lat="45.25206" lon="5.74225">
        <ele>681.57550048828</ele>
        <time>2011-05-15T08:09:37Z</time>
      </trkpt>
      <trkpt lat="45.25225" lon="5.7422">
        <ele>682.31457519531</ele>
        <time>2011-05-15T08:09:44Z</time>
      </trkpt>
      <trkpt lat="45.25237" lon="5.74227">
        <ele>687.05291748047</ele>
        <time>2011-05-15T08:09:50Z</time>
      </trkpt>
      <trkpt lat="45.25246" lon="5.74233">
        <ele>691.04974365234</ele>
        <time>2011-05-15T08:09:55Z</time>
      </trkpt>
      <trkpt lat="45.25255" lon="5.74242">
        <ele>695.4267578125</ele>
        <time>2011-05-15T08:10:00Z</time>
      </trkpt>
      <trkpt lat="45.25269" lon="5.74255">
        <ele>697.72314453125</ele>
        <time>2011-05-15T08:10:07Z</time>
      </trkpt>
      <trkpt lat="45.25273" lon="5.74259">
        <ele>698.99255371094</ele>
        <time>2011-05-15T08:10:10Z</time>
      </trkpt>
      <trkpt lat="45.25283" lon="5.74267">
        <ele>700.10131835938</ele>
        <time>2011-05-15T08:10:17Z</time>
      </trkpt>
      <trkpt lat="45.25286" lon="5.74269">
        <ele>700.51208496094</ele>
        <time>2011-05-15T08:10:19Z</time>
      </trkpt>
      <trkpt lat="45.25297" lon="5.74282">
        <ele>702.53826904297</ele>
        <time>2011-05-15T08:10:26Z</time>
      </trkpt>
      <trkpt lat="45.25307" lon="5.74291">
        <ele>704.17797851562</ele>
        <time>2011-05-15T08:10:32Z</time>
      </trkpt>
      <trkpt lat="45.25318" lon="5.74307">
        <ele>707.92010498047</ele>
        <time>2011-05-15T08:10:38Z</time>
      </trkpt>
      <trkpt lat="45.2533" lon="5.74317">
        <ele>708.82263183594</ele>
        <time>2011-05-15T08:10:44Z</time>
      </trkpt>
      <trkpt lat="45.25338" lon="5.74323">
        <ele>710.28021240234</ele>
        <time>2011-05-15T08:10:50Z</time>
      </trkpt>
      <trkpt lat="45.25348" lon="5.74336">
        <ele>714.67028808594</ele>
        <time>2011-05-15T08:10:57Z</time>
      </trkpt>
      <trkpt lat="45.25361" lon="5.74343">
        <ele>717.13897705078</ele>
        <time>2011-05-15T08:11:02Z</time>
      </trkpt>
      <trkpt lat="45.25372" lon="5.74346">
        <ele>718.49462890625</ele>
        <time>2011-05-15T08:11:07Z</time>
      </trkpt>
      <trkpt lat="45.25385" lon="5.74349">
        <ele>719.17895507812</ele>
        <time>2011-05-15T08:11:14Z</time>
      </trkpt>
      <trkpt lat="45.25396" lon="5.74346">
        <ele>718.01739501953</ele>
        <time>2011-05-15T08:11:21Z</time>
      </trkpt>
      <trkpt lat="45.25401" lon="5.74348">
        <ele>718.75775146484</ele>
        <time>2011-05-15T08:11:24Z</time>
      </trkpt>
      <trkpt lat="45.25414" lon="5.74356">
        <ele>721.33953857422</ele>
        <time>2011-05-15T08:11:32Z</time>
      </trkpt>
      <trkpt lat="45.25427" lon="5.74359">
        <ele>721.7158203125</ele>
        <time>2011-05-15T08:11:38Z</time>
      </trkpt>
      <trkpt lat="45.25436" lon="5.74366">
        <ele>724.08306884766</ele>
        <time>2011-05-15T08:11:43Z</time>
      </trkpt>
      <trkpt lat="45.25438" lon="5.74369">
        <ele>724.90338134766</ele>
        <time>2011-05-15T08:11:44Z</time>
      </trkpt>
      <trkpt lat="45.25449" lon="5.74384">
        <ele>729.02197265625</ele>
        <time>2011-05-15T08:11:50Z</time>
      </trkpt>
      <trkpt lat="45.25458" lon="5.74394">
        <ele>731.77026367188</ele>
        <time>2011-05-15T08:11:55Z</time>
      </trkpt>
      <trkpt lat="45.25471" lon="5.744">
        <ele>732.70922851562</ele>
        <time>2011-05-15T08:12:01Z</time>
      </trkpt>
      <trkpt lat="45.25476" lon="5.74404">
        <ele>733.65338134766</ele>
        <time>2011-05-15T08:12:05Z</time>
      </trkpt>
      <trkpt lat="45.25478" lon="5.74404">
        <ele>733.60534667969</ele>
        <time>2011-05-15T08:12:07Z</time>
      </trkpt>
      <trkpt lat="45.25489" lon="5.74408">
        <ele>733.89373779297</ele>
        <time>2011-05-15T08:12:14Z</time>
      </trkpt>
      <trkpt lat="45.25491" lon="5.74409">
        <ele>734.26281738281</ele>
        <time>2011-05-15T08:12:15Z</time>
      </trkpt>
      <trkpt lat="45.25501" lon="5.74415">
        <ele>735.38616943359</ele>
        <time>2011-05-15T08:12:20Z</time>
      </trkpt>
      <trkpt lat="45.25515" lon="5.74414">
        <ele>735.50183105469</ele>
        <time>2011-05-15T08:12:29Z</time>
      </trkpt>
      <trkpt lat="45.25528" lon="5.74417">
        <ele>737.14300537109</ele>
        <time>2011-05-15T08:12:36Z</time>
      </trkpt>
      <trkpt lat="45.2553" lon="5.74417">
        <ele>737.17199707031</ele>
        <time>2011-05-15T08:12:37Z</time>
      </trkpt>
      <trkpt lat="45.25546" lon="5.74419">
        <ele>737.73461914062</ele>
        <time>2011-05-15T08:12:45Z</time>
      </trkpt>
      <trkpt lat="45.25556" lon="5.7442">
        <ele>738.14636230469</ele>
        <time>2011-05-15T08:12:51Z</time>
      </trkpt>
      <trkpt lat="45.25566" lon="5.74426">
        <ele>739.87194824219</ele>
        <time>2011-05-15T08:12:57Z</time>
      </trkpt>
      <trkpt lat="45.25571" lon="5.74428">
        <ele>740.32952880859</ele>
        <time>2011-05-15T08:13:00Z</time>
      </trkpt>
      <trkpt lat="45.25579" lon="5.74427">
        <ele>740.15991210938</ele>
        <time>2011-05-15T08:13:04Z</time>
      </trkpt>
      <trkpt lat="45.25583" lon="5.74428">
        <ele>740.24462890625</ele>
        <time>2011-05-15T08:13:06Z</time>
      </trkpt>
      <trkpt lat="45.25592" lon="5.74433">
        <ele>740.98626708984</ele>
        <time>2011-05-15T08:13:13Z</time>
      </trkpt>
      <trkpt lat="45.25605" lon="5.74441">
        <ele>743.55834960938</ele>
        <time>2011-05-15T08:13:19Z</time>
      </trkpt>
      <trkpt lat="45.25618" lon="5.74452">
        <ele>745.02899169922</ele>
        <time>2011-05-15T08:13:25Z</time>
      </trkpt>
      <trkpt lat="45.25635" lon="5.7447">
        <ele>749.77117919922</ele>
        <time>2011-05-15T08:13:32Z</time>
      </trkpt>
      <trkpt lat="45.25647" lon="5.74482">
        <ele>752.556640625</ele>
        <time>2011-05-15T08:13:38Z</time>
      </trkpt>
      <trkpt lat="45.2566" lon="5.7449">
        <ele>753.89978027344</ele>
        <time>2011-05-15T08:13:44Z</time>
      </trkpt>
      <trkpt lat="45.25673" lon="5.74494">
        <ele>755.01959228516</ele>
        <time>2011-05-15T08:13:50Z</time>
      </trkpt>
      <trkpt lat="45.25681" lon="5.74493">
        <ele>755.35089111328</ele>
        <time>2011-05-15T08:13:55Z</time>
      </trkpt>
      <trkpt lat="45.25682" lon="5.74493">
        <ele>755.45220947266</ele>
        <time>2011-05-15T08:13:56Z</time>
      </trkpt>
      <trkpt lat="45.25693" lon="5.74493">
        <ele>755.93627929688</ele>
        <time>2011-05-15T08:14:03Z</time>
      </trkpt>
      <trkpt lat="45.25694" lon="5.74492">
        <ele>755.72686767578</ele>
        <time>2011-05-15T08:14:04Z</time>
      </trkpt>
      <trkpt lat="45.25703" lon="5.7449">
        <ele>755.53631591797</ele>
        <time>2011-05-15T08:14:10Z</time>
      </trkpt>
      <trkpt lat="45.25706" lon="5.7449">
        <ele>756.08563232422</ele>
        <time>2011-05-15T08:14:12Z</time>
      </trkpt>
      <trkpt lat="45.25713" lon="5.74495">
        <ele>758.38415527344</ele>
        <time>2011-05-15T08:14:18Z</time>
      </trkpt>
      <trkpt lat="45.25724" lon="5.74498">
        <ele>760.21063232422</ele>
        <time>2011-05-15T08:14:22Z</time>
      </trkpt>
      <trkpt lat="45.25728" lon="5.74502">
        <ele>761.98651123047</ele>
        <time>2011-05-15T08:14:26Z</time>
      </trkpt>
      <trkpt lat="45.25732" lon="5.74505">
        <ele>763.14764404297</ele>
        <time>2011-05-15T08:14:29Z</time>
      </trkpt>
      <trkpt lat="45.25738" lon="5.7451">
        <ele>765.25299072266</ele>
        <time>2011-05-15T08:14:34Z</time>
      </trkpt>
      <trkpt lat="45.25742" lon="5.74515">
        <ele>766.95690917969</ele>
        <time>2011-05-15T08:14:39Z</time>
      </trkpt>
      <trkpt lat="45.25745" lon="5.74518">
        <ele>768.05731201172</ele>
        <time>2011-05-15T08:14:42Z</time>
      </trkpt>
      <trkpt lat="45.25755" lon="5.74526">
        <ele>770.76409912109</ele>
        <time>2011-05-15T08:14:47Z</time>
      </trkpt>
      <trkpt lat="45.25758" lon="5.74529">
        <ele>771.70269775391</ele>
        <time>2011-05-15T08:14:50Z</time>
      </trkpt>
      <trkpt lat="45.25759" lon="5.74531">
        <ele>772.33123779297</ele>
        <time>2011-05-15T08:14:52Z</time>
      </trkpt>
      <trkpt lat="45.25763" lon="5.74534">
        <ele>773.45745849609</ele>
        <time>2011-05-15T08:14:56Z</time>
      </trkpt>
      <trkpt lat="45.25773" lon="5.74545">
        <ele>777.29370117188</ele>
        <time>2011-05-15T08:15:03Z</time>
      </trkpt>
      <trkpt lat="45.25777" lon="5.74551">
        <ele>779.45837402344</ele>
        <time>2011-05-15T08:15:09Z</time>
      </trkpt>
      <trkpt lat="45.25781" lon="5.74558">
        <ele>781.60485839844</ele>
        <time>2011-05-15T08:15:15Z</time>
      </trkpt>
      <trkpt lat="45.25783" lon="5.74562">
        <ele>782.39532470703</ele>
        <time>2011-05-15T08:15:21Z</time>
      </trkpt>
      <trkpt lat="45.25784" lon="5.74563">
        <ele>782.61968994141</ele>
        <time>2011-05-15T08:15:22Z</time>
      </trkpt>
      <trkpt lat="45.25795" lon="5.74569">
        <ele>783.96746826172</ele>
        <time>2011-05-15T08:15:30Z</time>
      </trkpt>
      <trkpt lat="45.25797" lon="5.7457">
        <ele>784.28009033203</ele>
        <time>2011-05-15T08:15:34Z</time>
      </trkpt>
      <trkpt lat="45.25802" lon="5.74572">
        <ele>784.67407226562</ele>
        <time>2011-05-15T08:15:40Z</time>
      </trkpt>
      <trkpt lat="45.25803" lon="5.74571">
        <ele>784.62762451172</ele>
        <time>2011-05-15T08:15:41Z</time>
      </trkpt>
      <trkpt lat="45.25809" lon="5.74568">
        <ele>783.64270019531</ele>
        <time>2011-05-15T08:15:47Z</time>
      </trkpt>
      <trkpt lat="45.25812" lon="5.74568">
        <ele>783.77758789062</ele>
        <time>2011-05-15T08:15:50Z</time>
      </trkpt>
      <trkpt lat="45.25816" lon="5.74578">
        <ele>786.51220703125</ele>
        <time>2011-05-15T08:15:55Z</time>
      </trkpt>
      <trkpt lat="45.25818" lon="5.74582">
        <ele>787.58660888672</ele>
        <time>2011-05-15T08:15:57Z</time>
      </trkpt>
      <trkpt lat="45.2583" lon="5.74593">
        <ele>789.86120605469</ele>
        <time>2011-05-15T08:16:05Z</time>
      </trkpt>
      <trkpt lat="45.25832" lon="5.74594">
        <ele>789.88092041016</ele>
        <time>2011-05-15T08:16:08Z</time>
      </trkpt>
      <trkpt lat="45.25843" lon="5.74603">
        <ele>791.73999023438</ele>
        <time>2011-05-15T08:16:14Z</time>
      </trkpt>
      <trkpt lat="45.25847" lon="5.74606">
        <ele>792.64532470703</ele>
        <time>2011-05-15T08:16:17Z</time>
      </trkpt>
      <trkpt lat="45.25854" lon="5.74605">
        <ele>792.74621582031</ele>
        <time>2011-05-15T08:16:23Z</time>
      </trkpt>
      <trkpt lat="45.25861" lon="5.7461">
        <ele>794.55236816406</ele>
        <time>2011-05-15T08:16:31Z</time>
      </trkpt>
      <trkpt lat="45.25865" lon="5.74611">
        <ele>794.14086914062</ele>
        <time>2011-05-15T08:16:36Z</time>
      </trkpt>
      <trkpt lat="45.25876" lon="5.74622">
        <ele>794.46362304688</ele>
        <time>2011-05-15T08:16:44Z</time>
      </trkpt>
      <trkpt lat="45.25881" lon="5.7463">
        <ele>796.77252197266</ele>
        <time>2011-05-15T08:16:48Z</time>
      </trkpt>
      <trkpt lat="45.25887" lon="5.7464">
        <ele>800.85412597656</ele>
        <time>2011-05-15T08:16:55Z</time>
      </trkpt>
      <trkpt lat="45.25888" lon="5.74641">
        <ele>801.35485839844</ele>
        <time>2011-05-15T08:16:56Z</time>
      </trkpt>
      <trkpt lat="45.25897" lon="5.74652">
        <ele>803.00061035156</ele>
        <time>2011-05-15T08:17:02Z</time>
      </trkpt>
      <trkpt lat="45.25901" lon="5.74654">
        <ele>803.44360351562</ele>
        <time>2011-05-15T08:17:06Z</time>
      </trkpt>
      <trkpt lat="45.25907" lon="5.7466">
        <ele>804.71258544922</ele>
        <time>2011-05-15T08:17:09Z</time>
      </trkpt>
      <trkpt lat="45.25912" lon="5.74664">
        <ele>806.04077148438</ele>
        <time>2011-05-15T08:17:14Z</time>
      </trkpt>
      <trkpt lat="45.25915" lon="5.74669">
        <ele>807.65875244141</ele>
        <time>2011-05-15T08:17:18Z</time>
      </trkpt>
      <trkpt lat="45.25922" lon="5.7468">
        <ele>810.1904296875</ele>
        <time>2011-05-15T08:17:24Z</time>
      </trkpt>
      <trkpt lat="45.2593" lon="5.7469">
        <ele>812.171875</ele>
        <time>2011-05-15T08:17:30Z</time>
      </trkpt>
      <trkpt lat="45.25937" lon="5.74696">
        <ele>813.30792236328</ele>
        <time>2011-05-15T08:17:34Z</time>
      </trkpt>
      <trkpt lat="45.25943" lon="5.74699">
        <ele>813.08898925781</ele>
        <time>2011-05-15T08:17:38Z</time>
      </trkpt>
      <trkpt lat="45.25943" lon="5.74699">
        <ele>813.08898925781</ele>
        <time>2011-05-15T08:17:38Z</time>
      </trkpt>
      <trkpt lat="45.25952" lon="5.74703">
        <ele>812.83703613281</ele>
        <time>2011-05-15T08:17:45Z</time>
      </trkpt>
      <trkpt lat="45.2596" lon="5.74705">
        <ele>812.36749267578</ele>
        <time>2011-05-15T08:17:50Z</time>
      </trkpt>
      <trkpt lat="45.25966" lon="5.74706">
        <ele>812.04046630859</ele>
        <time>2011-05-15T08:17:53Z</time>
      </trkpt>
      <trkpt lat="45.2597" lon="5.7471">
        <ele>812.82543945312</ele>
        <time>2011-05-15T08:17:57Z</time>
      </trkpt>
      <trkpt lat="45.25977" lon="5.74718">
        <ele>814.91204833984</ele>
        <time>2011-05-15T08:18:03Z</time>
      </trkpt>
      <trkpt lat="45.25986" lon="5.74726">
        <ele>815.93255615234</ele>
        <time>2011-05-15T08:18:07Z</time>
      </trkpt>
      <trkpt lat="45.25999" lon="5.74739">
        <ele>818.0927734375</ele>
        <time>2011-05-15T08:18:13Z</time>
      </trkpt>
      <trkpt lat="45.26012" lon="5.74749">
        <ele>819.73474121094</ele>
        <time>2011-05-15T08:18:20Z</time>
      </trkpt>
      <trkpt lat="45.2602" lon="5.74765">
        <ele>823.75177001953</ele>
        <time>2011-05-15T08:18:26Z</time>
      </trkpt>
      <trkpt lat="45.26031" lon="5.74783">
        <ele>828.30023193359</ele>
        <time>2011-05-15T08:18:33Z</time>
      </trkpt>
      <trkpt lat="45.26038" lon="5.74793">
        <ele>830.806640625</ele>
        <time>2011-05-15T08:18:39Z</time>
      </trkpt>
      <trkpt lat="45.26049" lon="5.74801">
        <ele>831.18377685547</ele>
        <time>2011-05-15T08:18:44Z</time>
      </trkpt>
      <trkpt lat="45.2606" lon="5.7481">
        <ele>831.85522460938</ele>
        <time>2011-05-15T08:18:50Z</time>
      </trkpt>
      <trkpt lat="45.26063" lon="5.74816">
        <ele>833.06317138672</ele>
        <time>2011-05-15T08:18:53Z</time>
      </trkpt>
      <trkpt lat="45.26074" lon="5.74829">
        <ele>835.46710205078</ele>
        <time>2011-05-15T08:18:59Z</time>
      </trkpt>
      <trkpt lat="45.2608" lon="5.74843">
        <ele>838.86480712891</ele>
        <time>2011-05-15T08:19:05Z</time>
      </trkpt>
      <trkpt lat="45.26085" lon="5.74854">
        <ele>841.47552490234</ele>
        <time>2011-05-15T08:19:10Z</time>
      </trkpt>
      <trkpt lat="45.26093" lon="5.74856">
        <ele>842.02960205078</ele>
        <time>2011-05-15T08:19:14Z</time>
      </trkpt>
      <trkpt lat="45.26103" lon="5.74853">
        <ele>840.72229003906</ele>
        <time>2011-05-15T08:19:20Z</time>
      </trkpt>
      <trkpt lat="45.26109" lon="5.7485">
        <ele>839.95141601562</ele>
        <time>2011-05-15T08:19:24Z</time>
      </trkpt>
      <trkpt lat="45.2612" lon="5.74847">
        <ele>839.96911621094</ele>
        <time>2011-05-15T08:19:31Z</time>
      </trkpt>
      <trkpt lat="45.26133" lon="5.74847">
        <ele>840.76403808594</ele>
        <time>2011-05-15T08:19:37Z</time>
      </trkpt>
      <trkpt lat="45.26143" lon="5.74848">
        <ele>841.013671875</ele>
        <time>2011-05-15T08:19:43Z</time>
      </trkpt>
      <trkpt lat="45.26151" lon="5.74853">
        <ele>841.60034179688</ele>
        <time>2011-05-15T08:19:50Z</time>
      </trkpt>
      <trkpt lat="45.26165" lon="5.74868">
        <ele>843.34252929688</ele>
        <time>2011-05-15T08:19:59Z</time>
      </trkpt>
      <trkpt lat="45.26171" lon="5.74882">
        <ele>846.37255859375</ele>
        <time>2011-05-15T08:20:06Z</time>
      </trkpt>
      <trkpt lat="45.26171" lon="5.74888">
        <ele>847.58905029297</ele>
        <time>2011-05-15T08:20:09Z</time>
      </trkpt>
      <trkpt lat="45.26173" lon="5.74899">
        <ele>850.58056640625</ele>
        <time>2011-05-15T08:20:15Z</time>
      </trkpt>
      <trkpt lat="45.26174" lon="5.749">
        <ele>851.07275390625</ele>
        <time>2011-05-15T08:20:16Z</time>
      </trkpt>
      <trkpt lat="45.26176" lon="5.74916">
        <ele>855.2470703125</ele>
        <time>2011-05-15T08:20:23Z</time>
      </trkpt>
      <trkpt lat="45.26182" lon="5.74933">
        <ele>860.12017822266</ele>
        <time>2011-05-15T08:20:29Z</time>
      </trkpt>
      <trkpt lat="45.26186" lon="5.74939">
        <ele>861.73077392578</ele>
        <time>2011-05-15T08:20:32Z</time>
      </trkpt>
      <trkpt lat="45.26189" lon="5.7495">
        <ele>865.10900878906</ele>
        <time>2011-05-15T08:20:38Z</time>
      </trkpt>
      <trkpt lat="45.2619" lon="5.74956">
        <ele>867.267578125</ele>
        <time>2011-05-15T08:20:43Z</time>
      </trkpt>
      <trkpt lat="45.26194" lon="5.74961">
        <ele>869.60784912109</ele>
        <time>2011-05-15T08:20:48Z</time>
      </trkpt>
      <trkpt lat="45.26195" lon="5.74964">
        <ele>870.70904541016</ele>
        <time>2011-05-15T08:20:50Z</time>
      </trkpt>
      <trkpt lat="45.26198" lon="5.74969">
        <ele>872.56066894531</ele>
        <time>2011-05-15T08:20:55Z</time>
      </trkpt>
      <trkpt lat="45.26208" lon="5.74978">
        <ele>873.94293212891</ele>
        <time>2011-05-15T08:21:04Z</time>
      </trkpt>
      <trkpt lat="45.2621" lon="5.74979">
        <ele>874.01806640625</ele>
        <time>2011-05-15T08:21:05Z</time>
      </trkpt>
      <trkpt lat="45.26217" lon="5.74984">
        <ele>874.79675292969</ele>
        <time>2011-05-15T08:21:12Z</time>
      </trkpt>
      <trkpt lat="45.2622" lon="5.74984">
        <ele>874.51196289062</ele>
        <time>2011-05-15T08:21:14Z</time>
      </trkpt>
      <trkpt lat="45.26223" lon="5.74984">
        <ele>874.40966796875</ele>
        <time>2011-05-15T08:21:16Z</time>
      </trkpt>
      <trkpt lat="45.26227" lon="5.74982">
        <ele>873.85784912109</ele>
        <time>2011-05-15T08:21:19Z</time>
      </trkpt>
      <trkpt lat="45.26234" lon="5.74978">
        <ele>873.10791015625</ele>
        <time>2011-05-15T08:21:25Z</time>
      </trkpt>
      <trkpt lat="45.26238" lon="5.74976">
        <ele>872.61700439453</ele>
        <time>2011-05-15T08:21:28Z</time>
      </trkpt>
      <trkpt lat="45.26245" lon="5.74974">
        <ele>872.33642578125</ele>
        <time>2011-05-15T08:21:35Z</time>
      </trkpt>
      <trkpt lat="45.26247" lon="5.74974">
        <ele>872.31433105469</ele>
        <time>2011-05-15T08:21:36Z</time>
      </trkpt>
      <trkpt lat="45.26252" lon="5.74969">
        <ele>871.79522705078</ele>
        <time>2011-05-15T08:21:41Z</time>
      </trkpt>
      <trkpt lat="45.2626" lon="5.74961">
        <ele>871.86389160156</ele>
        <time>2011-05-15T08:21:48Z</time>
      </trkpt>
      <trkpt lat="45.26268" lon="5.74957">
        <ele>872.56768798828</ele>
        <time>2011-05-15T08:21:53Z</time>
      </trkpt>
      <trkpt lat="45.26274" lon="5.74952">
        <ele>872.8251953125</ele>
        <time>2011-05-15T08:21:58Z</time>
      </trkpt>
      <trkpt lat="45.26279" lon="5.74947">
        <ele>872.65856933594</ele>
        <time>2011-05-15T08:22:03Z</time>
      </trkpt>
      <trkpt lat="45.26281" lon="5.74945">
        <ele>872.50067138672</ele>
        <time>2011-05-15T08:22:06Z</time>
      </trkpt>
      <trkpt lat="45.26285" lon="5.74942">
        <ele>872.55560302734</ele>
        <time>2011-05-15T08:22:10Z</time>
      </trkpt>
      <trkpt lat="45.26292" lon="5.74948">
        <ele>874.68420410156</ele>
        <time>2011-05-15T08:22:15Z</time>
      </trkpt>
      <trkpt lat="45.26294" lon="5.74949">
        <ele>875.05841064453</ele>
        <time>2011-05-15T08:22:16Z</time>
      </trkpt>
      <trkpt lat="45.26301" lon="5.74955">
        <ele>877.25738525391</ele>
        <time>2011-05-15T08:22:22Z</time>
      </trkpt>
      <trkpt lat="45.26306" lon="5.74959">
        <ele>878.62384033203</ele>
        <time>2011-05-15T08:22:26Z</time>
      </trkpt>
      <trkpt lat="45.26315" lon="5.74971">
        <ele>882.16003417969</ele>
        <time>2011-05-15T08:22:34Z</time>
      </trkpt>
      <trkpt lat="45.2632" lon="5.74982">
        <ele>885.01446533203</ele>
        <time>2011-05-15T08:22:40Z</time>
      </trkpt>
      <trkpt lat="45.2632" lon="5.74984">
        <ele>885.40142822266</ele>
        <time>2011-05-15T08:22:41Z</time>
      </trkpt>
      <trkpt lat="45.2632" lon="5.74996">
        <ele>887.84692382812</ele>
        <time>2011-05-15T08:22:46Z</time>
      </trkpt>
      <trkpt lat="45.26321" lon="5.75006">
        <ele>890.00970458984</ele>
        <time>2011-05-15T08:22:51Z</time>
      </trkpt>
      <trkpt lat="45.26323" lon="5.75017">
        <ele>892.30633544922</ele>
        <time>2011-05-15T08:22:56Z</time>
      </trkpt>
      <trkpt lat="45.26323" lon="5.7502">
        <ele>893.07971191406</ele>
        <time>2011-05-15T08:22:58Z</time>
      </trkpt>
      <trkpt lat="45.26323" lon="5.75025">
        <ele>893.93237304688</ele>
        <time>2011-05-15T08:23:03Z</time>
      </trkpt>
      <trkpt lat="45.26323" lon="5.75033">
        <ele>895.37738037109</ele>
        <time>2011-05-15T08:23:08Z</time>
      </trkpt>
      <trkpt lat="45.26326" lon="5.75045">
        <ele>897.48687744141</ele>
        <time>2011-05-15T08:23:15Z</time>
      </trkpt>
      <trkpt lat="45.2633" lon="5.75056">
        <ele>899.70257568359</ele>
        <time>2011-05-15T08:23:21Z</time>
      </trkpt>
      <trkpt lat="45.26335" lon="5.75064">
        <ele>901.3212890625</ele>
        <time>2011-05-15T08:23:27Z</time>
      </trkpt>
      <trkpt lat="45.26344" lon="5.75076">
        <ele>902.21862792969</ele>
        <time>2011-05-15T08:23:34Z</time>
      </trkpt>
      <trkpt lat="45.26348" lon="5.75085">
        <ele>903.85601806641</ele>
        <time>2011-05-15T08:23:40Z</time>
      </trkpt>
      <trkpt lat="45.2635" lon="5.75087">
        <ele>904.33630371094</ele>
        <time>2011-05-15T08:23:42Z</time>
      </trkpt>
      <trkpt lat="45.26357" lon="5.751">
        <ele>908.12774658203</ele>
        <time>2011-05-15T08:23:49Z</time>
      </trkpt>
      <trkpt lat="45.26362" lon="5.75112">
        <ele>912.11462402344</ele>
        <time>2011-05-15T08:23:57Z</time>
      </trkpt>
      <trkpt lat="45.26364" lon="5.75114">
        <ele>912.2099609375</ele>
        <time>2011-05-15T08:23:58Z</time>
      </trkpt>
      <trkpt lat="45.26373" lon="5.75125">
        <ele>914.14001464844</ele>
        <time>2011-05-15T08:24:05Z</time>
      </trkpt>
      <trkpt lat="45.26373" lon="5.75126">
        <ele>914.37298583984</ele>
        <time>2011-05-15T08:24:06Z</time>
      </trkpt>
      <trkpt lat="45.26375" lon="5.75134">
        <ele>916.57104492188</ele>
        <time>2011-05-15T08:24:10Z</time>
      </trkpt>
      <trkpt lat="45.26377" lon="5.75143">
        <ele>919.0234375</ele>
        <time>2011-05-15T08:24:15Z</time>
      </trkpt>
      <trkpt lat="45.26382" lon="5.75148">
        <ele>920.12817382812</ele>
        <time>2011-05-15T08:24:20Z</time>
      </trkpt>
      <trkpt lat="45.26392" lon="5.75155">
        <ele>921.35345458984</ele>
        <time>2011-05-15T08:24:28Z</time>
      </trkpt>
      <trkpt lat="45.26401" lon="5.75162">
        <ele>922.41259765625</ele>
        <time>2011-05-15T08:24:35Z</time>
      </trkpt>
      <trkpt lat="45.26408" lon="5.75169">
        <ele>923.76690673828</ele>
        <time>2011-05-15T08:24:42Z</time>
      </trkpt>
      <trkpt lat="45.26416" lon="5.75177">
        <ele>925.49182128906</ele>
        <time>2011-05-15T08:24:48Z</time>
      </trkpt>
      <trkpt lat="45.26422" lon="5.75183">
        <ele>927.28448486328</ele>
        <time>2011-05-15T08:24:53Z</time>
      </trkpt>
      <trkpt lat="45.26428" lon="5.75191">
        <ele>930.11437988281</ele>
        <time>2011-05-15T08:24:59Z</time>
      </trkpt>
      <trkpt lat="45.26432" lon="5.75196">
        <ele>932.07672119141</ele>
        <time>2011-05-15T08:25:03Z</time>
      </trkpt>
      <trkpt lat="45.26439" lon="5.75206">
        <ele>935.17553710938</ele>
        <time>2011-05-15T08:25:09Z</time>
      </trkpt>
      <trkpt lat="45.26443" lon="5.75211">
        <ele>936.72918701172</ele>
        <time>2011-05-15T08:25:13Z</time>
      </trkpt>
      <trkpt lat="45.26446" lon="5.75222">
        <ele>939.93127441406</ele>
        <time>2011-05-15T08:25:19Z</time>
      </trkpt>
      <trkpt lat="45.26448" lon="5.75226">
        <ele>941.58673095703</ele>
        <time>2011-05-15T08:25:22Z</time>
      </trkpt>
      <trkpt lat="45.26449" lon="5.7524">
        <ele>946.42517089844</ele>
        <time>2011-05-15T08:25:30Z</time>
      </trkpt>
      <trkpt lat="45.26456" lon="5.75252">
        <ele>950.54345703125</ele>
        <time>2011-05-15T08:25:37Z</time>
      </trkpt>
      <trkpt lat="45.26459" lon="5.75255">
        <ele>951.37701416016</ele>
        <time>2011-05-15T08:25:39Z</time>
      </trkpt>
      <trkpt lat="45.2646" lon="5.7526">
        <ele>952.47009277344</ele>
        <time>2011-05-15T08:25:45Z</time>
      </trkpt>
      <trkpt lat="45.26463" lon="5.75261">
        <ele>953.00939941406</ele>
        <time>2011-05-15T08:25:50Z</time>
      </trkpt>
      <trkpt lat="45.26471" lon="5.75268">
        <ele>955.02447509766</ele>
        <time>2011-05-15T08:25:55Z</time>
      </trkpt>
      <trkpt lat="45.26477" lon="5.75271">
        <ele>955.72894287109</ele>
        <time>2011-05-15T08:26:00Z</time>
      </trkpt>
      <trkpt lat="45.2648" lon="5.7527">
        <ele>955.30328369141</ele>
        <time>2011-05-15T08:26:04Z</time>
      </trkpt>
      <trkpt lat="45.26487" lon="5.75266">
        <ele>954.05090332031</ele>
        <time>2011-05-15T08:26:12Z</time>
      </trkpt>
      <trkpt lat="45.2649" lon="5.75266">
        <ele>953.81127929688</ele>
        <time>2011-05-15T08:26:15Z</time>
      </trkpt>
      <trkpt lat="45.26496" lon="5.75265">
        <ele>953.30316162109</ele>
        <time>2011-05-15T08:26:22Z</time>
      </trkpt>
      <trkpt lat="45.26501" lon="5.75263">
        <ele>952.80169677734</ele>
        <time>2011-05-15T08:26:28Z</time>
      </trkpt>
      <trkpt lat="45.26512" lon="5.75265">
        <ele>953.82824707031</ele>
        <time>2011-05-15T08:26:34Z</time>
      </trkpt>
      <trkpt lat="45.26514" lon="5.75265">
        <ele>954.16101074219</ele>
        <time>2011-05-15T08:26:36Z</time>
      </trkpt>
      <trkpt lat="45.26521" lon="5.75265">
        <ele>954.50604248047</ele>
        <time>2011-05-15T08:26:41Z</time>
      </trkpt>
      <trkpt lat="45.26522" lon="5.75265">
        <ele>954.63391113281</ele>
        <time>2011-05-15T08:26:43Z</time>
      </trkpt>
      <trkpt lat="45.26529" lon="5.75268">
        <ele>956.06848144531</ele>
        <time>2011-05-15T08:26:48Z</time>
      </trkpt>
      <trkpt lat="45.26535" lon="5.7527">
        <ele>955.759765625</ele>
        <time>2011-05-15T08:26:53Z</time>
      </trkpt>
      <trkpt lat="45.26543" lon="5.75273">
        <ele>955.87194824219</ele>
        <time>2011-05-15T08:26:59Z</time>
      </trkpt>
      <trkpt lat="45.2655" lon="5.75276">
        <ele>955.70245361328</ele>
        <time>2011-05-15T08:27:05Z</time>
      </trkpt>
      <trkpt lat="45.26559" lon="5.75287">
        <ele>959.65893554688</ele>
        <time>2011-05-15T08:27:13Z</time>
      </trkpt>
      <trkpt lat="45.26561" lon="5.75292">
        <ele>961.6943359375</ele>
        <time>2011-05-15T08:27:16Z</time>
      </trkpt>
      <trkpt lat="45.26564" lon="5.75294">
        <ele>962.99224853516</ele>
        <time>2011-05-15T08:27:21Z</time>
      </trkpt>
      <trkpt lat="45.26571" lon="5.75299">
        <ele>965.03881835938</ele>
        <time>2011-05-15T08:27:28Z</time>
      </trkpt>
      <trkpt lat="45.26582" lon="5.75308">
        <ele>967.70806884766</ele>
        <time>2011-05-15T08:27:35Z</time>
      </trkpt>
      <trkpt lat="45.26587" lon="5.75315">
        <ele>968.59521484375</ele>
        <time>2011-05-15T08:27:40Z</time>
      </trkpt>
      <trkpt lat="45.26588" lon="5.75317">
        <ele>968.84930419922</ele>
        <time>2011-05-15T08:27:41Z</time>
      </trkpt>
      <trkpt lat="45.26588" lon="5.75319">
        <ele>969.47412109375</ele>
        <time>2011-05-15T08:27:43Z</time>
      </trkpt>
      <trkpt lat="45.26591" lon="5.75324">
        <ele>969.68701171875</ele>
        <time>2011-05-15T08:27:47Z</time>
      </trkpt>
      <trkpt lat="45.26593" lon="5.75327">
        <ele>970.1796875</ele>
        <time>2011-05-15T08:27:50Z</time>
      </trkpt>
      <trkpt lat="45.266" lon="5.75336">
        <ele>970.35662841797</ele>
        <time>2011-05-15T08:27:57Z</time>
      </trkpt>
      <trkpt lat="45.26601" lon="5.75337">
        <ele>970.63586425781</ele>
        <time>2011-05-15T08:27:58Z</time>
      </trkpt>
      <trkpt lat="45.26601" lon="5.75337">
        <ele>970.63586425781</ele>
        <time>2011-05-15T08:27:58Z</time>
      </trkpt>
      <trkpt lat="45.26606" lon="5.75343">
        <ele>971.21899414062</ele>
        <time>2011-05-15T08:28:03Z</time>
      </trkpt>
      <trkpt lat="45.26609" lon="5.75348">
        <ele>972.92761230469</ele>
        <time>2011-05-15T08:28:07Z</time>
      </trkpt>
      <trkpt lat="45.26611" lon="5.75351">
        <ele>973.70306396484</ele>
        <time>2011-05-15T08:28:10Z</time>
      </trkpt>
      <trkpt lat="45.26615" lon="5.75358">
        <ele>975.36163330078</ele>
        <time>2011-05-15T08:28:15Z</time>
      </trkpt>
      <trkpt lat="45.26616" lon="5.7536">
        <ele>975.81536865234</ele>
        <time>2011-05-15T08:28:16Z</time>
      </trkpt>
      <trkpt lat="45.26618" lon="5.75366">
        <ele>975.66369628906</ele>
        <time>2011-05-15T08:28:20Z</time>
      </trkpt>
      <trkpt lat="45.26619" lon="5.7537">
        <ele>975.93908691406</ele>
        <time>2011-05-15T08:28:22Z</time>
      </trkpt>
      <trkpt lat="45.26624" lon="5.75377">
        <ele>976.22869873047</ele>
        <time>2011-05-15T08:28:27Z</time>
      </trkpt>
      <trkpt lat="45.26624" lon="5.75383">
        <ele>977.7763671875</ele>
        <time>2011-05-15T08:28:31Z</time>
      </trkpt>
      <trkpt lat="45.26626" lon="5.75394">
        <ele>981.16979980469</ele>
        <time>2011-05-15T08:28:38Z</time>
      </trkpt>
      <trkpt lat="45.26629" lon="5.75406">
        <ele>984.56359863281</ele>
        <time>2011-05-15T08:28:44Z</time>
      </trkpt>
      <trkpt lat="45.26635" lon="5.75411">
        <ele>985.46282958984</ele>
        <time>2011-05-15T08:28:48Z</time>
      </trkpt>
      <trkpt lat="45.2664" lon="5.75418">
        <ele>986.10308837891</ele>
        <time>2011-05-15T08:28:53Z</time>
      </trkpt>
      <trkpt lat="45.26641" lon="5.7542">
        <ele>986.58819580078</ele>
        <time>2011-05-15T08:28:55Z</time>
      </trkpt>
      <trkpt lat="45.26646" lon="5.75426">
        <ele>987.68658447266</ele>
        <time>2011-05-15T08:29:01Z</time>
      </trkpt>
      <trkpt lat="45.26652" lon="5.75433">
        <ele>989.43151855469</ele>
        <time>2011-05-15T08:29:06Z</time>
      </trkpt>
      <trkpt lat="45.26657" lon="5.75446">
        <ele>994.01776123047</ele>
        <time>2011-05-15T08:29:14Z</time>
      </trkpt>
      <trkpt lat="45.26662" lon="5.75452">
        <ele>996.77325439453</ele>
        <time>2011-05-15T08:29:19Z</time>
      </trkpt>
      <trkpt lat="45.26662" lon="5.75453">
        <ele>997.14556884766</ele>
        <time>2011-05-15T08:29:20Z</time>
      </trkpt>
      <trkpt lat="45.26669" lon="5.75457">
        <ele>997.81365966797</ele>
        <time>2011-05-15T08:29:24Z</time>
      </trkpt>
      <trkpt lat="45.2668" lon="5.75468">
        <ele>999.18005371094</ele>
        <time>2011-05-15T08:29:30Z</time>
      </trkpt>
      <trkpt lat="45.26698" lon="5.75479">
        <ele>998.40588378906</ele>
        <time>2011-05-15T08:29:35Z</time>
      </trkpt>
      <trkpt lat="45.26714" lon="5.75491">
        <ele>997.82470703125</ele>
        <time>2011-05-15T08:29:40Z</time>
      </trkpt>
      <trkpt lat="45.26733" lon="5.75508">
        <ele>998.14617919922</ele>
        <time>2011-05-15T08:29:47Z</time>
      </trkpt>
      <trkpt lat="45.26746" lon="5.75522">
        <ele>998.427734375</ele>
        <time>2011-05-15T08:29:52Z</time>
      </trkpt>
      <trkpt lat="45.26758" lon="5.75536">
        <ele>1001.4764404297</ele>
        <time>2011-05-15T08:29:56Z</time>
      </trkpt>
      <trkpt lat="45.2677" lon="5.75541">
        <ele>1002.4893188477</ele>
        <time>2011-05-15T08:30:00Z</time>
      </trkpt>
      <trkpt lat="45.26786" lon="5.75537">
        <ele>1001.1564331055</ele>
        <time>2011-05-15T08:30:06Z</time>
      </trkpt>
      <trkpt lat="45.26809" lon="5.7553">
        <ele>997.04431152344</ele>
        <time>2011-05-15T08:30:13Z</time>
      </trkpt>
      <trkpt lat="45.2682" lon="5.75524">
        <ele>994.84020996094</ele>
        <time>2011-05-15T08:30:17Z</time>
      </trkpt>
      <trkpt lat="45.26838" lon="5.75515">
        <ele>992.00549316406</ele>
        <time>2011-05-15T08:30:22Z</time>
      </trkpt>
      <trkpt lat="45.26857" lon="5.75514">
        <ele>991.90753173828</ele>
        <time>2011-05-15T08:30:27Z</time>
      </trkpt>
      <trkpt lat="45.26875" lon="5.75521">
        <ele>994.33074951172</ele>
        <time>2011-05-15T08:30:32Z</time>
      </trkpt>
      <trkpt lat="45.26888" lon="5.75528">
        <ele>996.88342285156</ele>
        <time>2011-05-15T08:30:35Z</time>
      </trkpt>
      <trkpt lat="45.26904" lon="5.75529">
        <ele>996.04028320312</ele>
        <time>2011-05-15T08:30:40Z</time>
      </trkpt>
      <trkpt lat="45.26923" lon="5.7553">
        <ele>995.92608642578</ele>
        <time>2011-05-15T08:30:45Z</time>
      </trkpt>
      <trkpt lat="45.26942" lon="5.75538">
        <ele>1000.3710327148</ele>
        <time>2011-05-15T08:30:50Z</time>
      </trkpt>
      <trkpt lat="45.26953" lon="5.75546">
        <ele>1004.2201538086</ele>
        <time>2011-05-15T08:30:53Z</time>
      </trkpt>
      <trkpt lat="45.2697" lon="5.75556">
        <ele>1005.2533569336</ele>
        <time>2011-05-15T08:30:59Z</time>
      </trkpt>
      <trkpt lat="45.26979" lon="5.75558">
        <ele>1007.053894043</ele>
        <time>2011-05-15T08:31:04Z</time>
      </trkpt>
      <trkpt lat="45.26982" lon="5.75557">
        <ele>1007.5303955078</ele>
        <time>2011-05-15T08:31:07Z</time>
      </trkpt>
      <trkpt lat="45.26986" lon="5.7554">
        <ele>1008.0274047852</ele>
        <time>2011-05-15T08:31:14Z</time>
      </trkpt>
      <trkpt lat="45.26989" lon="5.75531">
        <ele>1008.2246704102</ele>
        <time>2011-05-15T08:31:19Z</time>
      </trkpt>
      <trkpt lat="45.26991" lon="5.75529">
        <ele>1008.35546875</ele>
        <time>2011-05-15T08:31:21Z</time>
      </trkpt>
      <trkpt lat="45.26991" lon="5.75527">
        <ele>1008.3307495117</ele>
        <time>2011-05-15T08:31:24Z</time>
      </trkpt>
      <trkpt lat="45.2699" lon="5.75519">
        <ele>1007.1080932617</ele>
        <time>2011-05-15T08:31:31Z</time>
      </trkpt>
      <trkpt lat="45.26988" lon="5.75511">
        <ele>1005.8815307617</ele>
        <time>2011-05-15T08:31:36Z</time>
      </trkpt>
      <trkpt lat="45.26989" lon="5.75502">
        <ele>1004.764465332</ele>
        <time>2011-05-15T08:31:41Z</time>
      </trkpt>
      <trkpt lat="45.2699" lon="5.75491">
        <ele>1004.3190917969</ele>
        <time>2011-05-15T08:31:46Z</time>
      </trkpt>
      <trkpt lat="45.26989" lon="5.7548">
        <ele>1003.1947631836</ele>
        <time>2011-05-15T08:31:50Z</time>
      </trkpt>
      <trkpt lat="45.26989" lon="5.75468">
        <ele>1002.9047241211</ele>
        <time>2011-05-15T08:31:55Z</time>
      </trkpt>
      <trkpt lat="45.26988" lon="5.7546">
        <ele>1002.542175293</ele>
        <time>2011-05-15T08:32:00Z</time>
      </trkpt>
      <trkpt lat="45.26989" lon="5.75455">
        <ele>1002.7925415039</ele>
        <time>2011-05-15T08:32:03Z</time>
      </trkpt>
      <trkpt lat="45.26989" lon="5.75454">
        <ele>1002.688659668</ele>
        <time>2011-05-15T08:32:04Z</time>
      </trkpt>
      <trkpt lat="45.26991" lon="5.75439">
        <ele>1002.6474609375</ele>
        <time>2011-05-15T08:32:10Z</time>
      </trkpt>
      <trkpt lat="45.26994" lon="5.7543">
        <ele>1003.0274658203</ele>
        <time>2011-05-15T08:32:16Z</time>
      </trkpt>
      <trkpt lat="45.27005" lon="5.75428">
        <ele>1004.9218139648</ele>
        <time>2011-05-15T08:32:23Z</time>
      </trkpt>
      <trkpt lat="45.27016" lon="5.75435">
        <ele>1007.5162963867</ele>
        <time>2011-05-15T08:32:30Z</time>
      </trkpt>
      <trkpt lat="45.27023" lon="5.75446">
        <ele>1011.3736572266</ele>
        <time>2011-05-15T08:32:34Z</time>
      </trkpt>
      <trkpt lat="45.27034" lon="5.7546">
        <ele>1009.491027832</ele>
        <time>2011-05-15T08:32:42Z</time>
      </trkpt>
      <trkpt lat="45.27036" lon="5.75464">
        <ele>1009.7771606445</ele>
        <time>2011-05-15T08:32:45Z</time>
      </trkpt>
      <trkpt lat="45.27042" lon="5.75473">
        <ele>1012.8392944336</ele>
        <time>2011-05-15T08:32:50Z</time>
      </trkpt>
      <trkpt lat="45.2705" lon="5.75482">
        <ele>1018.030456543</ele>
        <time>2011-05-15T08:32:55Z</time>
      </trkpt>
      <trkpt lat="45.2706" lon="5.75491">
        <ele>1021.1788330078</ele>
        <time>2011-05-15T08:33:01Z</time>
      </trkpt>
      <trkpt lat="45.27062" lon="5.7549">
        <ele>1021.4409179688</ele>
        <time>2011-05-15T08:33:03Z</time>
      </trkpt>
      <trkpt lat="45.27074" lon="5.75494">
        <ele>1023.7590332031</ele>
        <time>2011-05-15T08:33:10Z</time>
      </trkpt>
      <trkpt lat="45.27088" lon="5.75499">
        <ele>1026.7503662109</ele>
        <time>2011-05-15T08:33:17Z</time>
      </trkpt>
      <trkpt lat="45.27108" lon="5.75509">
        <ele>1029.6362304688</ele>
        <time>2011-05-15T08:33:27Z</time>
      </trkpt>
      <trkpt lat="45.27113" lon="5.75508">
        <ele>1029.5821533203</ele>
        <time>2011-05-15T08:33:30Z</time>
      </trkpt>
      <trkpt lat="45.2713" lon="5.75516">
        <ele>1029.8408203125</ele>
        <time>2011-05-15T08:33:37Z</time>
      </trkpt>
      <trkpt lat="45.27142" lon="5.75515">
        <ele>1028.9615478516</ele>
        <time>2011-05-15T08:33:42Z</time>
      </trkpt>
      <trkpt lat="45.27154" lon="5.75522">
        <ele>1031.9760742188</ele>
        <time>2011-05-15T08:33:48Z</time>
      </trkpt>
      <trkpt lat="45.27173" lon="5.75524">
        <ele>1034.5413818359</ele>
        <time>2011-05-15T08:33:55Z</time>
      </trkpt>
      <trkpt lat="45.27192" lon="5.75524">
        <ele>1033.4222412109</ele>
        <time>2011-05-15T08:34:01Z</time>
      </trkpt>
      <trkpt lat="45.27199" lon="5.75517">
        <ele>1032.4449462891</ele>
        <time>2011-05-15T08:34:05Z</time>
      </trkpt>
      <trkpt lat="45.27201" lon="5.75518">
        <ele>1032.9296875</ele>
        <time>2011-05-15T08:34:06Z</time>
      </trkpt>
      <trkpt lat="45.27212" lon="5.75525">
        <ele>1035.904296875</ele>
        <time>2011-05-15T08:34:13Z</time>
      </trkpt>
      <trkpt lat="45.27214" lon="5.75525">
        <ele>1036.0864257812</ele>
        <time>2011-05-15T08:34:14Z</time>
      </trkpt>
      <trkpt lat="45.27229" lon="5.75526">
        <ele>1037.0388183594</ele>
        <time>2011-05-15T08:34:20Z</time>
      </trkpt>
      <trkpt lat="45.27245" lon="5.75529">
        <ele>1036.5327148438</ele>
        <time>2011-05-15T08:34:26Z</time>
      </trkpt>
      <trkpt lat="45.27253" lon="5.75535">
        <ele>1037.3526611328</ele>
        <time>2011-05-15T08:34:29Z</time>
      </trkpt>
      <trkpt lat="45.27272" lon="5.75554">
        <ele>1043.7639160156</ele>
        <time>2011-05-15T08:34:35Z</time>
      </trkpt>
      <trkpt lat="45.27288" lon="5.75556">
        <ele>1043.5589599609</ele>
        <time>2011-05-15T08:34:39Z</time>
      </trkpt>
      <trkpt lat="45.27307" lon="5.7556">
        <ele>1041.9935302734</ele>
        <time>2011-05-15T08:34:44Z</time>
      </trkpt>
      <trkpt lat="45.27325" lon="5.7556">
        <ele>1044.1683349609</ele>
        <time>2011-05-15T08:34:49Z</time>
      </trkpt>
      <trkpt lat="45.27328" lon="5.75558">
        <ele>1044.3986816406</ele>
        <time>2011-05-15T08:34:50Z</time>
      </trkpt>
      <trkpt lat="45.27328" lon="5.75558">
        <ele>1044.3986816406</ele>
        <time>2011-05-15T08:34:50Z</time>
      </trkpt>
      <trkpt lat="45.27337" lon="5.7555">
        <ele>1046.0178222656</ele>
        <time>2011-05-15T08:34:53Z</time>
      </trkpt>
      <trkpt lat="45.27339" lon="5.75543">
        <ele>1046.3079833984</ele>
        <time>2011-05-15T08:34:57Z</time>
      </trkpt>
      <trkpt lat="45.2734" lon="5.75542">
        <ele>1046.5178222656</ele>
        <time>2011-05-15T08:34:58Z</time>
      </trkpt>
      <trkpt lat="45.27348" lon="5.75546">
        <ele>1048.5010986328</ele>
        <time>2011-05-15T08:35:04Z</time>
      </trkpt>
      <trkpt lat="45.27355" lon="5.75548">
        <ele>1050.4051513672</ele>
        <time>2011-05-15T08:35:12Z</time>
      </trkpt>
      <trkpt lat="45.27359" lon="5.75548">
        <ele>1051.2915039062</ele>
        <time>2011-05-15T08:35:14Z</time>
      </trkpt>
      <trkpt lat="45.27361" lon="5.75549">
        <ele>1052.0170898438</ele>
        <time>2011-05-15T08:35:17Z</time>
      </trkpt>
      <trkpt lat="45.27369" lon="5.75549">
        <ele>1052.2261962891</ele>
        <time>2011-05-15T08:35:24Z</time>
      </trkpt>
      <trkpt lat="45.27374" lon="5.75553">
        <ele>1052.1583251953</ele>
        <time>2011-05-15T08:35:28Z</time>
      </trkpt>
      <trkpt lat="45.27379" lon="5.75558">
        <ele>1051.6085205078</ele>
        <time>2011-05-15T08:35:34Z</time>
      </trkpt>
      <trkpt lat="45.27383" lon="5.75559">
        <ele>1051.3404541016</ele>
        <time>2011-05-15T08:35:40Z</time>
      </trkpt>
      <trkpt lat="45.27386" lon="5.7556">
        <ele>1051.1199951172</ele>
        <time>2011-05-15T08:35:43Z</time>
      </trkpt>
      <trkpt lat="45.27395" lon="5.75552">
        <ele>1053.0926513672</ele>
        <time>2011-05-15T08:35:49Z</time>
      </trkpt>
      <trkpt lat="45.27398" lon="5.7555">
        <ele>1054.1165771484</ele>
        <time>2011-05-15T08:35:51Z</time>
      </trkpt>
      <trkpt lat="45.27402" lon="5.75542">
        <ele>1056.2662353516</ele>
        <time>2011-05-15T08:35:59Z</time>
      </trkpt>
      <trkpt lat="45.274" lon="5.75538">
        <ele>1056.8532714844</ele>
        <time>2011-05-15T08:36:02Z</time>
      </trkpt>
      <trkpt lat="45.27398" lon="5.75533">
        <ele>1057.5767822266</ele>
        <time>2011-05-15T08:36:07Z</time>
      </trkpt>
      <trkpt lat="45.27394" lon="5.7553">
        <ele>1057.8643798828</ele>
        <time>2011-05-15T08:36:12Z</time>
      </trkpt>
      <trkpt lat="45.2739" lon="5.75527">
        <ele>1058.0064697266</ele>
        <time>2011-05-15T08:36:16Z</time>
      </trkpt>
      <trkpt lat="45.27382" lon="5.75519">
        <ele>1055.7701416016</ele>
        <time>2011-05-15T08:36:24Z</time>
      </trkpt>
      <trkpt lat="45.27379" lon="5.75509">
        <ele>1054.8043212891</ele>
        <time>2011-05-15T08:36:31Z</time>
      </trkpt>
      <trkpt lat="45.27375" lon="5.75503">
        <ele>1054.0441894531</ele>
        <time>2011-05-15T08:36:35Z</time>
      </trkpt>
      <trkpt lat="45.27376" lon="5.75495">
        <ele>1054.4410400391</ele>
        <time>2011-05-15T08:36:39Z</time>
      </trkpt>
      <trkpt lat="45.27374" lon="5.75489">
        <ele>1054.4205322266</ele>
        <time>2011-05-15T08:36:42Z</time>
      </trkpt>
      <trkpt lat="45.27378" lon="5.75476">
        <ele>1056.0588378906</ele>
        <time>2011-05-15T08:36:48Z</time>
      </trkpt>
      <trkpt lat="45.27382" lon="5.75472">
        <ele>1057.3491210938</ele>
        <time>2011-05-15T08:36:52Z</time>
      </trkpt>
      <trkpt lat="45.27391" lon="5.75476">
        <ele>1059.2327880859</ele>
        <time>2011-05-15T08:36:59Z</time>
      </trkpt>
      <trkpt lat="45.27402" lon="5.75477">
        <ele>1061.0565185547</ele>
        <time>2011-05-15T08:37:06Z</time>
      </trkpt>
      <trkpt lat="45.27403" lon="5.75478">
        <ele>1061.279296875</ele>
        <time>2011-05-15T08:37:07Z</time>
      </trkpt>
      <trkpt lat="45.27411" lon="5.75478">
        <ele>1062.6484375</ele>
        <time>2011-05-15T08:37:13Z</time>
      </trkpt>
      <trkpt lat="45.27421" lon="5.7548">
        <ele>1064.4185791016</ele>
        <time>2011-05-15T08:37:20Z</time>
      </trkpt>
      <trkpt lat="45.27433" lon="5.75485">
        <ele>1066.1007080078</ele>
        <time>2011-05-15T08:37:27Z</time>
      </trkpt>
      <trkpt lat="45.27446" lon="5.75491">
        <ele>1068.298828125</ele>
        <time>2011-05-15T08:37:34Z</time>
      </trkpt>
      <trkpt lat="45.27458" lon="5.75496">
        <ele>1070.001953125</ele>
        <time>2011-05-15T08:37:40Z</time>
      </trkpt>
      <trkpt lat="45.27472" lon="5.75499">
        <ele>1071.9368896484</ele>
        <time>2011-05-15T08:37:47Z</time>
      </trkpt>
      <trkpt lat="45.27475" lon="5.75499">
        <ele>1072.4708251953</ele>
        <time>2011-05-15T08:37:49Z</time>
      </trkpt>
      <trkpt lat="45.27482" lon="5.75493">
        <ele>1073.5948486328</ele>
        <time>2011-05-15T08:37:53Z</time>
      </trkpt>
      <trkpt lat="45.27498" lon="5.75474">
        <ele>1075.7634277344</ele>
        <time>2011-05-15T08:38:01Z</time>
      </trkpt>
      <trkpt lat="45.27505" lon="5.75462">
        <ele>1076.8005371094</ele>
        <time>2011-05-15T08:38:05Z</time>
      </trkpt>
      <trkpt lat="45.27507" lon="5.75452">
        <ele>1077.1968994141</ele>
        <time>2011-05-15T08:38:09Z</time>
      </trkpt>
      <trkpt lat="45.27507" lon="5.75452">
        <ele>1077.1965332031</ele>
        <time>2011-05-15T08:38:11Z</time>
      </trkpt>
      <trkpt lat="45.27499" lon="5.75431">
        <ele>1075.8253173828</ele>
        <time>2011-05-15T08:38:35Z</time>
      </trkpt>
      <trkpt lat="45.2748" lon="5.75414">
        <ele>1074.0718994141</ele>
        <time>2011-05-15T08:38:41Z</time>
      </trkpt>
      <trkpt lat="45.27464" lon="5.75395">
        <ele>1074.1331787109</ele>
        <time>2011-05-15T08:38:47Z</time>
      </trkpt>
      <trkpt lat="45.27441" lon="5.75377">
        <ele>1073.3753662109</ele>
        <time>2011-05-15T08:38:54Z</time>
      </trkpt>
      <trkpt lat="45.27422" lon="5.75363">
        <ele>1072.6181640625</ele>
        <time>2011-05-15T08:39:01Z</time>
      </trkpt>
      <trkpt lat="45.27407" lon="5.75348">
        <ele>1071.2821044922</ele>
        <time>2011-05-15T08:39:07Z</time>
      </trkpt>
      <trkpt lat="45.27393" lon="5.7533">
        <ele>1071.0360107422</ele>
        <time>2011-05-15T08:39:13Z</time>
      </trkpt>
      <trkpt lat="45.27375" lon="5.75305">
        <ele>1072.0865478516</ele>
        <time>2011-05-15T08:39:20Z</time>
      </trkpt>
      <trkpt lat="45.27359" lon="5.75278">
        <ele>1073.693359375</ele>
        <time>2011-05-15T08:39:27Z</time>
      </trkpt>
      <trkpt lat="45.27346" lon="5.75257">
        <ele>1074.7026367188</ele>
        <time>2011-05-15T08:39:33Z</time>
      </trkpt>
      <trkpt lat="45.27329" lon="5.75232">
        <ele>1074.5837402344</ele>
        <time>2011-05-15T08:39:40Z</time>
      </trkpt>
      <trkpt lat="45.27314" lon="5.75219">
        <ele>1072.4504394531</ele>
        <time>2011-05-15T08:39:45Z</time>
      </trkpt>
      <trkpt lat="45.27287" lon="5.75197">
        <ele>1068.9188232422</ele>
        <time>2011-05-15T08:39:53Z</time>
      </trkpt>
      <trkpt lat="45.27267" lon="5.75181">
        <ele>1065.9451904297</ele>
        <time>2011-05-15T08:39:59Z</time>
      </trkpt>
      <trkpt lat="45.27247" lon="5.75173">
        <ele>1061.8546142578</ele>
        <time>2011-05-15T08:40:05Z</time>
      </trkpt>
      <trkpt lat="45.2723" lon="5.7517">
        <ele>1056.2125244141</ele>
        <time>2011-05-15T08:40:10Z</time>
      </trkpt>
      <trkpt lat="45.27216" lon="5.75169">
        <ele>1051.6827392578</ele>
        <time>2011-05-15T08:40:14Z</time>
      </trkpt>
      <trkpt lat="45.27201" lon="5.75161">
        <ele>1047.3482666016</ele>
        <time>2011-05-15T08:40:19Z</time>
      </trkpt>
      <trkpt lat="45.2719" lon="5.75148">
        <ele>1044.2633056641</ele>
        <time>2011-05-15T08:40:23Z</time>
      </trkpt>
      <trkpt lat="45.27177" lon="5.75136">
        <ele>1042.0991210938</ele>
        <time>2011-05-15T08:40:27Z</time>
      </trkpt>
      <trkpt lat="45.27162" lon="5.75125">
        <ele>1038.5164794922</ele>
        <time>2011-05-15T08:40:32Z</time>
      </trkpt>
      <trkpt lat="45.27143" lon="5.75109">
        <ele>1031.6176757812</ele>
        <time>2011-05-15T08:40:38Z</time>
      </trkpt>
      <trkpt lat="45.27127" lon="5.7509">
        <ele>1030.6110839844</ele>
        <time>2011-05-15T08:40:44Z</time>
      </trkpt>
      <trkpt lat="45.27106" lon="5.75066">
        <ele>1027.3026123047</ele>
        <time>2011-05-15T08:40:51Z</time>
      </trkpt>
      <trkpt lat="45.27092" lon="5.7505">
        <ele>1024.6967773438</ele>
        <time>2011-05-15T08:40:56Z</time>
      </trkpt>
      <trkpt lat="45.27078" lon="5.75041">
        <ele>1022.0231933594</ele>
        <time>2011-05-15T08:41:01Z</time>
      </trkpt>
      <trkpt lat="45.27062" lon="5.75038">
        <ele>1017.4525146484</ele>
        <time>2011-05-15T08:41:06Z</time>
      </trkpt>
      <trkpt lat="45.27045" lon="5.75036">
        <ele>1012.7470092773</ele>
        <time>2011-05-15T08:41:12Z</time>
      </trkpt>
      <trkpt lat="45.27029" lon="5.75029">
        <ele>1010.0999755859</ele>
        <time>2011-05-15T08:41:17Z</time>
      </trkpt>
      <trkpt lat="45.27011" lon="5.75024">
        <ele>1004.7925415039</ele>
        <time>2011-05-15T08:41:22Z</time>
      </trkpt>
      <trkpt lat="45.27001" lon="5.75019">
        <ele>1002.2849121094</ele>
        <time>2011-05-15T08:41:25Z</time>
      </trkpt>
      <trkpt lat="45.27001" lon="5.75019">
        <ele>1002.2849121094</ele>
        <time>2011-05-15T08:41:25Z</time>
      </trkpt>
      <trkpt lat="45.26997" lon="5.75018">
        <ele>1001.6988525391</ele>
        <time>2011-05-15T08:41:26Z</time>
      </trkpt>
      <trkpt lat="45.26981" lon="5.75008">
        <ele>1001.4482421875</ele>
        <time>2011-05-15T08:41:31Z</time>
      </trkpt>
      <trkpt lat="45.26969" lon="5.75001">
        <ele>1001.2208862305</ele>
        <time>2011-05-15T08:41:35Z</time>
      </trkpt>
      <trkpt lat="45.26954" lon="5.75005">
        <ele>998.05810546875</ele>
        <time>2011-05-15T08:41:39Z</time>
      </trkpt>
      <trkpt lat="45.26936" lon="5.75006">
        <ele>994.59442138672</ele>
        <time>2011-05-15T08:41:44Z</time>
      </trkpt>
      <trkpt lat="45.26923" lon="5.75004">
        <ele>992.47912597656</ele>
        <time>2011-05-15T08:41:48Z</time>
      </trkpt>
      <trkpt lat="45.26915" lon="5.75006">
        <ele>989.80865478516</ele>
        <time>2011-05-15T08:41:51Z</time>
      </trkpt>
      <trkpt lat="45.26902" lon="5.75026">
        <ele>982.97045898438</ele>
        <time>2011-05-15T08:41:57Z</time>
      </trkpt>
      <trkpt lat="45.26896" lon="5.75041">
        <ele>976.18499755859</ele>
        <time>2011-05-15T08:42:01Z</time>
      </trkpt>
      <trkpt lat="45.26883" lon="5.75049">
        <ele>969.14501953125</ele>
        <time>2011-05-15T08:42:06Z</time>
      </trkpt>
      <trkpt lat="45.26875" lon="5.75058">
        <ele>967.23773193359</ele>
        <time>2011-05-15T08:42:10Z</time>
      </trkpt>
      <trkpt lat="45.26856" lon="5.75082">
        <ele>960.00970458984</ele>
        <time>2011-05-15T08:42:18Z</time>
      </trkpt>
      <trkpt lat="45.26851" lon="5.75089">
        <ele>956.99011230469</ele>
        <time>2011-05-15T08:42:21Z</time>
      </trkpt>
      <trkpt lat="45.2684" lon="5.75094">
        <ele>953.07281494141</ele>
        <time>2011-05-15T08:42:26Z</time>
      </trkpt>
      <trkpt lat="45.26839" lon="5.75093">
        <ele>952.84448242188</ele>
        <time>2011-05-15T08:42:27Z</time>
      </trkpt>
      <trkpt lat="45.26836" lon="5.75089">
        <ele>953.34918212891</ele>
        <time>2011-05-15T08:42:29Z</time>
      </trkpt>
      <trkpt lat="45.26834" lon="5.75068">
        <ele>953.93048095703</ele>
        <time>2011-05-15T08:42:34Z</time>
      </trkpt>
      <trkpt lat="45.26833" lon="5.75059">
        <ele>952.67669677734</ele>
        <time>2011-05-15T08:42:36Z</time>
      </trkpt>
      <trkpt lat="45.26828" lon="5.75033">
        <ele>949.67169189453</ele>
        <time>2011-05-15T08:42:41Z</time>
      </trkpt>
      <trkpt lat="45.26824" lon="5.75014">
        <ele>947.40515136719</ele>
        <time>2011-05-15T08:42:45Z</time>
      </trkpt>
      <trkpt lat="45.26818" lon="5.74993">
        <ele>942.54064941406</ele>
        <time>2011-05-15T08:42:50Z</time>
      </trkpt>
      <trkpt lat="45.26813" lon="5.74981">
        <ele>939.14111328125</ele>
        <time>2011-05-15T08:42:54Z</time>
      </trkpt>
      <trkpt lat="45.26812" lon="5.7498">
        <ele>938.43701171875</ele>
        <time>2011-05-15T08:42:55Z</time>
      </trkpt>
      <trkpt lat="45.26808" lon="5.74955">
        <ele>934.70855712891</ele>
        <time>2011-05-15T08:43:01Z</time>
      </trkpt>
      <trkpt lat="45.26802" lon="5.74935">
        <ele>930.0693359375</ele>
        <time>2011-05-15T08:43:06Z</time>
      </trkpt>
      <trkpt lat="45.26799" lon="5.74926">
        <ele>928.52661132812</ele>
        <time>2011-05-15T08:43:10Z</time>
      </trkpt>
      <trkpt lat="45.26799" lon="5.74923">
        <ele>928.50225830078</ele>
        <time>2011-05-15T08:43:12Z</time>
      </trkpt>
      <trkpt lat="45.26803" lon="5.74915">
        <ele>930.20892333984</ele>
        <time>2011-05-15T08:43:17Z</time>
      </trkpt>
      <trkpt lat="45.26804" lon="5.74899">
        <ele>928.71539306641</ele>
        <time>2011-05-15T08:43:23Z</time>
      </trkpt>
      <trkpt lat="45.26799" lon="5.74885">
        <ele>922.84539794922</ele>
        <time>2011-05-15T08:43:27Z</time>
      </trkpt>
      <trkpt lat="45.26797" lon="5.7487">
        <ele>918.12615966797</ele>
        <time>2011-05-15T08:43:31Z</time>
      </trkpt>
      <trkpt lat="45.26798" lon="5.74848">
        <ele>914.64996337891</ele>
        <time>2011-05-15T08:43:38Z</time>
      </trkpt>
      <trkpt lat="45.26797" lon="5.7484">
        <ele>912.61651611328</ele>
        <time>2011-05-15T08:43:41Z</time>
      </trkpt>
      <trkpt lat="45.26797" lon="5.74821">
        <ele>909.36499023438</ele>
        <time>2011-05-15T08:43:47Z</time>
      </trkpt>
      <trkpt lat="45.26796" lon="5.74816">
        <ele>907.49798583984</ele>
        <time>2011-05-15T08:43:49Z</time>
      </trkpt>
      <trkpt lat="45.2679" lon="5.74799">
        <ele>900.17236328125</ele>
        <time>2011-05-15T08:43:55Z</time>
      </trkpt>
      <trkpt lat="45.26791" lon="5.74772">
        <ele>894.23760986328</ele>
        <time>2011-05-15T08:44:01Z</time>
      </trkpt>
      <trkpt lat="45.26791" lon="5.74748">
        <ele>888.76110839844</ele>
        <time>2011-05-15T08:44:06Z</time>
      </trkpt>
      <trkpt lat="45.26791" lon="5.74728">
        <ele>884.58630371094</ele>
        <time>2011-05-15T08:44:10Z</time>
      </trkpt>
      <trkpt lat="45.26799" lon="5.74702">
        <ele>881.23297119141</ele>
        <time>2011-05-15T08:44:15Z</time>
      </trkpt>
      <trkpt lat="45.26808" lon="5.74668">
        <ele>877.25415039062</ele>
        <time>2011-05-15T08:44:23Z</time>
      </trkpt>
      <trkpt lat="45.26815" lon="5.74651">
        <ele>874.21319580078</ele>
        <time>2011-05-15T08:44:27Z</time>
      </trkpt>
      <trkpt lat="45.26818" lon="5.7463">
        <ele>869.03924560547</ele>
        <time>2011-05-15T08:44:32Z</time>
      </trkpt>
      <trkpt lat="45.26821" lon="5.74607">
        <ele>863.11639404297</ele>
        <time>2011-05-15T08:44:37Z</time>
      </trkpt>
      <trkpt lat="45.26819" lon="5.74583">
        <ele>855.43127441406</ele>
        <time>2011-05-15T08:44:42Z</time>
      </trkpt>
      <trkpt lat="45.26824" lon="5.74566">
        <ele>852.76763916016</ele>
        <time>2011-05-15T08:44:46Z</time>
      </trkpt>
      <trkpt lat="45.26834" lon="5.74553">
        <ele>852.40270996094</ele>
        <time>2011-05-15T08:44:50Z</time>
      </trkpt>
      <trkpt lat="45.26837" lon="5.74545">
        <ele>850.40777587891</ele>
        <time>2011-05-15T08:44:54Z</time>
      </trkpt>
      <trkpt lat="45.26834" lon="5.7453">
        <ele>845.77581787109</ele>
        <time>2011-05-15T08:44:59Z</time>
      </trkpt>
      <trkpt lat="45.26828" lon="5.74515">
        <ele>839.63153076172</ele>
        <time>2011-05-15T08:45:03Z</time>
      </trkpt>
      <trkpt lat="45.26822" lon="5.74505">
        <ele>834.60327148438</ele>
        <time>2011-05-15T08:45:07Z</time>
      </trkpt>
      <trkpt lat="45.26818" lon="5.74499">
        <ele>831.81567382812</ele>
        <time>2011-05-15T08:45:09Z</time>
      </trkpt>
      <trkpt lat="45.26806" lon="5.74485">
        <ele>826.45690917969</ele>
        <time>2011-05-15T08:45:14Z</time>
      </trkpt>
      <trkpt lat="45.26794" lon="5.74478">
        <ele>821.11340332031</ele>
        <time>2011-05-15T08:45:18Z</time>
      </trkpt>
      <trkpt lat="45.26786" lon="5.74473">
        <ele>816.62866210938</ele>
        <time>2011-05-15T08:45:22Z</time>
      </trkpt>
      <trkpt lat="45.26773" lon="5.74468">
        <ele>811.47888183594</ele>
        <time>2011-05-15T08:45:27Z</time>
      </trkpt>
      <trkpt lat="45.26759" lon="5.74458">
        <ele>806.99957275391</ele>
        <time>2011-05-15T08:45:32Z</time>
      </trkpt>
      <trkpt lat="45.26744" lon="5.74447">
        <ele>800.64794921875</ele>
        <time>2011-05-15T08:45:38Z</time>
      </trkpt>
      <trkpt lat="45.26734" lon="5.74438">
        <ele>795.20880126953</ele>
        <time>2011-05-15T08:45:42Z</time>
      </trkpt>
      <trkpt lat="45.2673" lon="5.74434">
        <ele>793.23669433594</ele>
        <time>2011-05-15T08:45:44Z</time>
      </trkpt>
      <trkpt lat="45.26722" lon="5.74422">
        <ele>790.04656982422</ele>
        <time>2011-05-15T08:45:49Z</time>
      </trkpt>
      <trkpt lat="45.26716" lon="5.74416">
        <ele>787.49688720703</ele>
        <time>2011-05-15T08:45:51Z</time>
      </trkpt>
      <trkpt lat="45.26706" lon="5.74401">
        <ele>783.03790283203</ele>
        <time>2011-05-15T08:45:56Z</time>
      </trkpt>
      <trkpt lat="45.267" lon="5.74381">
        <ele>780.17944335938</ele>
        <time>2011-05-15T08:46:02Z</time>
      </trkpt>
      <trkpt lat="45.26686" lon="5.74371">
        <ele>777.73620605469</ele>
        <time>2011-05-15T08:46:06Z</time>
      </trkpt>
      <trkpt lat="45.26673" lon="5.74353">
        <ele>774.81604003906</ele>
        <time>2011-05-15T08:46:12Z</time>
      </trkpt>
      <trkpt lat="45.26665" lon="5.74339">
        <ele>772.85400390625</ele>
        <time>2011-05-15T08:46:17Z</time>
      </trkpt>
      <trkpt lat="45.26659" lon="5.7431">
        <ele>768.71063232422</ele>
        <time>2011-05-15T08:46:23Z</time>
      </trkpt>
      <trkpt lat="45.26654" lon="5.74288">
        <ele>764.16314697266</ele>
        <time>2011-05-15T08:46:28Z</time>
      </trkpt>
      <trkpt lat="45.26643" lon="5.74262">
        <ele>757.58459472656</ele>
        <time>2011-05-15T08:46:33Z</time>
      </trkpt>
      <trkpt lat="45.26636" lon="5.74244">
        <ele>755.23333740234</ele>
        <time>2011-05-15T08:46:37Z</time>
      </trkpt>
      <trkpt lat="45.26634" lon="5.74242">
        <ele>754.70446777344</ele>
        <time>2011-05-15T08:46:38Z</time>
      </trkpt>
      <trkpt lat="45.26634" lon="5.74242">
        <ele>754.70446777344</ele>
        <time>2011-05-15T08:46:38Z</time>
      </trkpt>
      <trkpt lat="45.26625" lon="5.74227">
        <ele>750.31481933594</ele>
        <time>2011-05-15T08:46:42Z</time>
      </trkpt>
      <trkpt lat="45.26612" lon="5.74214">
        <ele>745.03192138672</ele>
        <time>2011-05-15T08:46:47Z</time>
      </trkpt>
      <trkpt lat="45.26596" lon="5.74203">
        <ele>743.11181640625</ele>
        <time>2011-05-15T08:46:52Z</time>
      </trkpt>
      <trkpt lat="45.26575" lon="5.7419">
        <ele>735.10662841797</ele>
        <time>2011-05-15T08:46:58Z</time>
      </trkpt>
      <trkpt lat="45.26562" lon="5.74173">
        <ele>731.69091796875</ele>
        <time>2011-05-15T08:47:03Z</time>
      </trkpt>
      <trkpt lat="45.26558" lon="5.74153">
        <ele>732.55920410156</ele>
        <time>2011-05-15T08:47:08Z</time>
      </trkpt>
      <trkpt lat="45.2656" lon="5.74131">
        <ele>731.25994873047</ele>
        <time>2011-05-15T08:47:13Z</time>
      </trkpt>
      <trkpt lat="45.26564" lon="5.74113">
        <ele>725.86877441406</ele>
        <time>2011-05-15T08:47:17Z</time>
      </trkpt>
      <trkpt lat="45.26568" lon="5.74094">
        <ele>727.15161132812</ele>
        <time>2011-05-15T08:47:21Z</time>
      </trkpt>
      <trkpt lat="45.26572" lon="5.74068">
        <ele>725.76733398438</ele>
        <time>2011-05-15T08:47:26Z</time>
      </trkpt>
      <trkpt lat="45.26579" lon="5.74054">
        <ele>723.71630859375</ele>
        <time>2011-05-15T08:47:30Z</time>
      </trkpt>
      <trkpt lat="45.2659" lon="5.74037">
        <ele>721.79846191406</ele>
        <time>2011-05-15T08:47:35Z</time>
      </trkpt>
      <trkpt lat="45.26601" lon="5.74024">
        <ele>721.24951171875</ele>
        <time>2011-05-15T08:47:40Z</time>
      </trkpt>
      <trkpt lat="45.26611" lon="5.74012">
        <ele>720.21301269531</ele>
        <time>2011-05-15T08:47:44Z</time>
      </trkpt>
      <trkpt lat="45.26606" lon="5.74">
        <ele>717.52081298828</ele>
        <time>2011-05-15T08:47:48Z</time>
      </trkpt>
      <trkpt lat="45.266" lon="5.73981">
        <ele>711.17584228516</ele>
        <time>2011-05-15T08:47:53Z</time>
      </trkpt>
      <trkpt lat="45.26596" lon="5.73958">
        <ele>705.01226806641</ele>
        <time>2011-05-15T08:47:58Z</time>
      </trkpt>
      <trkpt lat="45.266" lon="5.7394">
        <ele>700.75433349609</ele>
        <time>2011-05-15T08:48:02Z</time>
      </trkpt>
      <trkpt lat="45.26601" lon="5.73931">
        <ele>698.93011474609</ele>
        <time>2011-05-15T08:48:04Z</time>
      </trkpt>
      <trkpt lat="45.26604" lon="5.73923">
        <ele>697.47082519531</ele>
        <time>2011-05-15T08:48:07Z</time>
      </trkpt>
      <trkpt lat="45.26612" lon="5.73902">
        <ele>695.91882324219</ele>
        <time>2011-05-15T08:48:13Z</time>
      </trkpt>
      <trkpt lat="45.26625" lon="5.73886">
        <ele>693.70330810547</ele>
        <time>2011-05-15T08:48:18Z</time>
      </trkpt>
      <trkpt lat="45.26628" lon="5.73875">
        <ele>692.85540771484</ele>
        <time>2011-05-15T08:48:21Z</time>
      </trkpt>
      <trkpt lat="45.26619" lon="5.73857">
        <ele>688.80145263672</ele>
        <time>2011-05-15T08:48:26Z</time>
      </trkpt>
      <trkpt lat="45.26609" lon="5.73851">
        <ele>685.98693847656</ele>
        <time>2011-05-15T08:48:31Z</time>
      </trkpt>
      <trkpt lat="45.26603" lon="5.73837">
        <ele>683.57446289062</ele>
        <time>2011-05-15T08:48:36Z</time>
      </trkpt>
      <trkpt lat="45.26599" lon="5.73826">
        <ele>683.10290527344</ele>
        <time>2011-05-15T08:48:38Z</time>
      </trkpt>
      <trkpt lat="45.26585" lon="5.73803">
        <ele>681.68737792969</ele>
        <time>2011-05-15T08:48:44Z</time>
      </trkpt>
      <trkpt lat="45.26577" lon="5.73787">
        <ele>681.43145751953</ele>
        <time>2011-05-15T08:48:48Z</time>
      </trkpt>
      <trkpt lat="45.26564" lon="5.73768">
        <ele>680.94012451172</ele>
        <time>2011-05-15T08:48:54Z</time>
      </trkpt>
      <trkpt lat="45.2655" lon="5.73752">
        <ele>677.72631835938</ele>
        <time>2011-05-15T08:49:00Z</time>
      </trkpt>
      <trkpt lat="45.26534" lon="5.73743">
        <ele>676.09289550781</ele>
        <time>2011-05-15T08:49:05Z</time>
      </trkpt>
      <trkpt lat="45.26521" lon="5.73734">
        <ele>675.84478759766</ele>
        <time>2011-05-15T08:49:10Z</time>
      </trkpt>
      <trkpt lat="45.26503" lon="5.73716">
        <ele>675.32574462891</ele>
        <time>2011-05-15T08:49:16Z</time>
      </trkpt>
      <trkpt lat="45.26492" lon="5.73705">
        <ele>675.19146728516</ele>
        <time>2011-05-15T08:49:21Z</time>
      </trkpt>
      <trkpt lat="45.26482" lon="5.73691">
        <ele>676.65972900391</ele>
        <time>2011-05-15T08:49:27Z</time>
      </trkpt>
      <trkpt lat="45.26472" lon="5.7368">
        <ele>677.23309326172</ele>
        <time>2011-05-15T08:49:31Z</time>
      </trkpt>
      <trkpt lat="45.26458" lon="5.73671">
        <ele>676.29681396484</ele>
        <time>2011-05-15T08:49:36Z</time>
      </trkpt>
      <trkpt lat="45.26442" lon="5.73669">
        <ele>673.46557617188</ele>
        <time>2011-05-15T08:49:41Z</time>
      </trkpt>
      <trkpt lat="45.26429" lon="5.7366">
        <ele>672.25256347656</ele>
        <time>2011-05-15T08:49:46Z</time>
      </trkpt>
      <trkpt lat="45.26414" lon="5.73634">
        <ele>673.15051269531</ele>
        <time>2011-05-15T08:49:54Z</time>
      </trkpt>
      <trkpt lat="45.26408" lon="5.73609">
        <ele>676.06091308594</ele>
        <time>2011-05-15T08:50:00Z</time>
      </trkpt>
      <trkpt lat="45.26401" lon="5.73594">
        <ele>677.17327880859</ele>
        <time>2011-05-15T08:50:05Z</time>
      </trkpt>
      <trkpt lat="45.26387" lon="5.73577">
        <ele>678.42993164062</ele>
        <time>2011-05-15T08:50:11Z</time>
      </trkpt>
      <trkpt lat="45.26372" lon="5.73564">
        <ele>679.36376953125</ele>
        <time>2011-05-15T08:50:16Z</time>
      </trkpt>
      <trkpt lat="45.26355" lon="5.73557">
        <ele>678.85205078125</ele>
        <time>2011-05-15T08:50:21Z</time>
      </trkpt>
      <trkpt lat="45.26338" lon="5.73556">
        <ele>677.32104492188</ele>
        <time>2011-05-15T08:50:27Z</time>
      </trkpt>
      <trkpt lat="45.26323" lon="5.73553">
        <ele>676.10498046875</ele>
        <time>2011-05-15T08:50:32Z</time>
      </trkpt>
      <trkpt lat="45.26306" lon="5.73551">
        <ele>674.38439941406</ele>
        <time>2011-05-15T08:50:37Z</time>
      </trkpt>
      <trkpt lat="45.26291" lon="5.73547">
        <ele>674.03991699219</ele>
        <time>2011-05-15T08:50:42Z</time>
      </trkpt>
      <trkpt lat="45.26274" lon="5.73541">
        <ele>673.60076904297</ele>
        <time>2011-05-15T08:50:48Z</time>
      </trkpt>
      <trkpt lat="45.26257" lon="5.73534">
        <ele>673.13061523438</ele>
        <time>2011-05-15T08:50:55Z</time>
      </trkpt>
      <trkpt lat="45.26242" lon="5.73528">
        <ele>673.31512451172</ele>
        <time>2011-05-15T08:51:01Z</time>
      </trkpt>
      <trkpt lat="45.26223" lon="5.73519">
        <ele>673.67010498047</ele>
        <time>2011-05-15T08:51:08Z</time>
      </trkpt>
      <trkpt lat="45.26209" lon="5.73509">
        <ele>673.19525146484</ele>
        <time>2011-05-15T08:51:13Z</time>
      </trkpt>
      <trkpt lat="45.26192" lon="5.73498">
        <ele>673.19409179688</ele>
        <time>2011-05-15T08:51:19Z</time>
      </trkpt>
      <trkpt lat="45.26175" lon="5.73482">
        <ele>674.12451171875</ele>
        <time>2011-05-15T08:51:25Z</time>
      </trkpt>
      <trkpt lat="45.26164" lon="5.7347">
        <ele>674.63043212891</ele>
        <time>2011-05-15T08:51:29Z</time>
      </trkpt>
      <trkpt lat="45.26164" lon="5.7347">
        <ele>674.63043212891</ele>
        <time>2011-05-15T08:51:29Z</time>
      </trkpt>
      <trkpt lat="45.26159" lon="5.73464">
        <ele>674.19097900391</ele>
        <time>2011-05-15T08:51:31Z</time>
      </trkpt>
      <trkpt lat="45.26143" lon="5.73443">
        <ele>673.45837402344</ele>
        <time>2011-05-15T08:51:37Z</time>
      </trkpt>
      <trkpt lat="45.26129" lon="5.73427">
        <ele>673.32214355469</ele>
        <time>2011-05-15T08:51:42Z</time>
      </trkpt>
      <trkpt lat="45.26111" lon="5.73409">
        <ele>671.78796386719</ele>
        <time>2011-05-15T08:51:48Z</time>
      </trkpt>
      <trkpt lat="45.26096" lon="5.73395">
        <ele>669.83996582031</ele>
        <time>2011-05-15T08:51:53Z</time>
      </trkpt>
      <trkpt lat="45.26077" lon="5.73386">
        <ele>667.38275146484</ele>
        <time>2011-05-15T08:51:58Z</time>
      </trkpt>
      <trkpt lat="45.26061" lon="5.73381">
        <ele>664.77685546875</ele>
        <time>2011-05-15T08:52:03Z</time>
      </trkpt>
      <trkpt lat="45.26043" lon="5.7337">
        <ele>662.24188232422</ele>
        <time>2011-05-15T08:52:09Z</time>
      </trkpt>
      <trkpt lat="45.2603" lon="5.73347">
        <ele>665.939453125</ele>
        <time>2011-05-15T08:52:14Z</time>
      </trkpt>
      <trkpt lat="45.26022" lon="5.73325">
        <ele>668.15167236328</ele>
        <time>2011-05-15T08:52:19Z</time>
      </trkpt>
      <trkpt lat="45.26013" lon="5.73302">
        <ele>670.88519287109</ele>
        <time>2011-05-15T08:52:25Z</time>
      </trkpt>
      <trkpt lat="45.26003" lon="5.7328">
        <ele>673.02465820312</ele>
        <time>2011-05-15T08:52:32Z</time>
      </trkpt>
      <trkpt lat="45.25993" lon="5.73259">
        <ele>674.8427734375</ele>
        <time>2011-05-15T08:52:38Z</time>
      </trkpt>
      <trkpt lat="45.25982" lon="5.73237">
        <ele>676.29632568359</ele>
        <time>2011-05-15T08:52:45Z</time>
      </trkpt>
      <trkpt lat="45.25972" lon="5.73214">
        <ele>677.63092041016</ele>
        <time>2011-05-15T08:52:52Z</time>
      </trkpt>
      <trkpt lat="45.25959" lon="5.73187">
        <ele>678.32354736328</ele>
        <time>2011-05-15T08:53:00Z</time>
      </trkpt>
      <trkpt lat="45.25946" lon="5.73167">
        <ele>678.21691894531</ele>
        <time>2011-05-15T08:53:07Z</time>
      </trkpt>
      <trkpt lat="45.25933" lon="5.7315">
        <ele>680.052734375</ele>
        <time>2011-05-15T08:53:13Z</time>
      </trkpt>
      <trkpt lat="45.25917" lon="5.73134">
        <ele>679.06091308594</ele>
        <time>2011-05-15T08:53:19Z</time>
      </trkpt>
      <trkpt lat="45.25913" lon="5.73132">
        <ele>678.23229980469</ele>
        <time>2011-05-15T08:53:23Z</time>
      </trkpt>
      <trkpt lat="45.25892" lon="5.73107">
        <ele>677.41479492188</ele>
        <time>2011-05-15T08:53:36Z</time>
      </trkpt>
      <trkpt lat="45.25874" lon="5.73092">
        <ele>675.72222900391</ele>
        <time>2011-05-15T08:53:42Z</time>
      </trkpt>
      <trkpt lat="45.25852" lon="5.73076">
        <ele>674.6787109375</ele>
        <time>2011-05-15T08:53:48Z</time>
      </trkpt>
      <trkpt lat="45.25834" lon="5.73067">
        <ele>674.20495605469</ele>
        <time>2011-05-15T08:53:53Z</time>
      </trkpt>
      <trkpt lat="45.25812" lon="5.73055">
        <ele>670.14978027344</ele>
        <time>2011-05-15T08:53:59Z</time>
      </trkpt>
      <trkpt lat="45.25797" lon="5.73047">
        <ele>670.37158203125</ele>
        <time>2011-05-15T08:54:04Z</time>
      </trkpt>
      <trkpt lat="45.25777" lon="5.73033">
        <ele>666.84338378906</ele>
        <time>2011-05-15T08:54:10Z</time>
      </trkpt>
      <trkpt lat="45.25758" lon="5.73018">
        <ele>666.09771728516</ele>
        <time>2011-05-15T08:54:16Z</time>
      </trkpt>
      <trkpt lat="45.25741" lon="5.73002">
        <ele>664.62200927734</ele>
        <time>2011-05-15T08:54:22Z</time>
      </trkpt>
      <trkpt lat="45.25724" lon="5.72986">
        <ele>665.05114746094</ele>
        <time>2011-05-15T08:54:28Z</time>
      </trkpt>
      <trkpt lat="45.25711" lon="5.72972">
        <ele>667.20794677734</ele>
        <time>2011-05-15T08:54:34Z</time>
      </trkpt>
      <trkpt lat="45.25697" lon="5.72956">
        <ele>668.35656738281</ele>
        <time>2011-05-15T08:54:40Z</time>
      </trkpt>
      <trkpt lat="45.25684" lon="5.7294">
        <ele>668.69732666016</ele>
        <time>2011-05-15T08:54:46Z</time>
      </trkpt>
      <trkpt lat="45.25668" lon="5.7292">
        <ele>670.47735595703</ele>
        <time>2011-05-15T08:54:53Z</time>
      </trkpt>
      <trkpt lat="45.25656" lon="5.72902">
        <ele>668.06896972656</ele>
        <time>2011-05-15T08:54:58Z</time>
      </trkpt>
      <trkpt lat="45.25648" lon="5.72884">
        <ele>667.37811279297</ele>
        <time>2011-05-15T08:55:03Z</time>
      </trkpt>
      <trkpt lat="45.25649" lon="5.72865">
        <ele>671.92315673828</ele>
        <time>2011-05-15T08:55:07Z</time>
      </trkpt>
      <trkpt lat="45.25648" lon="5.72843">
        <ele>674.87548828125</ele>
        <time>2011-05-15T08:55:12Z</time>
      </trkpt>
      <trkpt lat="45.25643" lon="5.72825">
        <ele>674.83325195312</ele>
        <time>2011-05-15T08:55:17Z</time>
      </trkpt>
      <trkpt lat="45.25629" lon="5.72801">
        <ele>671.84320068359</ele>
        <time>2011-05-15T08:55:23Z</time>
      </trkpt>
      <trkpt lat="45.25619" lon="5.72784">
        <ele>669.45983886719</ele>
        <time>2011-05-15T08:55:27Z</time>
      </trkpt>
      <trkpt lat="45.25605" lon="5.72761">
        <ele>665.25885009766</ele>
        <time>2011-05-15T08:55:33Z</time>
      </trkpt>
      <trkpt lat="45.25591" lon="5.7274">
        <ele>662.36413574219</ele>
        <time>2011-05-15T08:55:39Z</time>
      </trkpt>
      <trkpt lat="45.25578" lon="5.72723">
        <ele>661.12634277344</ele>
        <time>2011-05-15T08:55:44Z</time>
      </trkpt>
      <trkpt lat="45.25564" lon="5.727">
        <ele>663.962890625</ele>
        <time>2011-05-15T08:55:49Z</time>
      </trkpt>
      <trkpt lat="45.25551" lon="5.72686">
        <ele>662.53662109375</ele>
        <time>2011-05-15T08:55:54Z</time>
      </trkpt>
      <trkpt lat="45.25538" lon="5.72672">
        <ele>659.31829833984</ele>
        <time>2011-05-15T08:55:59Z</time>
      </trkpt>
      <trkpt lat="45.25526" lon="5.72655">
        <ele>656.18914794922</ele>
        <time>2011-05-15T08:56:04Z</time>
      </trkpt>
      <trkpt lat="45.25515" lon="5.72634">
        <ele>653.2412109375</ele>
        <time>2011-05-15T08:56:10Z</time>
      </trkpt>
      <trkpt lat="45.25515" lon="5.72634">
        <ele>653.2412109375</ele>
        <time>2011-05-15T08:56:10Z</time>
      </trkpt>
      <trkpt lat="45.2551" lon="5.72612">
        <ele>652.97711181641</ele>
        <time>2011-05-15T08:56:15Z</time>
      </trkpt>
      <trkpt lat="45.25508" lon="5.72589">
        <ele>653.95397949219</ele>
        <time>2011-05-15T08:56:20Z</time>
      </trkpt>
      <trkpt lat="45.25504" lon="5.7256">
        <ele>649.03106689453</ele>
        <time>2011-05-15T08:56:25Z</time>
      </trkpt>
      <trkpt lat="45.25499" lon="5.72541">
        <ele>644.66027832031</ele>
        <time>2011-05-15T08:56:29Z</time>
      </trkpt>
      <trkpt lat="45.25498" lon="5.72515">
        <ele>642.12866210938</ele>
        <time>2011-05-15T08:56:35Z</time>
      </trkpt>
      <trkpt lat="45.25497" lon="5.72511">
        <ele>641.63531494141</ele>
        <time>2011-05-15T08:56:36Z</time>
      </trkpt>
      <trkpt lat="45.25502" lon="5.72479">
        <ele>640.08306884766</ele>
        <time>2011-05-15T08:56:42Z</time>
      </trkpt>
      <trkpt lat="45.25513" lon="5.72456">
        <ele>643.57879638672</ele>
        <time>2011-05-15T08:56:48Z</time>
      </trkpt>
      <trkpt lat="45.25521" lon="5.7244">
        <ele>646.81439208984</ele>
        <time>2011-05-15T08:56:52Z</time>
      </trkpt>
      <trkpt lat="45.25528" lon="5.72421">
        <ele>645.31201171875</ele>
        <time>2011-05-15T08:56:57Z</time>
      </trkpt>
      <trkpt lat="45.25534" lon="5.72405">
        <ele>644.00335693359</ele>
        <time>2011-05-15T08:57:01Z</time>
      </trkpt>
      <trkpt lat="45.25544" lon="5.72391">
        <ele>644.19732666016</ele>
        <time>2011-05-15T08:57:06Z</time>
      </trkpt>
      <trkpt lat="45.25552" lon="5.72379">
        <ele>644.40606689453</ele>
        <time>2011-05-15T08:57:10Z</time>
      </trkpt>
      <trkpt lat="45.25561" lon="5.72365">
        <ele>645.35455322266</ele>
        <time>2011-05-15T08:57:14Z</time>
      </trkpt>
      <trkpt lat="45.25572" lon="5.72343">
        <ele>644.95025634766</ele>
        <time>2011-05-15T08:57:19Z</time>
      </trkpt>
      <trkpt lat="45.25576" lon="5.72315">
        <ele>640.30944824219</ele>
        <time>2011-05-15T08:57:24Z</time>
      </trkpt>
      <trkpt lat="45.25573" lon="5.72291">
        <ele>634.16735839844</ele>
        <time>2011-05-15T08:57:28Z</time>
      </trkpt>
      <trkpt lat="45.25563" lon="5.7225">
        <ele>621.52270507812</ele>
        <time>2011-05-15T08:57:35Z</time>
      </trkpt>
      <trkpt lat="45.25567" lon="5.72227">
        <ele>620.59747314453</ele>
        <time>2011-05-15T08:57:40Z</time>
      </trkpt>
      <trkpt lat="45.25579" lon="5.72205">
        <ele>622.76556396484</ele>
        <time>2011-05-15T08:57:47Z</time>
      </trkpt>
      <trkpt lat="45.25593" lon="5.72195">
        <ele>627.47174072266</ele>
        <time>2011-05-15T08:57:53Z</time>
      </trkpt>
      <trkpt lat="45.25605" lon="5.72188">
        <ele>631.63763427734</ele>
        <time>2011-05-15T08:57:58Z</time>
      </trkpt>
      <trkpt lat="45.25621" lon="5.72175">
        <ele>632.03442382812</ele>
        <time>2011-05-15T08:58:05Z</time>
      </trkpt>
      <trkpt lat="45.25632" lon="5.72159">
        <ele>630.98162841797</ele>
        <time>2011-05-15T08:58:10Z</time>
      </trkpt>
      <trkpt lat="45.25647" lon="5.72133">
        <ele>629.21881103516</ele>
        <time>2011-05-15T08:58:16Z</time>
      </trkpt>
      <trkpt lat="45.25663" lon="5.7212">
        <ele>629.77087402344</ele>
        <time>2011-05-15T08:58:21Z</time>
      </trkpt>
      <trkpt lat="45.25684" lon="5.72106">
        <ele>630.96252441406</ele>
        <time>2011-05-15T08:58:28Z</time>
      </trkpt>
      <trkpt lat="45.25703" lon="5.72096">
        <ele>631.47802734375</ele>
        <time>2011-05-15T08:58:34Z</time>
      </trkpt>
      <trkpt lat="45.25721" lon="5.72085">
        <ele>631.19122314453</ele>
        <time>2011-05-15T08:58:41Z</time>
      </trkpt>
      <trkpt lat="45.25734" lon="5.72078">
        <ele>631.38916015625</ele>
        <time>2011-05-15T08:58:46Z</time>
      </trkpt>
      <trkpt lat="45.25751" lon="5.72066">
        <ele>631.84442138672</ele>
        <time>2011-05-15T08:58:54Z</time>
      </trkpt>
      <trkpt lat="45.25765" lon="5.72056">
        <ele>634.86810302734</ele>
        <time>2011-05-15T08:59:00Z</time>
      </trkpt>
      <trkpt lat="45.25776" lon="5.72045">
        <ele>637.05816650391</ele>
        <time>2011-05-15T08:59:05Z</time>
      </trkpt>
      <trkpt lat="45.25785" lon="5.72034">
        <ele>637.75421142578</ele>
        <time>2011-05-15T08:59:09Z</time>
      </trkpt>
      <trkpt lat="45.25793" lon="5.72015">
        <ele>638.08526611328</ele>
        <time>2011-05-15T08:59:14Z</time>
      </trkpt>
      <trkpt lat="45.258" lon="5.71991">
        <ele>637.97601318359</ele>
        <time>2011-05-15T08:59:19Z</time>
      </trkpt>
      <trkpt lat="45.25805" lon="5.71964">
        <ele>638.21295166016</ele>
        <time>2011-05-15T08:59:24Z</time>
      </trkpt>
      <trkpt lat="45.25808" lon="5.71938">
        <ele>639.14813232422</ele>
        <time>2011-05-15T08:59:29Z</time>
      </trkpt>
      <trkpt lat="45.25814" lon="5.71925">
        <ele>640.05145263672</ele>
        <time>2011-05-15T08:59:32Z</time>
      </trkpt>
      <trkpt lat="45.25807" lon="5.71915">
        <ele>637.45227050781</ele>
        <time>2011-05-15T08:59:36Z</time>
      </trkpt>
      <trkpt lat="45.25795" lon="5.71916">
        <ele>633.59063720703</ele>
        <time>2011-05-15T08:59:39Z</time>
      </trkpt>
      <trkpt lat="45.25779" lon="5.71914">
        <ele>628.57434082031</ele>
        <time>2011-05-15T08:59:43Z</time>
      </trkpt>
      <trkpt lat="45.25769" lon="5.71903">
        <ele>625.71997070312</ele>
        <time>2011-05-15T08:59:46Z</time>
      </trkpt>
      <trkpt lat="45.25752" lon="5.71885">
        <ele>620.92852783203</ele>
        <time>2011-05-15T08:59:51Z</time>
      </trkpt>
      <trkpt lat="45.25749" lon="5.71883">
        <ele>619.96594238281</ele>
        <time>2011-05-15T08:59:52Z</time>
      </trkpt>
      <trkpt lat="45.25734" lon="5.71878">
        <ele>615.66064453125</ele>
        <time>2011-05-15T08:59:57Z</time>
      </trkpt>
      <trkpt lat="45.25719" lon="5.71869">
        <ele>611.87457275391</ele>
        <time>2011-05-15T09:00:01Z</time>
      </trkpt>
      <trkpt lat="45.25706" lon="5.71876">
        <ele>608.07659912109</ele>
        <time>2011-05-15T09:00:05Z</time>
      </trkpt>
      <trkpt lat="45.25693" lon="5.71887">
        <ele>603.69683837891</ele>
        <time>2011-05-15T09:00:09Z</time>
      </trkpt>
      <trkpt lat="45.25677" lon="5.7189">
        <ele>599.47015380859</ele>
        <time>2011-05-15T09:00:13Z</time>
      </trkpt>
      <trkpt lat="45.25661" lon="5.71877">
        <ele>596.0029296875</ele>
        <time>2011-05-15T09:00:18Z</time>
      </trkpt>
      <trkpt lat="45.25645" lon="5.71872">
        <ele>592.54052734375</ele>
        <time>2011-05-15T09:00:22Z</time>
      </trkpt>
      <trkpt lat="45.25631" lon="5.71873">
        <ele>589.48278808594</ele>
        <time>2011-05-15T09:00:25Z</time>
      </trkpt>
      <trkpt lat="45.25623" lon="5.71871">
        <ele>587.75817871094</ele>
        <time>2011-05-15T09:00:27Z</time>
      </trkpt>
      <trkpt lat="45.25612" lon="5.71868">
        <ele>585.26751708984</ele>
        <time>2011-05-15T09:00:30Z</time>
      </trkpt>
      <trkpt lat="45.25594" lon="5.71868">
        <ele>581.91070556641</ele>
        <time>2011-05-15T09:00:34Z</time>
      </trkpt>
      <trkpt lat="45.25594" lon="5.71868">
        <ele>581.91070556641</ele>
        <time>2011-05-15T09:00:34Z</time>
      </trkpt>
      <trkpt lat="45.25584" lon="5.71869">
        <ele>580.19409179688</ele>
        <time>2011-05-15T09:00:36Z</time>
      </trkpt>
      <trkpt lat="45.25571" lon="5.7187">
        <ele>577.12799072266</ele>
        <time>2011-05-15T09:00:39Z</time>
      </trkpt>
      <trkpt lat="45.25554" lon="5.71877">
        <ele>573.09680175781</ele>
        <time>2011-05-15T09:00:44Z</time>
      </trkpt>
      <trkpt lat="45.25543" lon="5.71893">
        <ele>570.7783203125</ele>
        <time>2011-05-15T09:00:48Z</time>
      </trkpt>
      <trkpt lat="45.25539" lon="5.71897">
        <ele>569.95434570312</ele>
        <time>2011-05-15T09:00:49Z</time>
      </trkpt>
      <trkpt lat="45.25511" lon="5.7191">
        <ele>564.00378417969</ele>
        <time>2011-05-15T09:00:55Z</time>
      </trkpt>
      <trkpt lat="45.25484" lon="5.71912">
        <ele>558.42651367188</ele>
        <time>2011-05-15T09:01:01Z</time>
      </trkpt>
      <trkpt lat="45.25479" lon="5.71912">
        <ele>557.6025390625</ele>
        <time>2011-05-15T09:01:02Z</time>
      </trkpt>
      <trkpt lat="45.25459" lon="5.71918">
        <ele>553.55780029297</ele>
        <time>2011-05-15T09:01:07Z</time>
      </trkpt>
      <trkpt lat="45.25454" lon="5.7192">
        <ele>552.85046386719</ele>
        <time>2011-05-15T09:01:08Z</time>
      </trkpt>
      <trkpt lat="45.25446" lon="5.71923">
        <ele>551.49169921875</ele>
        <time>2011-05-15T09:01:10Z</time>
      </trkpt>
      <trkpt lat="45.25425" lon="5.7192">
        <ele>546.91510009766</ele>
        <time>2011-05-15T09:01:15Z</time>
      </trkpt>
      <trkpt lat="45.25418" lon="5.71914">
        <ele>545.697265625</ele>
        <time>2011-05-15T09:01:17Z</time>
      </trkpt>
      <trkpt lat="45.25413" lon="5.71904">
        <ele>545.77056884766</ele>
        <time>2011-05-15T09:01:19Z</time>
      </trkpt>
      <trkpt lat="45.254" lon="5.71873">
        <ele>545.87756347656</ele>
        <time>2011-05-15T09:01:25Z</time>
      </trkpt>
      <trkpt lat="45.25384" lon="5.71843">
        <ele>545.71533203125</ele>
        <time>2011-05-15T09:01:31Z</time>
      </trkpt>
      <trkpt lat="45.25381" lon="5.71837">
        <ele>545.84893798828</ele>
        <time>2011-05-15T09:01:32Z</time>
      </trkpt>
      <trkpt lat="45.25371" lon="5.71807">
        <ele>545.69976806641</ele>
        <time>2011-05-15T09:01:37Z</time>
      </trkpt>
      <trkpt lat="45.25359" lon="5.71761">
        <ele>545.23706054688</ele>
        <time>2011-05-15T09:01:44Z</time>
      </trkpt>
      <trkpt lat="45.25347" lon="5.71724">
        <ele>546.71759033203</ele>
        <time>2011-05-15T09:01:50Z</time>
      </trkpt>
      <trkpt lat="45.25336" lon="5.71697">
        <ele>544.34997558594</ele>
        <time>2011-05-15T09:01:55Z</time>
      </trkpt>
      <trkpt lat="45.25324" lon="5.71681">
        <ele>541.89215087891</ele>
        <time>2011-05-15T09:01:59Z</time>
      </trkpt>
      <trkpt lat="45.25322" lon="5.71691">
        <ele>541.54437255859</ele>
        <time>2011-05-15T09:02:03Z</time>
      </trkpt>
      <trkpt lat="45.25333" lon="5.71722">
        <ele>542.85192871094</ele>
        <time>2011-05-15T09:02:09Z</time>
      </trkpt>
      <trkpt lat="45.25332" lon="5.71731">
        <ele>541.54034423828</ele>
        <time>2011-05-15T09:02:11Z</time>
      </trkpt>
      <trkpt lat="45.25329" lon="5.71742">
        <ele>539.72344970703</ele>
        <time>2011-05-15T09:02:16Z</time>
      </trkpt>
      <trkpt lat="45.25328" lon="5.71745">
        <ele>539.25469970703</ele>
        <time>2011-05-15T09:02:25Z</time>
      </trkpt>
    </trkseg>
  </trk>
</gpx>